[[{"header":{"parameterUnit":"m.s-1","parameterCategory":1,"la1":30.6,"la2":28.766,"lo1":-90.7593,"lo2":-88.6598,"dy":0.0162,"dx":0.0183,"nx":116,"ny":114,"refTime":"2024-04-04T12:00:00:Z","depth":0,"parameterNumber":2,"parameterNumberName":"U-component_of_WINDS"},"data":[0.0,0.0,0.0,0.0,0.0,0.0,0.0,0.0,0.0,0.0,0.0,0.0,0.0,0.0,0.0,0.0,0.0,0.0,0.0,0.0,0.0,0.0,0.0,0.0,0.0,0.0,0.0,0.0,0.0,0.0,0.0,0.0,0.0,0.0,0.0,0.0,0.0,0.0,0.0,0.0,0.0,0.0,0.0,0.0,0.0,0.0,0.0,0.0,0.0,0.0,0.0,0.0,0.0,0.0,0.0,0.0,0.0,0.0,0.0,0.0,0.0,0.0,0.0,0.0,0.0,0.0,0.0,0.0,0.0,0.0,0.0,0.0,0.0,0.0,0.0,0.0,0.0,0.0,0.0,0.0,0.0,0.0,0.0,0.0,0.0,0.0,0.0,0.0,0.0,0.0,0.0,0.0,0.0,0.0,0.0,0.0,0.0,0.0,0.0,0.0,0.0,0.0,0.0,0.0,0.0,0.0,0.0,0.0,0.0,0.0,0.0,0.0,0.0,0.0,0.0,0.0,0.0,0.0,0.0,0.0,0.0,0.0,0.0,0.0,0.0,0.0,0.0,0.0,0.0,0.0,0.0,0.0,0.0,0.0,0.0,0.0,0.0,0.0,0.0,0.0,0.0,0.0,0.0,0.0,0.0,0.0,0.0,0.0,0.0,0.0,0.0,0.0,0.0,0.0,0.0,0.0,0.0,0.0,0.0,0.0,0.0,0.0,0.0,0.0,0.0,0.0,0.0,0.0,0.0,0.0,0.0,0.0,0.0,0.0,0.0,0.0,0.0,0.0,0.0,0.0,0.0,0.0,0.0,0.0,0.0,0.0,0.0,0.0,0.0,0.0,0.0,0.0,0.0,0.0,0.0,0.0,0.0,0.0,0.0,0.0,0.0,0.0,0.0,0.0,0.0,0.0,0.0,0.0,0.0,0.0,0.0,0.0,0.0,0.0,0.0,0.0,0.0,0.0,0.0,0.0,0.0,0.0,0.0,0.0,0.0,0.0,0.0,0.0,0.0,0.0,0.0,0.0,0.0,0.0,0.0,0.0,0.0,0.0,0.0,0.0,0.0,0.0,0.0,0.0,0.0,0.0,0.0,0.0,0.0,0.0,0.0,0.0,0.0,0.0,0.0,0.0,0.0,0.0,0.0,0.0,0.0,0.0,0.0,0.0,0.0,0.0,0.0,0.0,0.0,0.0,0.0,0.0,0.0,0.0,0.0,0.0,0.0,0.0,0.0,0.0,0.0,0.0,0.0,0.0,0.0,0.0,0.0,0.0,0.0,0.0,0.0,0.0,0.0,0.0,0.0,0.0,0.0,0.0,0.0,0.0,0.0,0.0,0.0,0.0,0.0,0.0,0.0,0.0,0.0,0.0,0.0,0.0,0.0,0.0,0.0,0.0,0.0,0.0,0.0,0.0,0.0,0.0,0.0,0.0,0.0,0.0,0.0,0.0,0.0,0.0,0.0,0.0,0.0,0.0,0.0,0.0,0.0,0.0,0.0,0.0,0.0,0.0,0.0,0.0,0.0,0.0,0.0,0.0,0.0,0.0,0.0,0.0,0.0,0.0,0.0,0.0,0.0,0.0,0.0,0.0,0.0,0.0,0.0,0.0,0.0,0.0,0.0,0.0,0.0,0.0,0.0,0.0,0.0,0.0,0.0,0.0,0.0,0.0,0.0,0.0,0.0,0.0,0.0,0.0,0.0,0.0,0.0,0.0,0.0,0.0,0.0,0.0,0.0,0.0,0.0,0.0,0.0,0.0,0.0,0.0,0.0,0.0,0.0,0.0,0.0,0.0,0.0,0.0,0.0,0.0,0.0,0.0,0.0,0.0,0.0,0.0,0.0,0.0,0.0,0.0,0.0,0.0,0.0,0.0,0.0,0.0,0.0,0.0,0.0,0.0,0.0,0.0,0.0,0.0,0.0,0.0,0.0,0.0,0.0,0.0,0.0,0.0,0.0,0.0,0.0,0.0,0.0,0.0,0.0,0.0,0.0,0.0,0.0,0.0,0.0,0.0,0.0,0.0,0.0,0.0,0.0,0.0,0.0,0.0,0.0,0.0,0.0,0.0,0.0,0.0,0.0,0.0,0.0,0.0,0.0,0.0,0.0,0.0,0.0,0.0,0.0,0.0,0.0,0.0,0.0,0.0,0.0,0.0,0.0,0.0,0.0,0.0,0.0,0.0,0.0,0.0,0.0,0.0,0.0,0.0,0.0,0.0,0.0,0.0,0.0,0.0,0.0,0.0,0.0,0.0,0.0,0.0,0.0,0.0,0.0,0.0,0.0,0.0,0.0,0.0,0.0,0.0,0.0,0.0,0.0,0.0,0.0,0.0,0.0,0.0,0.0,0.0,0.0,0.0,0.0,0.0,0.0,0.0,0.0,0.0,0.0,0.0,0.0,0.0,0.0,0.0,0.0,0.0,0.0,0.0,0.0,0.0,0.0,0.0,0.0,0.0,0.0,0.0,0.0,0.0,0.0,0.0,0.0,0.0,0.0,0.0,0.0,0.0,0.0,0.0,0.0,0.0,0.0,0.0,0.0,0.0,0.0,0.0,0.0,0.0,0.0,0.0,0.0,0.0,0.0,0.0,0.0,0.0,0.0,0.0,0.0,0.0,0.0,0.0,0.0,0.0,0.0,0.0,0.0,0.0,0.0,0.0,0.0,0.0,0.0,0.0,0.0,0.0,0.0,0.0,0.0,0.0,0.0,0.0,0.0,0.0,0.0,0.0,0.0,0.0,0.0,0.0,0.0,0.0,0.0,0.0,0.0,0.0,0.0,0.0,0.0,0.0,0.0,0.0,0.0,0.0,0.0,0.0,0.0,0.0,0.0,0.0,0.0,0.0,0.0,0.0,0.0,0.0,0.0,0.0,0.0,0.0,0.0,0.0,0.0,0.0,0.0,0.0,0.0,0.0,0.0,0.0,0.0,0.0,0.0,0.0,0.0,0.0,0.0,0.0,0.0,0.0,0.0,0.0,0.0,0.0,0.0,0.0,0.0,0.0,0.0,0.0,0.0,0.0,0.0,0.0,0.0,0.0,0.0,0.0,0.0,0.0,0.0,0.0,0.0,0.0,0.0,0.0,0.0,0.0,0.0,0.0,0.0,0.0,0.0,0.0,0.0,0.0,0.0,0.0,0.0,0.0,0.0,0.0,0.0,0.0,0.0,0.0,0.0,0.0,0.0,0.0,0.0,0.0,0.0,0.0,0.0,0.0,0.0,0.0,0.0,0.0,0.0,0.0,0.0,0.0,0.0,0.0,0.0,0.0,0.0,0.0,0.0,0.0,0.0,0.0,0.0,0.0,0.0,0.0,0.0,0.0,0.0,0.0,0.0,0.0,0.0,0.0,0.0,0.0,0.0,0.0,0.0,0.0,0.0,0.0,0.0,0.0,0.0,0.0,0.0,0.0,0.0,0.0,0.0,0.0,0.0,0.0,0.0,0.0,0.0,0.0,0.0,0.0,0.0,0.0,0.0,0.0,0.0,0.0,0.0,0.0,0.0,0.0,0.0,0.0,0.0,0.0,0.0,0.0,0.0,0.0,0.0,0.0,0.0,0.0,0.0,0.0,0.0,0.0,0.0,0.0,0.0,0.0,0.0,0.0,0.0,0.0,0.0,0.0,0.0,0.0,0.0,0.0,0.0,0.0,0.0,0.0,0.0,0.0,0.0,0.0,0.0,0.0,0.0,0.0,0.0,0.0,0.0,0.0,0.0,0.0,0.0,0.0,0.0,0.0,0.0,0.0,0.0,0.0,0.0,0.0,0.0,0.0,0.0,0.0,0.0,0.0,0.0,0.0,0.0,0.0,0.0,0.0,0.0,0.0,0.0,0.0,0.0,0.0,0.0,0.0,0.0,0.0,0.0,0.0,0.0,0.0,0.0,0.0,0.0,0.0,0.0,0.0,0.0,0.0,0.0,0.0,0.0,0.0,0.0,0.0,0.0,0.0,0.0,0.0,0.0,0.0,0.0,0.0,0.0,0.0,0.0,0.0,0.0,0.0,0.0,0.0,0.0,0.0,0.0,0.0,0.0,0.0,0.0,0.0,0.0,0.0,0.0,0.0,0.0,0.0,0.0,0.0,0.0,0.0,0.0,0.0,0.0,0.0,0.0,0.0,0.0,0.0,0.0,0.0,0.0,0.0,0.0,0.0,0.0,0.0,0.0,0.0,0.0,0.0,0.0,0.0,0.0,0.0,0.0,0.0,0.0,0.0,0.0,0.0,0.0,0.0,0.0,0.0,0.0,0.0,0.0,0.0,0.0,0.0,0.0,0.0,0.0,0.0,0.0,0.0,0.0,0.0,0.0,0.0,0.0,0.0,0.0,0.0,0.0,0.0,0.0,0.0,0.0,0.0,0.0,0.0,0.0,0.0,0.0,0.0,0.0,0.0,0.0,0.0,0.0,0.0,0.0,0.0,0.0,0.0,0.0,0.0,0.0,0.0,0.0,0.0,0.0,0.0,0.0,0.0,0.0,0.0,0.0,0.0,0.0,0.0,0.0,0.0,0.0,0.0,0.0,0.0,0.0,0.0,0.0,0.0,0.0,0.0,0.0,0.0,0.0,0.0,0.0,0.0,0.0,0.0,0.0,0.0,0.0,0.0,0.0,0.0,0.0,0.0,0.0,0.0,0.0,0.0,0.0,0.0,0.0,0.0,0.0,0.0,0.0,0.0,0.0,0.0,0.0,0.0,0.0,0.0,0.0,0.0,0.0,0.0,0.0,0.0,0.0,0.0,0.0,0.0,0.0,0.0,0.0,0.0,0.0,0.0,0.0,0.0,0.0,0.0,0.0,0.0,0.0,0.0,0.0,0.0,0.0,0.0,0.0,0.0,0.0,0.0,0.0,0.0,0.0,0.0,0.0,0.0,0.0,0.0,0.0,0.0,0.0,0.0,0.0,0.0,0.0,0.0,0.0,0.0,0.0,0.0,0.0,0.0,0.0,0.0,0.0,0.0,0.0,0.0,0.0,0.0,0.0,0.0,0.0,0.0,0.0,0.0,0.0,0.0,0.0,0.0,0.0,0.0,0.0,0.0,0.0,0.0,0.0,0.0,0.0,0.0,0.0,0.0,0.0,0.0,0.0,0.0,0.0,0.0,0.0,0.0,0.0,0.0,0.0,0.0,0.0,0.0,0.0,0.0,0.0,0.0,0.0,0.0,0.0,0.0,0.0,0.0,0.0,0.0,0.0,0.0,0.0,0.0,0.0,0.0,0.0,0.0,0.0,0.0,0.0,0.0,0.0,0.0,0.0,0.0,0.0,0.0,0.0,0.0,0.0,0.0,0.0,0.0,0.0,0.0,0.0,0.0,0.0,0.0,0.0,0.0,0.0,0.0,0.0,0.0,0.0,0.0,0.0,0.0,0.0,0.0,0.0,0.0,0.0,0.0,0.0,0.0,0.0,0.0,0.0,0.0,0.0,0.0,0.0,0.0,0.0,0.0,0.0,0.0,0.0,0.0,0.0,0.0,0.0,0.0,0.0,0.0,0.0,0.0,0.0,0.0,0.0,0.0,0.0,0.0,0.0,0.0,0.0,0.0,0.0,0.0,0.0,0.0,0.0,0.0,0.0,0.0,0.0,0.0,0.0,0.0,0.0,0.0,0.0,0.0,0.0,0.0,0.0,0.0,0.0,0.0,0.0,0.0,0.0,0.0,0.0,0.0,0.0,0.0,0.0,0.0,0.0,0.0,0.0,0.0,0.0,0.0,0.0,0.0,0.0,0.0,0.0,0.0,0.0,0.0,0.0,0.0,0.0,0.0,0.0,0.0,0.0,0.0,0.0,0.0,0.0,0.0,0.0,0.0,0.0,0.0,0.0,0.0,0.0,0.0,0.0,0.0,0.0,0.0,0.0,0.0,0.0,0.0,0.0,0.0,0.0,0.0,0.0,0.0,0.0,0.0,0.0,0.0,0.0,0.0,0.0,0.0,0.0,0.0,0.0,0.0,0.0,0.0,0.0,0.0,0.0,0.0,0.0,0.0,0.0,0.0,0.0,0.0,0.0,0.0,0.0,0.0,0.0,0.0,0.0,0.0,0.0,0.0,0.0,0.0,0.0,0.0,0.0,0.0,0.0,0.0,0.0,0.0,0.0,0.0,1.975,0.0,0.0,0.0,0.0,0.0,0.0,0.0,0.0,0.0,0.0,0.0,0.0,0.0,0.0,0.0,0.0,0.0,0.0,0.0,0.0,0.0,0.0,0.0,0.0,0.9778,1.0093,1.0037,1.0016,0.9747,0.9072,0.0,0.0,0.0,0.0,0.0,1.3459,1.3954,1.4651,1.5701,1.6125,1.6482,1.6872,1.7504,1.7807,1.7834,0.0,0.0,0.0,0.0,0.0,0.0,0.0,0.0,0.0,0.0,0.0,0.0,0.0,0.0,0.0,0.0,0.0,0.0,0.0,0.0,0.0,0.0,0.0,0.0,0.0,0.0,0.0,0.0,0.0,0.0,0.0,0.0,0.0,0.0,0.0,0.0,0.0,0.0,0.0,0.0,0.0,0.0,0.0,0.0,0.0,0.0,0.0,0.0,0.0,0.0,0.0,0.0,0.0,0.0,0.0,0.0,0.0,0.0,0.0,0.0,0.0,0.0,0.0,0.0,0.0,0.0,0.0,0.0,0.0,0.0,0.0,2.1306,0.0,0.0,0.0,0.0,0.0,0.0,0.0,0.0,0.0,0.0,0.0,0.0,0.0,0.0,0.0,0.0,0.0,0.0,0.0,0.0,0.0,0.8486,0.9046,0.9583,1.0002,1.0254,1.0435,1.028,0.961,1.02,1.0421,1.0047,1.1911,1.3056,1.3322,1.4655,1.5679,1.6272,1.6484,1.7243,1.854,1.854,1.8394,0.0,0.0,0.0,0.0,0.0,0.0,0.0,0.0,0.0,0.0,0.0,0.0,0.0,0.0,0.0,0.0,0.0,0.0,0.0,0.0,0.0,0.0,0.0,0.0,0.0,0.0,0.0,0.0,0.0,0.0,0.0,0.0,0.0,0.0,0.0,0.0,0.0,0.0,0.0,0.0,0.0,0.0,0.0,0.0,0.0,0.0,0.0,0.0,0.0,0.0,0.0,0.0,0.0,0.0,0.0,0.0,0.0,0.0,0.0,0.0,0.0,0.0,0.0,0.0,0.0,0.0,2.6942,2.671,2.7502,2.749,2.6698,2.4688,2.2957,2.1679,0.0,0.0,0.0,0.0,0.0,0.0,0.0,0.0,0.0,0.0,0.0,0.0,0.0,0.0,0.0,0.0,0.0,0.0,0.0,0.0,0.8589,0.8676,0.9675,1.0622,1.1406,1.1277,1.1353,1.1638,1.092,1.0612,1.0988,1.155,1.2565,1.4135,1.5009,1.5749,1.6272,1.7325,1.8656,2.02,2.02,0.0,0.0,0.0,0.0,0.0,0.0,0.0,0.0,0.0,0.0,0.0,0.0,0.0,0.0,0.0,0.0,0.0,0.0,0.0,0.0,0.0,0.0,0.0,0.0,0.0,0.0,0.0,0.0,0.0,0.0,0.0,0.0,0.0,0.0,0.0,0.0,0.0,0.0,0.0,0.0,0.0,0.0,0.0,0.0,0.0,0.0,2.15,2.2029,0.0,0.0,0.0,0.0,0.0,0.0,0.0,0.0,0.0,0.0,0.0,0.0,0.0,0.0,2.7091,2.7681,2.8017,2.8102,2.9088,2.9088,2.8222,2.9301,2.9458,2.8859,2.859,0.0,2.4949,2.4401,0.0,0.0,0.0,0.0,0.0,0.0,0.0,0.0,0.0,0.0,0.0,0.0,0.0,0.0,0.0,0.0,0.0,0.0,0.0,0.0,0.0,1.1002,1.1992,1.2633,1.3899,1.3871,1.1951,1.2368,1.2065,1.0773,1.1808,1.2857,1.38,1.4825,1.6079,1.7335,1.9025,2.0163,2.0851,0.0,0.0,0.0,0.0,0.0,0.0,0.0,0.0,0.0,0.0,0.0,0.0,0.0,0.0,0.0,0.0,0.0,0.0,0.0,0.0,0.0,0.0,0.0,0.0,0.0,0.0,0.0,0.0,0.0,0.0,0.0,0.0,0.0,0.0,0.0,0.0,0.0,0.0,0.0,0.0,0.0,0.0,0.0,0.0,0.0,0.0,2.2522,2.3364,2.2714,2.3821,2.4422,0.0,0.0,0.0,0.0,0.0,0.0,0.0,0.0,0.0,2.7091,2.7909,2.8715,2.9484,3.0326,3.0903,3.1204,3.1949,3.2226,3.2082,3.2539,3.2623,3.2394,3.2094,3.0975,2.9334,2.6989,2.5463,2.4566,0.0,0.0,0.0,0.0,0.0,2.6392,0.0,0.0,0.0,0.0,0.0,0.0,0.0,0.0,0.0,0.0,0.0,0.0,1.0813,1.2056,1.3006,1.3676,1.5316,1.5163,1.2531,1.3216,1.2842,1.0779,1.1979,1.2966,1.341,1.5085,1.6832,1.86,2.0277,2.1221,0.0,0.0,0.0,0.0,0.0,0.0,0.0,0.0,0.0,0.0,0.0,0.0,0.0,0.0,0.0,0.0,0.0,0.0,0.0,0.0,0.0,0.0,0.0,0.0,0.0,0.0,0.0,0.0,0.0,0.0,0.0,0.0,0.0,0.0,0.0,0.0,0.0,0.0,0.0,0.0,0.0,0.0,0.0,0.0,0.0,0.0,0.0,2.3797,2.4626,2.334,2.4807,2.5612,0.0,0.0,0.0,0.0,0.0,0.0,2.6731,2.8138,2.9184,2.9713,3.0747,3.1625,3.2286,3.3092,3.3765,3.4294,3.4535,3.4847,3.5232,3.5232,3.5232,3.5196,3.4667,3.4006,3.302,2.96,2.7548,2.6505,2.6115,2.5975,2.6093,2.6382,2.71,2.8066,0.0,0.0,0.0,0.0,0.0,0.0,0.0,0.0,0.0,0.0,0.0,0.9278,1.0949,1.1861,1.2979,1.4303,1.3967,1.3897,1.444,1.2879,1.1883,1.1836,1.1878,1.24,1.3417,1.6426,1.8481,0.0,0.0,0.0,0.0,0.0,0.0,0.0,0.0,0.0,0.0,0.0,0.0,0.0,0.0,0.0,0.0,0.0,0.0,0.0,0.0,0.0,0.0,0.0,0.0,0.0,0.0,0.0,0.0,0.0,0.0,0.0,0.0,0.0,0.0,0.0,0.0,0.0,0.0,0.0,0.0,0.0,0.0,0.0,0.0,0.0,0.0,0.0,0.0,0.0,0.0,0.0,0.0,2.3797,2.6021,0.0,0.0,0.0,0.0,2.8234,2.9256,3.0062,3.0567,3.1649,3.2503,3.3032,3.4054,3.5088,3.611,3.6182,3.6471,3.6988,3.6519,3.6302,3.6326,3.6326,3.6326,3.629,3.5761,3.5509,3.5208,3.1997,3.005,2.9051,2.8773,2.8621,2.8536,2.8243,2.8479,2.8901,0.0,0.0,0.0,0.0,0.0,0.8062,0.7901,0.8045,0.8339,0.8861,0.9232,1.0281,1.2319,1.322,1.4255,1.5576,1.6277,1.6052,1.4703,1.4361,1.3685,1.2433,1.2421,1.304,1.4396,1.714,1.8732,0.0,0.0,0.0,0.0,0.0,0.0,0.0,0.0,0.0,0.0,0.0,0.0,0.0,0.0,0.0,0.0,0.0,0.0,0.0,0.0,0.0,0.0,0.0,0.0,0.0,0.0,0.0,0.0,0.0,0.0,0.0,0.0,0.0,0.0,0.0,0.0,0.0,0.0,0.0,0.0,0.0,0.0,0.0,0.0,0.0,0.0,0.0,0.0,0.0,0.0,0.0,0.0,2.7813,2.9893,0.0,0.0,2.9917,3.0482,3.1036,3.2046,3.2863,3.3392,3.3946,3.4454,3.4629,3.4778,3.5136,3.5508,3.5508,3.5708,3.5877,3.538,3.5131,3.5131,3.5131,3.5573,3.6202,3.5678,3.5871,3.6519,3.504,3.3224,3.1276,3.0471,2.9916,2.9627,2.9842,3.0107,3.0276,0.0,0.0,0.0,0.0,0.8008,0.8062,0.7901,0.8123,0.8477,0.9059,0.9753,1.1025,1.3205,1.4143,1.5159,1.6512,1.7043,1.6574,1.4974,1.4731,1.406,1.2856,1.3101,1.397,1.5548,1.7779,1.8825,1.8743,0.0,0.0,0.0,0.0,0.0,0.0,0.0,0.0,0.0,0.0,0.0,0.0,0.0,0.0,2.1585,0.0,0.0,0.0,0.0,0.0,0.0,0.0,0.0,0.0,0.0,0.0,0.0,0.0,0.0,0.0,0.0,0.0,0.0,0.0,0.0,0.0,0.0,0.0,0.0,0.0,0.0,0.0,0.0,0.0,0.0,0.0,0.0,0.0,0.0,0.0,3.0362,3.1084,3.2731,3.3525,3.2803,3.2899,3.3224,3.3777,3.4385,3.4993,3.5514,3.547,3.5432,3.5542,3.545,3.5522,3.5533,3.5533,3.5533,3.5533,3.5043,3.4815,3.4815,3.5277,3.5859,3.6472,3.6561,3.6862,3.7421,3.6892,3.5653,3.3958,3.2707,3.1889,3.1444,3.1625,3.1697,3.1797,0.0,0.0,0.0,0.7889,0.7895,0.7901,0.7901,0.8123,0.8483,0.901,1.0073,1.1435,1.3312,1.4514,1.5652,1.6938,1.5822,1.5203,1.5469,1.3743,1.2837,1.3145,1.4033,1.5226,1.6599,1.8207,1.8912,1.8918,0.0,0.0,0.0,0.0,0.0,0.0,0.0,0.0,0.0,0.0,0.0,0.0,0.0,0.0,2.2811,0.0,0.0,0.0,0.0,0.0,0.0,0.0,0.0,0.0,0.0,0.0,0.0,0.0,0.0,0.0,0.0,0.0,0.0,0.0,0.0,0.0,0.0,0.0,0.0,0.0,0.0,0.0,0.0,0.0,0.0,0.0,0.0,0.0,2.7873,3.0122,3.2178,3.332,3.4366,3.4906,3.4918,3.5385,3.6002,3.6429,3.6342,3.6466,3.6958,3.6153,3.57,3.5667,3.6123,3.6362,3.6351,3.6351,3.6351,3.634,3.5873,3.5645,3.5645,3.7052,3.7359,3.7001,3.8247,3.8491,3.7938,3.7433,3.7216,3.706,3.5473,3.4535,3.403,3.3525,3.3332,3.3236,0.0,0.0,0.7659,0.7659,0.7822,0.7901,0.7901,0.8123,0.8549,0.9274,1.0455,1.1986,1.3865,1.4823,1.5819,1.7001,1.5656,1.4938,1.5197,1.364,1.3085,1.3936,1.5082,1.6024,1.6948,1.8266,1.892,1.8716,1.8994,0.0,0.0,0.0,0.0,0.0,0.0,0.0,0.0,0.0,0.0,0.0,0.0,0.0,2.3675,0.0,0.0,0.0,0.0,0.0,0.0,0.0,0.0,0.0,0.0,0.0,0.0,0.0,0.0,0.0,0.0,0.0,0.0,0.0,0.0,0.0,0.0,0.0,0.0,0.0,0.0,0.0,0.0,0.0,0.0,0.0,0.0,3.118,3.118,3.2791,3.4385,3.5607,3.7559,3.8205,3.661,3.84,3.9042,3.754,3.8324,3.854,3.7701,3.6502,3.5659,3.4998,3.4462,3.4061,3.3871,3.3861,3.3861,3.3861,3.3417,3.3684,3.4602,3.4955,3.5742,3.6989,3.7333,3.7699,3.7974,3.7829,3.7769,3.7613,3.6014,3.5304,3.5124,3.4595,3.4162,3.3765,0.0,0.7604,0.7791,0.7791,0.7872,0.7901,0.7901,0.8123,0.8537,0.922,1.0822,1.2439,1.3966,1.5252,1.6254,1.6875,1.5873,1.5083,1.4787,1.3888,1.3749,1.46,1.5878,1.6888,1.7569,1.8477,1.9019,1.9187,1.9187,1.9344,0.0,0.0,0.0,0.0,0.0,0.0,0.0,0.0,0.0,0.0,0.0,0.0,2.5491,2.3877,2.3501,2.3749,2.3015,2.2676,2.2465,2.1649,0.0,0.0,0.0,0.0,0.0,0.0,0.0,0.0,0.0,0.0,0.0,0.0,0.0,0.0,0.0,0.0,0.0,0.0,0.0,0.0,0.0,0.0,0.0,0.0,3.2034,3.3636,3.4304,3.5616,3.6931,3.8252,3.9974,4.0259,3.815,3.9877,4.0237,3.8292,3.8437,3.8102,3.7153,3.5913,3.4861,3.4154,3.3648,3.3301,3.3057,3.3057,3.3057,3.3057,3.2812,3.3045,3.3872,3.4348,3.5403,0.0,3.7166,3.7699,3.831,3.8082,3.7986,0.0,0.0,0.0,0.0,0.0,3.4631,3.4294,0.0,0.785,0.7996,0.7996,0.7908,0.7853,0.7853,0.8105,0.8477,0.9059,1.096,1.265,1.3664,1.539,1.6513,1.6598,1.603,1.5276,1.4358,1.4328,1.4642,1.5306,1.6579,1.7648,1.8456,1.8988,1.9489,1.9977,1.9977,1.9977,0.0,0.0,0.0,0.0,0.0,0.0,0.0,0.0,0.0,0.0,0.0,0.0,2.7728,2.6169,2.5766,2.5876,2.4711,2.3859,2.3153,2.2245,0.0,0.0,0.0,0.0,0.0,0.0,0.0,0.0,0.0,0.0,0.0,0.0,0.0,0.0,0.0,0.0,0.0,0.0,0.0,0.0,0.0,0.0,0.0,0.0,3.3911,3.5317,3.6835,3.8055,3.9192,4.0114,4.1014,4.0912,3.9087,3.9922,4.0028,3.8388,3.7338,3.648,3.5889,0.0,0.0,0.0,0.0,3.3418,3.3418,3.3418,3.3418,3.3418,3.3418,3.3418,3.366,3.5005,3.594,3.6489,3.7473,3.812,3.8467,3.819,3.7986,3.7926,3.7397,3.6831,3.6194,3.5256,3.4871,0.0,0.0,0.7442,0.7458,0.7458,0.7548,0.7674,0.7674,0.8033,0.8477,0.9059,1.0803,1.224,1.2868,1.4232,1.5354,1.5988,1.4968,1.4292,1.4298,1.4509,1.5258,1.6646,1.7781,1.8752,1.9561,2.0092,2.0412,2.0521,2.0521,2.0521,0.0,0.0,0.0,0.0,0.0,0.0,0.0,0.0,0.0,0.0,0.0,0.0,2.8608,2.7315,2.6674,2.6353,2.5454,2.5234,2.5152,2.3684,2.3538,2.3666,2.2025,0.0,0.0,0.0,0.0,0.0,0.0,0.0,0.0,0.0,0.0,0.0,0.0,0.0,0.0,0.0,0.0,0.0,0.0,0.0,0.0,3.368,3.5023,3.6175,3.7352,3.8309,3.8411,3.7106,3.8474,3.8627,3.6485,3.8671,3.9271,3.6673,3.6983,3.6575,3.4971,3.4377,0.0,3.3428,3.3418,3.3418,3.3418,3.3418,3.3418,3.3418,0.0,0.0,3.5005,3.6338,3.66,3.6136,3.8257,3.8264,3.6816,3.7596,3.7986,3.7926,3.7397,3.6615,3.5749,3.5533,3.5196,3.4811,0.0,0.7745,0.7736,0.7565,0.7717,0.7791,0.7646,0.7997,0.8477,0.9059,1.0405,1.1624,1.2421,1.335,1.4075,1.4473,1.39,1.3797,0.0,1.5131,1.6157,1.763,1.8456,1.932,2.0255,2.0533,2.0798,2.1076,2.1076,2.1076,2.1076,0.0,0.0,0.0,0.0,0.0,0.0,0.0,0.0,0.0,0.0,0.0,2.8773,2.7741,2.7661,2.7976,2.7169,2.6747,2.638,2.5161,2.4629,2.4216,2.2795,2.1924,2.1471,0.0,0.0,0.0,0.0,0.0,0.0,0.0,0.0,0.0,0.0,0.0,0.0,0.0,0.0,2.8242,2.9444,0.0,3.2463,3.3944,3.4798,3.5547,3.6227,3.6408,3.6507,3.6544,3.8157,3.8333,3.6006,3.7575,3.8098,3.6152,3.6266,3.595,3.4726,3.4297,3.3867,3.3428,3.3418,3.3418,3.3418,3.3418,3.3418,3.3418,3.4027,3.4403,3.4393,3.5735,3.5965,3.5414,3.7286,3.754,3.6697,3.7655,3.7986,3.795,3.7685,3.7108,3.6374,3.611,3.5845,3.5617,0.0,0.7916,0.8048,0.7785,0.7822,0.7859,0.7666,0.802,0.8459,0.8932,0.9983,1.0954,1.1763,1.2379,1.2777,1.288,1.3127,1.3773,0.0,1.591,1.7086,1.8541,1.9054,1.976,2.0726,2.0744,2.0985,2.148,2.1529,2.1529,2.148,0.0,0.0,0.0,0.0,0.0,0.0,0.0,0.0,0.0,0.0,0.0,2.7678,2.7021,2.8049,2.9681,2.8737,2.782,2.693,2.6032,2.4977,2.3923,2.3272,2.2722,2.2336,2.2564,2.2503,0.0,0.0,0.0,0.0,0.0,0.0,0.0,0.0,0.0,2.6214,2.7805,2.8847,2.9847,3.1061,3.2387,3.3407,3.3791,3.4132,3.4407,3.4565,3.4357,3.468,3.6062,3.7637,3.7932,3.5899,3.6644,3.6779,3.6016,3.5547,3.5098,3.4717,3.4219,3.3779,3.3428,3.3418,3.3418,3.3418,3.3418,3.3418,3.3418,3.4528,3.4518,3.3786,3.4799,3.4993,3.4669,3.5661,3.6541,3.7258,3.7822,3.7986,3.7986,3.7986,3.7721,3.7276,3.6747,3.6495,3.6411,0.0,0.7272,0.7511,0.7469,0.7387,0.7387,0.7669,0.8057,0.8393,0.8687,0.9711,1.0327,1.0143,1.0882,1.1528,1.2011,1.3139,0.0,1.6006,1.6664,1.7811,1.9627,1.9989,2.0418,2.1003,2.1016,2.1166,2.148,2.1716,2.171,2.1486,0.0,0.0,0.0,0.0,0.0,0.0,0.0,0.0,0.0,0.0,0.0,2.4402,2.4422,2.7004,3.0451,2.8938,2.7646,2.6481,2.5307,2.4335,2.3593,2.3501,2.2951,2.2245,2.194,0.0,2.0903,2.1537,2.2251,0.0,2.3872,2.4282,2.5139,0.0,0.0,2.888,3.1179,3.2116,3.2667,3.3329,3.3896,3.4222,3.3649,3.3887,3.3844,3.2935,3.3666,3.4223,3.3718,3.4467,3.4959,3.5059,3.547,3.5743,3.6025,3.5244,3.4756,3.4697,3.3935,3.3476,3.3418,3.3418,3.3418,3.3418,3.3418,3.3418,3.3418,3.3544,3.4153,3.5119,3.4952,3.4517,3.417,3.449,3.5844,3.7845,3.801,3.7986,3.7986,3.7986,3.7938,3.7829,3.73,3.6807,3.6411,0.0,0.0,0.6956,0.7335,0.7337,0.7344,0.7646,0.7902,0.8213,0.8621,0.9258,0.9711,0.985,1.0369,1.081,1.119,1.2439,0.0,1.571,1.6761,1.8088,1.9808,1.9989,2.0291,2.0822,2.0979,2.1197,2.148,2.1891,2.1963,2.1716,2.1975,0.0,0.0,0.0,0.0,0.0,0.0,0.0,0.0,0.0,0.0,2.3997,2.4282,2.5878,2.7864,2.7432,2.669,0.0,0.0,2.4739,2.418,2.3694,2.3153,2.2612,2.2199,2.1676,0.0,2.1417,0.0,0.0,0.0,2.4697,2.5658,2.7762,2.8307,2.8927,3.0979,3.2046,3.264,3.3079,3.3407,3.347,0.0,3.2756,3.2506,3.2568,3.2648,3.2593,3.2208,3.2974,3.3898,3.4929,3.4452,3.4595,3.552,3.4425,3.3816,3.4076,3.3504,3.3175,3.3418,3.3418,3.3786,3.4518,3.3786,3.3786,3.4518,3.4518,3.4891,3.5366,3.5618,3.5854,3.6181,3.5658,3.6622,3.8443,3.8118,3.7986,3.7986,3.7986,3.7986,3.795,3.7733,3.7505,3.7324,0.0,0.0,0.0,0.7293,0.7344,0.7482,0.7943,0.7992,0.8135,0.8731,0.8913,0.9166,0.9706,1.0,1.0297,1.049,1.1721,0.0,0.0,1.641,1.7931,1.9694,1.9845,2.0165,2.0762,2.0961,2.1197,2.148,2.1933,2.2054,2.1879,2.2138,0.0,0.0,0.0,0.0,0.0,0.0,0.0,0.0,0.0,0.0,2.2994,2.3095,2.3564,2.4392,2.5362,2.5276,0.0,0.0,2.4363,2.3877,2.3501,2.3085,2.2774,2.2447,2.2043,2.1719,2.1682,0.0,0.0,2.4559,2.5486,2.6596,2.8351,2.8836,2.95,3.1247,3.2086,3.2574,3.2671,3.2806,3.2673,3.2151,3.179,3.1753,3.2349,3.2078,3.1598,3.1231,3.192,3.2988,3.4366,3.3849,3.3915,3.508,3.3927,3.3186,3.3436,3.3152,3.3048,3.3301,3.3292,3.4027,3.5376,3.4403,3.4642,3.5981,3.5981,3.6104,3.6438,3.6783,3.7002,3.7288,3.6553,3.7115,3.8563,3.8154,3.7986,3.7986,3.7986,3.7986,3.7986,3.7986,3.7986,3.7986,0.0,0.0,0.0,0.0,0.7377,0.7724,0.8614,0.8407,0.8307,0.8932,0.8806,0.8896,0.9436,0.9724,0.9886,0.9892,1.1178,1.2626,1.4226,1.5578,1.7261,1.9386,1.9742,2.0249,2.1028,2.1058,2.1197,2.148,2.1752,2.1879,2.1879,2.2138,0.0,0.0,0.0,0.0,0.0,0.0,0.0,0.0,0.0,0.0,2.0424,1.9318,1.9576,2.09,2.2972,0.0,0.0,0.0,2.2492,2.197,2.2637,2.2875,0.0,2.2447,2.2043,2.1814,0.0,0.0,2.4239,2.5446,2.6894,2.841,3.0266,3.1117,3.1806,3.3266,3.3689,3.3351,3.2516,3.2613,3.2505,3.1027,3.1488,3.1992,3.2019,3.2429,3.2251,3.0981,3.12,3.1796,0.0,3.3316,3.4228,3.5181,3.3927,3.3056,3.3047,3.3034,3.2921,3.2921,3.3165,3.4027,3.5376,3.5376,3.5981,3.7298,3.7298,3.7899,3.9064,3.8206,3.7219,3.6277,3.6243,3.6904,3.7998,3.7986,3.7986,3.7986,3.7986,3.7986,3.7986,3.7986,3.7986,3.7986,0.0,0.0,0.0,0.0,0.0,0.7978,0.8735,0.8526,0.8437,0.8954,0.9007,0.0,0.0,0.0,0.0,0.0,1.0822,1.1992,1.3423,1.4926,1.6398,1.7829,1.8831,1.9555,1.9996,2.0527,2.0847,2.0943,2.139,2.1516,2.1341,2.1613,0.0,0.0,0.0,0.0,0.0,0.0,0.0,0.0,0.0,0.0,1.9807,1.8738,1.8598,1.9212,0.0,0.0,0.0,0.0,2.1108,2.1273,2.1025,0.0,0.0,2.1979,2.2226,2.2575,2.261,0.0,2.5479,2.6542,2.7715,2.9,3.0492,3.0917,3.1143,3.1692,3.1333,3.0823,3.0578,3.013,3.0055,3.076,3.08,3.0992,3.1515,3.2124,3.1884,3.0143,3.1759,0.0,0.0,0.0,0.0,3.5088,3.4158,3.3456,3.3251,3.4358,3.4642,3.4268,3.5355,3.6571,3.7899,3.7056,3.7298,3.8614,3.8168,3.8086,3.8229,3.836,3.8117,3.7429,3.7429,3.7655,3.7986,3.7986,3.7986,3.7986,3.7986,3.7986,3.7986,3.7986,3.7986,3.7986,0.0,0.0,0.0,0.0,0.0,0.0,0.0,0.0,0.0,0.0,0.0,0.0,0.0,0.0,0.0,0.0,0.0,0.0,0.0,0.0,1.4974,1.6042,1.7189,1.7919,1.8185,1.8698,1.9054,1.9253,1.9694,1.9965,2.0074,2.0352,2.0533,0.0,0.0,0.0,0.0,0.0,0.0,0.0,0.0,0.0,1.8485,1.7718,1.7753,0.0,0.0,0.0,0.0,0.0,0.0,2.1016,2.0512,2.0989,2.1768,2.1906,2.263,2.3446,2.3739,2.5289,2.7022,2.7829,2.8838,2.9865,3.0791,3.0781,3.0534,3.0387,2.9589,2.8883,2.8746,2.8067,2.8118,2.9823,2.9841,3.0018,3.1267,3.1928,3.1771,3.0276,3.2219,3.3268,0.0,0.0,0.0,3.5103,3.4381,3.3853,3.3766,3.4901,3.551,3.5253,3.6348,3.767,3.9228,3.8387,3.8625,3.9954,3.9627,3.8987,3.8435,3.8907,3.8695,3.7986,3.7986,3.7986,3.7986,3.7986,3.7986,3.7986,3.7986,3.7986,3.7986,3.7986,3.7986,3.7986,0.0,0.0,0.0,0.0,0.0,0.0,0.0,0.0,0.0,0.0,0.0,0.0,0.0,0.0,0.0,0.0,0.0,0.0,0.0,0.0,0.0,1.4129,1.4974,1.5547,1.5825,1.5855,1.6133,1.6658,1.6911,1.7424,1.8179,1.8426,1.8674,0.0,0.0,0.0,0.0,0.0,0.0,0.0,0.0,0.0,1.6695,1.642,0.0,0.0,0.0,0.0,0.0,0.0,0.0,0.0,2.1089,2.1383,2.1796,2.2272,2.329,2.4427,2.5262,2.6958,2.8673,2.9443,3.0231,3.091,3.124,3.0717,3.003,2.9525,2.8471,2.7499,0.0,0.0,2.6602,2.8582,2.8636,2.9266,3.1344,3.2029,3.2117,0.0,0.0,0.0,0.0,0.0,0.0,3.5212,0.0,3.4457,3.4497,3.4901,3.5284,3.5879,3.6369,3.7451,3.9228,3.9345,3.9954,4.1184,4.116,4.0595,3.9609,3.9573,3.8984,3.7986,3.7986,3.7986,3.7986,3.7986,3.7986,3.7986,3.7986,3.7986,3.7986,3.7986,3.7986,3.7986,0.0,0.0,0.0,0.0,0.0,0.0,0.0,0.0,0.0,0.0,0.0,0.0,0.0,0.0,0.0,0.0,0.0,0.0,0.0,0.0,0.0,0.0,0.0,0.0,0.0,0.0,0.0,0.0,0.0,1.6302,1.6501,1.6573,1.664,0.0,0.0,0.0,0.0,0.0,0.0,0.0,0.0,0.0,1.6713,0.0,0.0,0.0,0.0,0.0,0.0,0.0,0.0,0.0,2.0824,2.1181,2.1585,2.3208,2.4546,2.5738,2.6848,2.8416,2.9865,3.0351,3.0855,3.1102,3.0616,3.0103,2.9278,2.7682,2.6619,2.5582,0.0,0.0,0.0,2.7526,2.8911,0.0,3.2415,3.3337,0.0,3.3227,0.0,3.5413,3.4556,3.5402,0.0,0.0,3.5854,3.5526,3.5468,3.6746,3.711,3.6603,3.8291,3.9498,3.9978,4.0455,4.0815,4.1184,4.0775,4.0246,3.9597,3.92,3.8647,3.7986,3.7986,3.7986,3.7986,3.7986,3.7986,3.7986,3.7986,3.7986,3.7986,3.7986,3.7986,3.7986,0.0,0.0,0.0,0.0,0.0,0.0,0.0,0.0,0.0,0.0,0.0,0.0,0.0,0.0,0.0,0.0,0.0,0.0,0.0,0.0,0.0,0.0,0.0,0.0,0.0,0.0,0.0,0.0,0.0,0.0,0.0,1.4678,1.4739,1.4859,0.0,0.0,0.0,0.0,0.0,0.0,0.0,0.0,0.0,0.0,0.0,0.0,0.0,0.0,0.0,0.0,0.0,2.0108,2.1686,2.23,2.274,2.4244,0.0,2.7215,2.8067,2.9479,3.0772,3.0992,3.0956,3.0607,2.9626,2.8673,2.7462,2.5628,2.4464,0.0,2.2945,0.0,0.0,0.0,0.0,0.0,3.3377,3.4279,3.4711,0.0,3.5757,0.0,3.5616,3.6238,3.6697,0.0,3.6631,3.6568,3.6592,3.7363,3.7736,3.7473,3.9037,4.0118,4.0583,4.1057,4.1184,4.1184,4.0884,4.0343,3.9597,3.9296,3.8864,3.8334,0.0,3.8118,3.8334,3.8082,3.7986,3.7986,3.7986,3.7986,3.7986,3.7986,3.7986,3.7986,0.0,0.0,0.0,0.0,0.0,0.0,0.0,0.0,0.0,0.0,0.8091,0.0,0.0,0.0,0.0,0.0,0.0,0.0,0.0,0.0,0.0,0.0,0.0,0.0,0.0,0.0,0.0,0.0,0.0,0.0,0.0,0.0,0.0,0.0,0.0,0.0,0.0,0.0,0.0,0.0,0.0,0.0,0.0,0.0,0.0,0.0,0.0,0.0,0.0,0.0,2.0466,2.1163,2.3033,2.4015,2.4656,2.5582,2.7132,2.8654,2.9104,3.0277,3.1368,3.1313,3.0708,2.9773,2.8452,2.7041,2.5411,2.3671,0.0,2.1868,2.238,2.2553,2.4048,2.8331,0.0,3.0726,3.435,3.5081,3.5261,3.5449,3.6285,3.662,3.6195,3.6533,3.6784,3.6784,3.7156,3.7374,3.7374,3.7374,3.7747,3.8466,3.8942,3.9896,4.1184,4.1184,4.1184,4.1184,4.1184,4.0667,3.9705,3.9633,3.932,3.8791,0.0,0.0,3.8671,3.8178,3.7986,3.7986,3.7986,3.7986,3.7986,3.7986,3.7986,3.7986,0.0,0.0,0.0,0.0,0.0,0.0,0.0,0.0,0.0,0.0,0.8452,0.8236,0.0,0.0,0.0,0.0,0.0,0.0,0.0,0.0,0.0,0.0,0.0,0.0,0.0,0.0,0.0,0.0,0.0,0.0,0.0,0.0,0.0,0.0,0.0,0.0,0.0,0.0,0.0,0.0,0.0,0.0,0.0,0.0,0.0,0.0,0.0,0.0,0.0,0.0,2.1915,2.2712,2.373,2.5023,2.6454,2.7921,2.8838,2.9525,3.0277,3.0919,3.1295,3.0974,3.0277,2.9195,2.7325,2.6309,0.0,0.0,2.2159,2.1938,2.1511,2.2972,2.5167,2.8199,2.9832,3.1962,0.0,0.0,3.5657,0.0,0.0,0.0,0.0,0.0,0.0,0.0,0.0,0.0,3.7374,3.7374,3.7976,3.9072,3.9178,3.9896,4.1184,4.1184,4.1184,4.1184,4.1184,4.086,4.0246,3.9801,3.932,3.8791,0.0,0.0,3.8118,3.8022,3.7986,3.7986,3.7986,3.7986,3.7986,3.7986,3.7986,3.7986,0.0,0.0,0.0,0.0,0.0,0.0,0.0,0.8794,0.8969,0.9136,0.8972,0.8845,0.882,0.8794,0.8806,0.0,0.0,0.0,0.0,0.0,0.0,0.0,0.0,0.0,0.0,0.0,0.0,0.0,0.0,0.0,0.0,0.0,0.0,0.0,0.0,0.0,0.0,0.0,0.0,0.0,0.0,0.0,0.0,0.0,0.0,0.0,0.0,0.0,0.0,0.0,2.2071,2.3474,2.4702,2.5922,2.7169,2.8572,2.9415,3.003,3.0626,3.1075,3.1231,3.0635,2.9544,2.8164,2.6244,0.0,0.0,0.0,2.1389,2.1342,2.163,2.2773,0.0,2.7447,2.8764,3.0783,3.4597,0.0,0.0,0.0,0.0,0.0,0.0,0.0,0.0,0.0,0.0,0.0,3.7374,3.7374,3.7856,3.8704,3.9072,3.9767,4.0699,4.1057,4.1184,4.1184,4.1184,4.0763,3.997,3.9729,3.932,3.8791,3.8226,0.0,3.8395,3.8106,3.7986,3.7986,3.7986,3.7986,3.7986,3.7986,3.7986,3.7986,0.0,0.0,0.0,0.0,0.0,0.0,0.0,0.9024,0.9239,0.9581,0.962,0.9596,0.9517,0.9167,0.9089,0.0,0.0,0.0,0.0,0.0,0.0,0.0,0.0,0.0,0.0,0.0,0.0,0.0,0.0,0.0,0.0,0.0,0.0,0.0,0.0,0.0,0.0,0.0,0.0,0.0,0.0,0.0,0.0,0.0,0.0,0.0,0.0,0.0,0.0,0.0,2.163,2.329,2.4831,2.6169,2.738,2.8416,2.9481,3.051,3.0918,3.1444,3.1664,3.0756,2.9222,2.7431,2.5618,2.3977,0.0,0.0,2.1045,2.1063,2.2103,0.0,2.3727,0.0,2.7654,2.9314,3.2973,3.3759,0.0,0.0,0.0,0.0,0.0,0.0,0.0,0.0,0.0,0.0,3.7374,3.7374,3.7626,3.8227,3.8823,3.9414,3.9989,4.0467,4.0826,4.0942,4.0942,4.0566,3.9777,3.9657,3.932,3.8791,3.8226,0.0,0.0,3.8166,3.7986,3.7986,3.7986,3.7986,3.7986,3.7986,3.7986,3.7986,0.0,0.0,0.0,0.0,0.0,0.0,0.0,0.943,0.9962,1.037,1.0418,1.024,0.9914,0.9541,0.9173,0.0,0.0,0.0,0.0,0.0,0.0,0.0,0.0,0.0,0.0,0.0,0.0,0.0,0.0,0.0,0.0,0.0,0.0,0.0,0.0,0.0,0.0,0.0,0.0,0.0,0.0,0.0,0.0,0.0,0.0,0.0,0.0,0.0,0.0,0.0,0.0,2.1548,2.2832,2.5041,2.727,2.7737,0.0,0.0,3.1443,3.249,3.3132,3.1838,2.9898,2.7829,2.5998,0.0,2.2977,2.2157,2.1993,2.2124,2.2767,0.0,0.0,0.0,0.0,2.9085,3.2088,3.3639,3.4851,0.0,0.0,0.0,0.0,0.0,0.0,0.0,0.0,0.0,0.0,3.7374,3.7626,3.8227,3.8347,3.8704,3.9426,3.9414,3.9767,4.0351,4.0351,4.0287,4.0306,3.9826,3.932,3.8791,0.0,0.0,0.0,3.7998,3.7986,3.7986,3.7986,3.7986,3.7986,3.7986,3.7986,3.7986,0.0,0.0,0.0,0.0,0.0,0.0,0.885,0.9302,0.9739,1.0089,1.0335,1.0327,0.9962,0.9604,0.9314,0.9116,0.0,0.0,0.0,0.0,0.0,0.0,0.0,0.0,0.0,0.0,0.0,0.0,0.0,0.0,0.0,0.0,0.0,0.0,0.0,0.0,0.0,0.0,0.0,0.0,0.0,0.0,0.0,0.0,0.0,0.0,0.0,0.0,0.0,0.0,0.0,0.0,2.1267,2.2574,0.0,0.0,2.8135,2.9804,3.0623,3.2086,3.2905,3.1572,2.9577,2.7583,2.6279,0.0,2.2867,2.2681,2.2413,2.2379,2.2872,2.2702,0.0,0.0,0.0,0.0,2.8593,3.0155,3.1837,0.0,0.0,0.0,0.0,0.0,0.0,0.0,0.0,0.0,0.0,3.7374,3.7506,3.7747,3.8107,3.8466,3.8704,3.9414,3.9989,4.0223,4.0583,4.05,3.991,3.9705,3.9128,3.8298,0.0,0.0,0.0,3.7986,3.7986,3.7986,3.7986,3.7986,3.7986,3.7986,3.7986,3.7986,0.0,0.0,0.0,0.0,0.0,0.8492,0.885,0.9183,0.9525,0.9874,1.0145,1.0208,0.9954,0.9525,0.9334,0.9533,0.9826,0.0,0.0,0.0,0.0,0.0,0.0,0.0,0.0,0.0,0.0,0.0,0.0,0.0,0.0,0.0,0.0,0.0,0.0,0.0,0.0,0.0,0.0,0.0,0.0,0.0,0.0,0.0,0.0,0.0,0.0,0.0,0.0,0.0,0.0,0.0,0.0,0.0,0.0,0.0,2.6569,2.8525,2.9793,3.1526,3.2693,3.147,2.9466,2.7455,0.0,0.0,2.2594,2.2796,2.2433,2.2248,2.2717,2.2422,2.2368,0.0,0.0,2.4585,2.6376,2.8102,3.0046,0.0,0.0,0.0,0.0,0.0,0.0,0.0,0.0,0.0,0.0,3.7374,3.7374,3.7374,3.7867,3.7921,3.7777,3.8851,3.9359,3.9545,4.0056,4.0051,3.9369,3.9369,3.8864,3.7986,0.0,0.0,0.0,3.7986,3.7986,3.7986,3.7986,3.7986,3.7986,3.7986,3.7986,3.7986,0.0,0.0,0.0,0.0,0.0,0.0,0.885,0.9183,0.9525,0.9874,0.993,0.993,0.9922,0.9318,0.9183,0.9859,1.0056,0.0,0.0,0.0,0.0,0.0,0.0,0.0,0.0,0.0,0.0,1.3168,1.3318,0.0,0.0,0.0,0.0,0.0,0.0,0.0,0.0,0.0,0.0,0.0,0.0,0.0,0.0,0.0,0.0,0.0,0.0,0.0,0.0,0.0,0.0,0.0,0.0,2.0022,0.0,0.0,2.4967,2.7758,2.9164,3.1251,3.2863,3.1891,2.9742,2.7597,0.0,0.0,2.2324,2.2324,2.1931,2.1745,2.2237,2.1931,2.1756,2.2248,0.0,0.0,2.6431,2.8691,3.0559,0.0,0.0,0.0,0.0,0.0,0.0,0.0,0.0,0.0,0.0,3.7374,3.7374,3.7374,3.7385,3.7167,3.6708,3.7145,3.7606,3.7804,3.8321,3.8603,3.8827,3.8827,3.8515,0.0,0.0,0.0,0.0,3.7986,3.7986,3.7986,3.7986,3.7986,3.7986,3.7986,3.7986,3.7986,0.0,0.0,0.0,0.0,0.0,0.0,0.0,0.8834,0.9096,0.9207,0.9422,0.9565,0.9565,0.942,0.9598,1.0379,0.9971,0.0,0.0,0.0,0.0,0.0,0.0,0.0,0.0,0.0,1.319,1.3359,1.4263,1.4809,1.5071,0.0,0.0,0.0,0.0,0.0,0.0,0.0,0.0,0.0,0.0,0.0,0.0,0.0,0.0,0.0,0.0,0.0,0.0,0.0,0.0,0.0,0.0,0.0,0.0,2.1196,2.3464,2.5962,2.6982,2.8689,2.9969,2.9336,2.7861,2.6365,2.559,0.0,2.2313,2.2313,2.1931,2.1636,2.1789,2.1691,2.1964,2.3099,2.3962,0.0,0.0,0.0,0.0,0.0,0.0,0.0,0.0,0.0,0.0,0.0,0.0,0.0,0.0,3.7374,3.7232,3.6915,3.721,3.7156,3.6697,3.7624,3.814,3.8309,3.8816,3.9042,3.8815,3.8815,0.0,0.0,0.0,0.0,0.0,3.7986,3.7986,3.7986,3.7986,3.7986,3.7986,3.7986,3.7986,3.7986,0.0,0.0,0.0,0.0,0.0,0.0,0.0,0.8716,0.8998,0.9132,0.9332,0.9525,0.9676,0.9606,0.9856,1.0644,1.0211,0.0,0.0,0.0,0.0,0.0,0.0,0.0,0.0,1.3027,1.354,1.3918,1.4697,1.5259,1.5716,1.5867,1.6024,0.0,0.0,0.0,0.0,0.0,0.0,0.0,0.0,0.0,1.7967,0.0,0.0,0.0,0.0,0.0,0.0,0.0,0.0,0.0,0.0,0.0,0.0,0.0,2.2179,2.394,2.4977,2.6443,2.7566,2.7075,2.6157,2.5142,2.429,0.0,2.1767,2.1767,2.1385,2.1101,2.1286,2.1166,2.1396,2.2477,2.322,0.0,0.0,0.0,0.0,0.0,0.0,0.0,0.0,0.0,0.0,0.0,0.0,0.0,0.0,0.0,3.6992,3.6162,3.6773,3.6894,3.6424,3.7288,3.7567,3.7338,3.8326,3.8547,3.8179,3.8395,0.0,0.0,0.0,0.0,0.0,3.7986,3.7986,3.7986,3.7986,3.7986,3.7986,3.7986,3.7986,3.7986,0.0,0.0,0.0,0.0,0.0,0.0,0.0,0.8818,0.9123,0.9488,0.9561,0.9725,1.0118,0.9857,0.994,1.0658,1.0801,0.0,0.0,0.0,0.0,0.0,0.0,0.0,0.0,1.3045,1.3789,1.4748,1.4756,1.5334,1.6532,1.6187,1.5989,1.6046,1.6457,0.0,0.0,0.0,0.0,0.0,0.0,1.7955,0.0,0.0,0.0,0.0,0.0,0.0,0.0,0.0,0.0,0.0,0.0,0.0,0.0,0.0,0.0,0.0,0.0,2.4508,2.548,2.5033,2.4596,2.3929,2.2575,0.0,0.0,2.0928,2.0478,2.0293,2.0773,2.0467,2.0347,2.0959,2.1832,0.0,0.0,0.0,0.0,0.0,0.0,0.0,0.0,0.0,0.0,0.0,0.0,0.0,0.0,0.0,3.6653,3.5299,3.6129,3.6369,3.6038,3.6511,3.6375,3.5654,3.7113,3.7625,3.7131,3.7773,0.0,0.0,0.0,0.0,0.0,3.7986,3.7986,3.7986,3.7986,3.7986,3.7986,3.7986,3.7986,3.7986,0.0,0.0,0.0,0.0,0.0,0.0,0.0,0.0,0.0,0.0,0.9397,0.9655,0.9716,0.9969,1.0329,0.0,0.0,0.0,0.0,0.0,0.0,0.0,0.0,0.0,0.0,1.4302,1.4612,1.451,1.5547,1.602,1.6029,1.6643,1.6987,1.6987,1.7099,1.7155,0.0,0.0,0.0,0.0,1.7398,1.7453,0.0,0.0,0.0,0.0,1.8206,1.8469,0.0,0.0,0.0,0.0,0.0,0.0,0.0,0.0,2.0107,2.0488,2.0836,0.0,2.2575,2.2455,2.2346,2.2182,0.0,2.1297,0.0,0.0,0.0,2.0293,2.0773,2.0467,2.0717,2.2739,2.3252,2.4071,2.6016,0.0,0.0,0.0,0.0,0.0,0.0,0.0,0.0,0.0,0.0,0.0,0.0,0.0,3.614,3.5801,3.5638,3.5736,3.607,3.6563,3.7008,3.7281,3.7739,3.7843,3.7773,3.7986,0.0,0.0,0.0,0.0,3.7986,3.7986,3.7986,3.7986,3.7986,3.7986,3.7986,3.7986,3.7986,3.7986,0.0,0.0,0.0,0.0,0.0,0.0,0.0,0.0,0.0,0.0,0.9924,1.0186,1.0186,1.0477,0.0,0.0,0.0,0.0,0.0,0.0,0.0,0.0,0.0,0.0,1.4512,1.4902,1.4974,1.4712,1.5924,1.6393,1.6164,1.6918,1.7278,1.7278,1.7278,1.7278,0.0,0.0,0.0,0.0,1.7278,0.0,0.0,0.0,0.0,0.0,1.7759,1.7977,0.0,1.837,1.8556,1.8763,0.0,0.0,0.0,0.0,1.943,1.9748,1.9748,2.0511,2.1199,2.0981,2.109,2.1199,2.0981,0.0,0.0,0.0,0.0,2.0162,2.0478,2.05,2.097,2.2499,2.3296,0.0,0.0,0.0,0.0,0.0,0.0,0.0,0.0,0.0,0.0,0.0,0.0,0.0,0.0,0.0,3.5758,3.5321,3.5244,3.5325,3.5666,3.6275,3.661,3.6766,3.7543,3.7833,3.756,3.788,0.0,0.0,0.0,0.0,3.7986,3.7986,3.7986,3.7986,3.7986,3.7986,3.7986,3.7986,3.7986,3.7986,0.0,0.0,0.0,0.0,0.0,0.0,0.0,0.0,0.0,0.0,0.0,0.0,0.0,0.0,0.0,0.0,0.0,0.0,0.0,0.0,0.0,0.0,0.0,1.4858,1.5177,1.5222,1.5235,1.5214,1.6175,1.659,1.6525,1.7114,1.7355,1.7278,1.7278,1.7278,0.0,0.0,0.0,0.0,1.7278,0.0,0.0,0.0,0.0,0.0,0.0,0.0,0.0,1.7948,1.7991,1.8112,1.8489,0.0,0.0,0.0,0.0,0.0,1.9397,2.0128,2.072,2.0249,2.0456,2.0642,2.0172,0.0,0.0,0.0,0.0,0.0,0.0,2.0697,0.0,0.0,0.0,0.0,0.0,0.0,0.0,0.0,0.0,0.0,0.0,0.0,0.0,0.0,0.0,0.0,0.0,0.0,0.0,3.4556,3.4906,3.5102,3.5102,3.5923,3.6048,3.5697,3.7227,3.7725,3.7121,3.7654,3.7817,0.0,0.0,0.0,3.7757,3.7914,3.7938,3.7878,3.795,3.7986,3.7986,3.7986,3.7986,3.7986,0.0,0.0,0.0,0.0,0.0,0.0,0.0,0.0,0.0,0.0,0.0,0.0,0.0,0.0,0.0,0.0,0.0,0.0,0.0,0.0,0.0,0.0,1.4952,1.5066,1.5527,1.5606,1.5672,1.5665,1.6688,1.694,1.6535,1.7464,1.7671,1.7278,1.7278,1.7278,1.7278,0.0,0.0,1.7278,1.7278,0.0,0.0,0.0,0.0,0.0,0.0,0.0,0.0,1.7768,1.8036,1.8304,1.8193,0.0,0.0,0.0,0.0,0.0,1.9361,2.0015,2.0542,2.0161,2.014,2.0172,2.0096,0.0,0.0,0.0,0.0,0.0,0.0,0.0,0.0,0.0,0.0,0.0,0.0,0.0,0.0,0.0,0.0,0.0,0.0,0.0,0.0,0.0,0.0,0.0,0.0,0.0,0.0,3.4524,3.4589,3.4633,3.4633,3.5764,3.6483,3.6808,3.7655,3.7745,3.7208,3.7312,3.7072,0.0,0.0,3.706,3.6723,3.7613,3.7721,3.736,3.7805,3.7986,3.7986,3.7986,3.7986,3.7986,0.0,0.0,0.0,0.0,0.0,0.0,0.0,0.0,0.0,0.0,0.0,0.0,0.0,0.0,0.0,0.0,0.0,0.0,0.0,0.0,0.0,1.5721,1.5752,1.5844,1.6056,1.6155,1.6198,1.6208,1.7191,1.742,1.694,1.7398,1.7512,1.7254,1.7566,1.775,1.7725,1.8066,1.8018,1.7733,0.0,0.0,0.0,0.0,0.0,0.0,0.0,0.0,0.0,0.0,1.7957,1.8003,1.7767,0.0,0.0,0.0,0.0,0.0,1.9271,1.9885,2.0568,2.0969,2.0986,2.086,2.0587,0.0,0.0,0.0,0.0,0.0,0.0,0.0,0.0,0.0,0.0,0.0,0.0,0.0,0.0,0.0,0.0,0.0,0.0,0.0,0.0,0.0,0.0,0.0,0.0,0.0,0.0,0.0,3.413,3.3999,3.3737,3.4605,3.5482,3.6293,3.6814,3.6963,3.6771,3.6771,3.6627,3.6423,0.0,3.6627,3.6447,3.6928,3.6988,3.6795,3.7036,3.7132,3.7168,3.7457,3.7733,3.7986,0.0,0.0,0.0,0.0,0.0,0.0,0.0,0.0,0.0,0.0,0.0,0.0,0.0,0.0,0.0,0.0,0.0,0.0,0.0,0.0,1.4475,1.5793,1.6076,1.6409,1.6848,1.6715,1.6721,1.6863,1.7628,1.786,1.7656,1.7368,1.7319,1.7422,1.7908,1.8125,1.8142,1.8562,1.859,1.8309,0.0,0.0,0.0,0.0,0.0,0.0,0.0,0.0,0.0,0.0,0.0,0.0,0.0,0.0,0.0,1.7562,1.8104,1.8884,1.9158,1.987,2.0657,2.1342,2.1475,2.1402,2.1479,0.0,0.0,0.0,0.0,0.0,0.0,0.0,0.0,0.0,0.0,0.0,0.0,0.0,0.0,0.0,0.0,0.0,0.0,0.0,0.0,0.0,0.0,0.0,0.0,0.0,0.0,0.0,3.3628,3.3442,3.3071,3.3604,3.4218,3.5135,3.5864,3.6117,3.6016,3.6117,3.6146,3.6038,3.617,3.6146,3.605,3.6302,3.6338,3.623,3.6362,3.6411,3.6471,3.7,3.7445,3.7817,0.0,0.0,0.0,0.0,0.0,0.0,0.0,0.0,0.0,0.0,0.0,0.0,0.0,0.0,0.0,0.0,0.0,0.0,0.0,0.0,1.4082,1.4681,1.5253,1.6303,1.7951,1.7433,1.7364,1.7901,1.7966,1.8256,1.8669,1.769,1.7485,1.8068,1.8103,1.8091,1.8118,1.8154,1.8466,1.8845,1.7705,0.0,0.0,0.0,0.0,0.0,0.0,0.0,0.0,0.0,0.0,0.0,0.0,0.0,1.8236,1.8874,1.8815,1.8724,1.9297,2.0123,2.0729,2.0554,2.0579,0.0,2.295,2.2833,0.0,0.0,0.0,0.0,0.0,0.0,0.0,0.0,0.0,0.0,0.0,0.0,0.0,0.0,0.0,0.0,0.0,0.0,0.0,0.0,0.0,0.0,0.0,0.0,0.0,0.0,0.0,3.3104,3.3071,3.3167,3.3509,3.4083,3.5121,3.5368,3.4964,3.5465,3.54,3.4968,3.5461,3.54,3.5016,3.6002,3.611,3.5725,3.6218,3.6411,3.6471,3.7,3.7216,3.7324,0.0,0.0,0.0,0.0,0.0,0.0,0.0,0.0,0.0,0.0,0.0,0.0,0.0,0.0,0.0,0.0,0.0,0.0,0.0,0.0,1.4088,1.4698,1.4935,1.5604,1.6773,1.7088,1.7443,1.801,1.7704,1.7812,1.8269,1.7638,1.7596,1.8105,1.8819,1.9145,1.9168,1.956,1.9623,1.9475,1.8995,1.8507,0.0,0.0,0.0,0.0,0.0,0.0,0.0,0.0,1.7729,1.7606,1.7897,1.8529,1.8963,1.8084,1.8315,1.8875,1.8904,1.9788,2.0819,2.1351,0.0,0.0,0.0,0.0,0.0,0.0,0.0,0.0,0.0,0.0,0.0,0.0,0.0,0.0,0.0,0.0,0.0,0.0,0.0,0.0,0.0,0.0,0.0,0.0,0.0,0.0,0.0,0.0,0.0,0.0,0.0,3.2492,3.2175,3.2164,3.2279,3.2487,3.3616,3.422,3.4334,3.4532,3.4722,3.4835,3.504,3.4823,3.4366,3.4775,3.4631,3.4222,3.4727,3.534,3.5942,3.6134,3.6423,3.6771,0.0,0.0,0.0,0.0,0.0,0.0,0.0,0.0,0.0,0.0,0.0,0.0,0.0,0.0,0.0,0.0,0.0,0.0,1.2831,1.3428,1.3998,1.4487,1.4687,1.5092,1.5637,1.6361,1.7111,1.7781,1.7811,1.7867,1.8065,1.7925,1.8127,1.8659,1.947,1.9808,1.9812,2.007,2.0174,2.0093,1.9573,1.9115,0.0,0.0,0.0,0.0,0.0,0.0,0.0,0.0,1.7434,1.7355,1.7654,1.8498,1.9108,1.7958,1.8325,1.9123,1.9282,2.0031,2.1025,0.0,0.0,0.0,0.0,0.0,0.0,0.0,0.0,0.0,0.0,0.0,0.0,0.0,0.0,0.0,0.0,0.0,0.0,0.0,0.0,0.0,0.0,0.0,0.0,0.0,0.0,0.0,0.0,0.0,0.0,0.0,0.0,3.2107,3.2038,3.2038,3.2038,3.2137,3.2898,3.3377,3.3487,3.3531,3.3849,3.4342,3.4342,3.4138,3.3801,3.3801,3.3693,3.3561,3.3897,3.4583,3.5388,3.5557,3.5845,3.623,0.0,0.0,0.0,0.0,0.0,0.0,0.0,0.0,0.9571,1.0674,1.0983,0.0,0.0,0.0,0.0,0.0,0.0,0.0,1.2873,1.3448,1.3818,1.3876,1.4482,1.4818,1.4869,1.551,1.6295,1.7312,1.8261,1.8573,1.8196,1.8685,1.9202,1.9799,1.9799,1.9812,1.9773,1.9291,1.9819,2.0733,1.9085,1.9037,1.98,0.0,0.0,0.0,0.0,0.0,0.0,0.0,1.7545,1.7264,1.8105,1.8423,1.8469,1.8898,1.9149,1.9526,2.0539,2.0974,2.1448,0.0,0.0,0.0,0.0,0.0,0.0,0.0,0.0,0.0,0.0,0.0,0.0,0.0,0.0,0.0,0.0,0.0,0.0,0.0,0.0,0.0,0.0,0.0,0.0,0.0,0.0,0.0,0.0,0.0,0.0,0.0,0.0,0.0,3.299,3.299,3.3083,3.3373,3.3361,3.3089,3.2552,3.2534,3.2782,3.3284,3.3284,3.3284,3.3284,3.3272,3.3573,3.403,3.403,3.4354,3.4883,3.5412,3.5605,3.5689,0.0,0.0,0.0,0.0,0.0,0.0,0.0,0.0,0.9895,1.0879,1.0702,0.0,0.0,0.0,0.0,0.0,0.0,0.0,1.2255,1.3226,1.3672,1.3433,1.3902,1.4089,1.3851,1.5098,1.6086,1.6751,1.6729,1.6961,1.7523,1.8097,1.8678,1.9211,2.0035,2.0463,2.0548,1.9991,1.9985,2.0332,1.941,1.8967,1.8834,0.0,0.0,0.0,0.0,0.0,0.0,0.0,0.0,0.0,1.7422,1.8185,1.8856,1.8202,1.8652,1.9387,1.97,2.0511,0.0,2.3107,0.0,0.0,0.0,0.0,0.0,0.0,0.0,0.0,0.0,0.0,0.0,0.0,0.0,0.0,0.0,0.0,0.0,0.0,0.0,0.0,0.0,0.0,0.0,0.0,0.0,0.0,0.0,0.0,0.0,0.0,0.0,0.0,3.299,3.299,3.3083,3.3361,3.3053,3.3253,3.3881,3.3906,3.421,3.4688,3.4688,3.4217,3.3396,3.3015,3.3396,3.4311,3.4219,3.4772,3.5608,3.5199,3.5064,3.5136,0.0,0.0,0.0,0.0,0.0,0.0,0.0,0.0,1.0506,1.0701,1.0664,1.0534,0.0,0.0,0.0,0.0,0.0,0.0,0.0,1.3348,1.3708,1.3446,1.3722,1.4026,1.4293,1.5332,1.6169,1.6749,1.674,1.6927,1.728,1.8363,1.8982,1.9303,2.0293,2.0693,2.0492,1.9993,1.9967,2.0207,1.9423,1.9131,1.9105,0.0,0.0,0.0,0.0,0.0,0.0,0.0,0.0,0.0,1.7393,1.7989,1.8546,1.8002,1.8611,1.9517,1.9948,2.1002,0.0,2.4213,2.5834,2.7591,0.0,0.0,0.0,0.0,0.0,0.0,0.0,0.0,0.0,0.0,0.0,0.0,0.0,0.0,0.0,0.0,0.0,0.0,0.0,0.0,0.0,0.0,0.0,0.0,0.0,0.0,0.0,0.0,0.0,0.0,3.3541,3.3541,3.3719,3.3909,3.3721,3.3994,3.4873,3.4161,3.4174,3.4638,3.4638,3.4272,3.3508,3.3268,3.3658,3.4451,3.4361,3.4901,3.5705,3.5462,3.5347,3.5396,0.0,0.0,0.8386,0.8549,0.0,0.0,0.0,0.0,1.1222,1.0483,1.0821,1.0939,0.0,0.0,0.0,0.0,0.0,0.0,0.0,0.0,1.3888,1.3888,1.3967,1.4513,1.5665,1.5983,1.6494,1.7149,1.7715,1.7823,1.7498,1.9011,1.9747,1.9826,2.0522,2.0505,1.9998,1.9579,1.9723,2.0172,1.9114,1.9304,2.0032,1.8768,0.0,0.0,0.0,0.0,0.0,0.0,0.0,0.0,1.7747,1.7842,1.7909,1.8176,1.8906,1.9806,2.0836,0.0,0.0,2.5716,2.7505,0.0,0.0,0.0,0.0,0.0,0.0,0.0,0.0,0.0,0.0,0.0,0.0,0.0,0.0,0.0,0.0,0.0,0.0,0.0,0.0,0.0,0.0,0.0,0.0,0.0,0.0,0.0,0.0,0.0,0.0,0.0,3.4397,3.4397,3.4577,0.0,3.5003,3.5236,3.5399,3.3927,3.3518,3.3882,3.3797,3.3797,3.3797,3.3797,3.4131,3.4645,3.4558,3.4891,3.5455,3.5968,3.616,3.616,0.0,0.0,0.894,0.9677,0.0,0.0,0.0,0.0,0.0,0.0,0.0,0.0,0.0,0.0,0.0,0.0,0.0,0.0,0.0,0.0,1.4588,1.4588,1.4603,1.5174,1.6377,1.6476,1.6866,1.7652,1.7424,1.7523,1.7969,1.8734,1.9389,1.9943,2.0123,2.0218,2.0234,1.9252,1.8906,1.9089,1.837,1.8221,1.8397,1.8085,1.7812,0.0,0.0,0.0,0.0,0.0,0.0,0.0,1.757,1.7529,1.7649,1.8419,1.8733,1.924,2.1472,2.2801,0.0,0.0,2.9175,3.136,3.2791,0.0,0.0,0.0,0.0,0.0,0.0,0.0,0.0,0.0,0.0,0.0,0.0,0.0,0.0,0.0,0.0,0.0,0.0,0.0,0.0,0.0,0.0,0.0,0.0,0.0,0.0,3.4397,0.0,3.4217,3.4397,3.4577,3.4839,0.0,3.5236,3.548,3.5629,3.5291,3.5209,3.5209,3.4716,3.4468,3.4468,3.4468,3.4808,3.5319,3.5319,3.5673,3.6096,3.5697,3.5481,3.5481,0.0,0.0,0.0,0.0,0.0,0.0,0.0,0.0,0.0,0.0,0.0,0.0,0.0,0.0,0.0,0.0,0.0,0.0,0.0,0.0,1.4808,1.4808,1.4949,1.5484,1.6427,1.6896,1.7411,1.7998,1.785,1.7732,1.7682,1.8244,1.8721,1.9146,1.9496,1.9767,1.9898,1.9071,1.8897,1.913,1.8235,1.8086,1.8317,1.7991,1.7788,1.7692,1.7974,0.0,0.0,0.0,0.0,0.0,0.0,0.0,1.7732,1.8334,1.8447,1.8817,2.0847,0.0,0.0,2.7959,0.0,3.2214,3.2779,0.0,0.0,0.0,0.0,0.0,0.0,0.0,0.0,0.0,0.0,0.0,0.0,0.0,0.0,0.0,0.0,0.0,0.0,0.0,0.0,0.0,0.0,0.0,0.0,3.4567,3.4397,3.4397,3.4397,3.4397,3.4397,3.4673,3.4839,3.4921,3.5236,3.548,3.571,3.571,3.571,3.571,3.5304,3.5223,3.5223,3.5223,3.5397,3.5664,3.5595,3.5768,3.6075,3.593,3.5937,3.5937,0.0,0.0,0.0,0.0,0.0,0.0,0.0,0.0,0.0,0.0,0.0,0.0,0.0,0.0,0.0,0.0,0.0,0.0,0.0,0.0,0.0,1.498,1.5239,1.5754,1.653,1.7285,1.7922,1.8381,1.855,1.8187,0.0,1.7899,1.8214,1.8438,1.8968,1.9244,1.9324,1.8944,1.9027,1.9423,1.8399,1.829,1.8672,1.8113,1.7882,1.795,1.848,1.8522,1.8442,1.8604,0.0,0.0,0.0,0.0,1.7868,1.8219,1.8205,1.8436,1.9997,0.0,2.4951,2.8952,3.1096,0.0,3.2454,0.0,0.0,0.0,0.0,0.0,0.0,0.0,0.0,0.0,0.0,0.0,0.0,0.0,0.0,0.0,0.0,0.0,0.0,0.0,0.0,0.0,0.0,0.0,3.4397,3.4397,3.4397,3.4397,3.4397,3.4397,3.4397,3.4673,3.4799,3.4693,3.4982,3.5251,3.5411,3.552,3.5615,3.571,3.571,3.571,3.571,3.571,3.571,3.571,3.571,3.571,3.5778,3.6266,3.6442,3.6442,0.0,0.0,0.0,0.0,0.0,0.0,0.0,0.0,0.0,0.0,1.2898,1.2637,0.0,1.3514,1.387,1.4367,1.4848,1.5301,1.5697,0.0,0.0,1.5683,1.5712,1.6278,1.7468,1.7652,1.8144,1.9075,1.9089,0.0,0.0,0.0,0.0,1.9289,0.0,1.8758,1.8888,1.8628,1.8604,1.8635,1.8492,1.8478,1.8509,1.8057,1.7882,1.7896,1.7977,1.799,1.7963,1.8004,1.7977,0.0,0.0,0.0,1.7636,1.8461,1.8048,1.7802,2.0153,0.0,2.6347,0.0,3.0254,3.1336,0.0,0.0,0.0,0.0,0.0,0.0,0.0,0.0,0.0,0.0,0.0,0.0,0.0,0.0,0.0,0.0,0.0,0.0,0.0,0.0,0.0,0.0,0.0,0.0,3.4397,3.4397,3.4397,3.4397,3.4397,3.4397,3.4397,3.4673,3.4587,3.4246,3.4122,3.4113,3.4126,3.4719,3.5235,3.571,3.571,3.571,3.571,3.571,3.571,3.571,3.571,3.571,3.5723,3.5805,3.5832,3.5832,0.0,0.0,0.0,0.0,0.0,0.0,0.0,0.0,0.0,0.0,0.0,1.3234,1.4593,1.4537,1.4612,1.515,1.5418,1.5639,1.5799,1.5983,1.5983,1.5799,1.594,1.6365,1.7115,1.7503,1.8145,1.9016,0.0,0.0,0.0,1.8796,1.8654,0.0,0.0,0.0,0.0,1.8583,1.8908,1.95,1.9031,1.9134,1.9486,1.8597,0.0,1.8412,1.8412,1.8317,1.827,1.8385,1.8344,1.8214,1.7963,0.0,0.0,0.0,1.7818,1.7881,2.0641,2.2958,2.5322,0.0,2.9359,3.0266,3.1348,0.0,0.0,0.0,0.0,0.0,0.0,0.0,0.0,0.0,0.0,0.0,0.0,0.0,0.0,0.0,0.0,0.0,0.0,0.0,0.0,0.0,0.0,3.435,3.4117,3.4104,3.4041,3.3793,3.3686,3.3605,3.3605,3.3847,3.3967,3.4028,3.3914,3.3869,3.3883,3.414,3.4651,3.5235,3.5574,3.571,3.571,3.571,3.571,3.571,3.571,3.571,3.571,3.571,3.571,3.571,0.0,0.0,0.0,0.0,0.0,0.0,0.0,0.0,0.0,0.0,0.0,1.4083,1.5621,0.0,0.0,0.0,1.5885,1.5955,1.6024,1.6219,1.6246,1.6039,1.6317,1.6659,1.7075,1.7704,1.8365,1.9144,0.0,0.0,1.9493,1.9397,1.8871,0.0,1.799,1.8262,0.0,0.0,0.0,0.0,1.9691,1.9914,2.0396,0.0,0.0,0.0,1.9155,1.9002,1.8967,1.881,1.8615,1.8436,1.8135,1.8069,0.0,0.0,0.0,0.0,0.0,0.0,2.3728,2.6692,2.8133,2.9199,0.0,0.0,0.0,0.0,0.0,0.0,0.0,0.0,0.0,0.0,0.0,0.0,0.0,0.0,0.0,0.0,0.0,0.0,0.0,0.0,0.0,0.0,0.0,3.4041,3.378,3.3767,3.3635,3.3276,3.3171,3.3079,3.3079,3.3154,3.3319,3.3549,3.349,3.3498,3.3498,3.3661,3.3959,3.4421,3.5167,3.5493,3.5506,3.5655,3.571,3.571,3.571,3.571,3.571,3.571,3.571,3.571,0.0,0.0,0.0,0.0,0.0,0.0,0.0,0.0,0.0,0.0,0.0,1.5345,1.5755,1.5769,1.5769,1.5799,1.608,1.6394,1.6644,1.6474,1.649,1.6644,1.7046,0.0,1.8115,1.8596,1.9125,0.0,0.0,0.0,1.9479,1.9611,1.9465,1.9017,1.8823,1.8659,1.8556,0.0,0.0,0.0,0.0,0.0,0.0,0.0,0.0,0.0,0.0,0.0,0.0,1.8936,1.8503,1.85,1.8475,1.8475,1.8397,0.0,0.0,0.0,0.0,2.0589,0.0,2.4124,2.617,0.0,0.0,0.0,0.0,0.0,0.0,0.0,0.0,0.0,0.0,0.0,0.0,0.0,0.0,0.0,0.0,0.0,0.0,0.0,0.0,0.0,0.0,0.0,0.0,3.3342,3.3316,3.3316,3.3302,3.3263,3.3263,3.3263,3.3263,3.2907,3.2764,3.2764,3.2448,3.2277,3.2291,3.2847,3.3132,3.3213,3.438,3.4882,3.4923,3.5479,3.571,3.571,3.571,3.571,3.571,3.571,3.571,3.571,0.0,0.0,0.0,0.0,0.0,0.0,0.0,0.0,0.0,0.0,0.0,0.0,0.0,1.6011,1.6108,1.6108,1.6421,1.6659,1.6763,1.6901,1.7136,1.7455,1.7563,1.8055,1.9014,1.8951,0.0,0.0,0.0,1.9955,1.9812,2.0109,2.0005,1.9472,1.9142,1.8959,1.8898,1.931,0.0,0.0,0.0,0.0,0.0,0.0,0.0,0.0,0.0,0.0,0.0,1.9628,1.8906,1.8461,1.8214,1.8095,0.0,0.0,0.0,0.0,0.0,0.0,0.0,2.3103,2.4823,2.6127,2.654,0.0,0.0,0.0,0.0,0.0,0.0,0.0,0.0,0.0,0.0,0.0,0.0,0.0,0.0,0.0,0.0,0.0,0.0,0.0,0.0,0.0,0.0,0.0,3.3523,3.3122,3.2823,3.2597,3.2447,3.2198,3.1823,3.1267,3.1114,3.1199,3.1067,3.1246,3.1612,3.1829,3.2141,3.2562,3.3756,3.418,3.4208,3.4502,3.4801,3.514,3.514,3.5384,3.571,3.571,3.571,3.571,0.0,0.0,0.0,0.0,0.0,1.4287,1.4607,1.4852,1.5102,1.5448,0.0,0.0,0.0,0.0,1.6301,1.6485,1.6712,1.6917,1.7076,1.7248,1.7486,1.7836,1.8168,1.8696,1.9447,1.9446,0.0,0.0,0.0,0.0,0.0,2.0358,2.0291,1.9904,1.9617,1.9435,0.0,0.0,0.0,2.0955,0.0,0.0,2.3794,0.0,0.0,0.0,0.0,0.0,0.0,0.0,2.0271,1.9572,1.91,0.0,0.0,0.0,0.0,0.0,2.0039,0.0,0.0,0.0,0.0,2.44,2.5241,0.0,0.0,0.0,0.0,0.0,0.0,0.0,0.0,0.0,0.0,0.0,0.0,0.0,0.0,0.0,0.0,0.0,0.0,0.0,0.0,0.0,0.0,0.0,3.257,3.2152,3.1834,3.1599,3.1442,3.1182,3.0791,3.0387,3.0254,3.0405,3.0405,3.0622,3.1002,3.1002,3.1327,3.1938,3.3211,3.3929,3.4314,3.4519,3.4989,3.5551,3.5551,3.58,3.6189,3.6094,3.6097,3.6097,0.0,0.0,1.2954,1.2954,1.3516,1.4041,1.4397,1.4921,1.5448,1.5856,0.0,0.0,0.0,0.0,0.0,1.6908,1.6975,1.7199,1.7731,1.7592,1.7569,1.7788,1.8849,1.9449,1.9465,0.0,0.0,0.0,0.0,0.0,0.0,0.0,2.0304,2.0304,2.0304,2.008,1.9726,0.0,2.0334,2.1383,0.0,2.3132,2.441,0.0,0.0,0.0,2.5425,2.4862,0.0,2.3414,2.254,2.1923,0.0,0.0,0.0,0.0,0.0,0.0,0.0,0.0,0.0,0.0,0.0,0.0,2.5375,0.0,0.0,0.0,0.0,0.0,0.0,0.0,0.0,0.0,0.0,0.0,0.0,0.0,0.0,0.0,0.0,0.0,0.0,0.0,0.0,0.0,0.0,3.1042,3.0473,3.0418,3.0405,3.0405,3.0391,3.0378,3.0378,3.0364,3.0351,3.0351,3.0351,3.0364,3.0378,3.0378,3.0703,3.1371,3.2779,3.3987,3.5127,3.5686,3.6315,3.7041,3.7041,3.7055,3.7083,3.7005,3.6936,3.6858,0.0,1.3439,1.3995,1.4229,1.463,1.5023,1.5443,1.5621,1.5784,0.0,0.0,0.0,0.0,0.0,1.8532,1.8343,1.8835,1.9219,1.9352,1.9302,1.958,2.0213,2.03,2.0598,2.1139,2.0783,0.0,0.0,0.0,0.0,0.0,0.0,0.0,0.0,2.0304,2.0235,2.0115,2.0115,0.0,0.0,2.2548,2.3825,0.0,0.0,0.0,0.0,0.0,2.6419,2.5833,0.0,2.3598,2.2412,0.0,0.0,0.0,0.0,0.0,0.0,2.0265,0.0,0.0,0.0,0.0,0.0,2.222,2.4347,2.6332,0.0,0.0,0.0,0.0,0.0,0.0,0.0,0.0,0.0,0.0,0.0,0.0,0.0,0.0,0.0,0.0,0.0,0.0,0.0,3.1775,3.1219,3.1056,3.0649,3.0405,3.0405,2.9971,2.974,2.974,2.9306,2.9102,2.9102,2.9102,2.9319,2.974,2.974,3.0066,3.0759,3.1986,3.3348,3.4603,3.5237,3.5841,3.646,3.646,3.6751,3.7157,3.7569,3.7738,3.7738,1.322,1.3862,1.4576,1.4755,1.5208,1.5639,1.5871,1.59,1.6047,0.0,0.0,0.0,0.0,0.0,0.0,1.9211,1.9673,1.9993,2.0002,2.0002,2.0204,2.0686,2.083,2.1089,2.1535,2.1207,0.0,0.0,0.0,0.0,0.0,0.0,0.0,0.0,2.0646,2.0712,0.0,0.0,0.0,0.0,2.3134,0.0,0.0,2.7088,2.7811,0.0,0.0,0.0,2.6758,2.6183,2.515,0.0,0.0,0.0,0.0,0.0,0.0,0.0,0.0,0.0,0.0,0.0,0.0,0.0,2.1709,2.3537,2.5156,0.0,0.0,0.0,0.0,0.0,0.0,0.0,0.0,0.0,0.0,0.0,0.0,0.0,0.0,0.0,0.0,0.0,0.0,3.2359,3.168,3.107,3.0568,2.9971,2.9659,2.9659,2.9306,2.9102,2.9102,2.8763,2.8722,2.8953,2.8709,2.8912,2.9469,2.9224,2.9442,3.012,3.1668,3.293,3.4097,3.5289,3.6305,3.7109,3.6841,3.7302,3.808,3.8163,3.8326,3.8546,0.0,1.3991,1.4863,1.489,1.5448,1.5928,1.597,1.597,1.627,0.0,0.0,0.0,0.0,0.0,0.0,0.0,2.0058,2.0255,2.0255,2.0255,2.0255,2.0255,2.094,2.1312,2.1312,2.152,0.0,0.0,0.0,0.0,0.0,0.0,0.0,0.0,2.1182,2.1308,2.1308,0.0,0.0,2.3381,2.3678,2.5269,0.0,0.0,2.7811,0.0,2.8411,2.8073,2.7565,2.7515,2.6766,0.0,0.0,0.0,0.0,0.0,2.2867,0.0,0.0,0.0,0.0,0.0,0.0,0.0,2.2855,2.3593,2.4108,2.4614,0.0,0.0,0.0,0.0,0.0,0.0,0.0,0.0,0.0,0.0,0.0,0.0,0.0,0.0,0.0,3.2847,3.2331,3.1273,3.107,3.0513,2.9442,2.8872,2.8587,2.8587,2.8587,2.8587,2.8587,2.8587,2.8858,2.9374,2.8845,2.8872,2.936,2.8831,2.8937,2.9586,3.1454,3.2698,3.3454,3.5366,3.6984,3.8231,3.7707,3.8231,3.9226,3.856,3.8717,3.92,1.4074,1.4556,1.5227,1.549,1.5718,1.5998,1.6313,1.6367,1.6671,1.7483,1.9074,0.0,0.0,0.0,0.0,0.0,2.1488,2.1843,2.1843,2.1843,2.1843,2.1843,2.2006,2.209,2.209,2.1878,2.1781,0.0,0.0,0.0,0.0,0.0,0.0,0.0,2.1276,2.1308,2.134,0.0,0.0,2.3716,2.3777,0.0,2.7396,2.7396,2.7811,2.8411,2.8411,2.8299,2.8137,0.0,2.7031,2.6366,0.0,0.0,0.0,0.0,0.0,0.0,0.0,0.0,0.0,0.0,0.0,0.0,2.3196,2.323,2.3234,0.0,0.0,0.0,0.0,0.0,0.0,0.0,0.0,0.0,0.0,0.0,0.0,0.0,0.0,0.0,0.0,3.149,3.0839,3.0595,2.9672,2.9021,2.8777,2.8655,2.8587,2.8587,2.8587,2.8587,2.8587,2.8587,2.8655,2.8763,2.8655,2.8655,2.8763,2.8641,2.8949,2.9512,3.0463,3.1555,3.2721,3.3645,3.5137,3.6923,3.7338,3.7661,3.7969,3.8295,3.8923,3.9421,1.4936,1.5471,1.5993,1.6171,1.6318,1.6584,1.7173,1.7247,1.7657,1.884,2.0328,0.0,0.0,0.0,0.0,0.0,0.0,0.0,0.0,2.231,2.2366,2.2487,2.2515,2.2552,2.2694,2.2527,2.2456,2.2456,0.0,0.0,0.0,0.0,0.0,0.0,0.0,0.0,0.0,0.0,2.3176,2.4582,2.4737,0.0,2.7442,2.7765,2.8119,2.8411,2.8411,2.8411,2.8348,2.8073,2.7746,0.0,0.0,2.737,2.709,0.0,2.646,2.6115,0.0,0.0,0.0,2.4495,0.0,0.0,0.0,2.4003,2.4298,0.0,0.0,0.0,0.0,0.0,0.0,0.0,0.0,0.0,0.0,0.0,0.0,0.0,0.0,0.0,0.0,3.0581,3.0405,3.0405,2.955,2.9034,2.9034,2.875,2.8587,2.8587,2.8587,2.8587,2.8587,2.8587,2.8736,2.9034,2.8736,2.875,2.9021,2.9082,2.9219,2.9566,3.0555,3.1367,3.2062,3.3031,3.4014,3.506,3.6091,3.6907,3.7538,3.7877,3.8431,3.9016,1.5837,1.6374,1.6799,1.6876,1.6998,1.7313,1.8,1.821,1.8833,2.0283,0.0,0.0,0.0,0.0,0.0,0.0,0.0,0.0,0.0,0.0,2.2487,2.2685,2.2764,2.2876,2.3109,2.3091,2.3091,2.3091,0.0,0.0,0.0,0.0,0.0,0.0,0.0,0.0,0.0,0.0,0.0,2.5277,0.0,2.6645,2.7642,2.8057,2.8288,2.8411,2.8411,2.8411,2.8396,2.8493,0.0,2.8602,2.902,2.9286,0.0,0.0,0.0,0.0,0.0,0.0,0.0,0.0,0.0,2.5026,0.0,0.0,0.0,0.0,0.0,0.0,0.0,0.0,0.0,0.0,0.0,0.0,0.0,0.0,0.0,0.0,0.0,0.0,0.0,2.9659,2.9835,2.9726,2.936,2.9129,2.9129,2.879,2.8587,2.8587,2.8587,2.8587,2.8587,2.8587,2.8882,2.9477,2.8998,2.909,2.9659,2.9694,2.9752,2.9936,3.1043,3.1537,3.1754,3.2798,3.3213,3.3352,3.4752,3.5953,3.6938,3.7061,3.7538,3.8138,1.6922,1.7011,1.7175,1.7509,1.7765,1.8,1.8392,1.9005,1.9814,0.0,0.0,0.0,0.0,0.0,0.0,0.0,0.0,0.0,2.231,0.0,0.0,2.2712,2.291,2.3084,2.3091,2.3091,2.3091,2.3091,2.3042,0.0,0.0,0.0,0.0,0.0,2.2282,0.0,0.0,0.0,2.4216,0.0,2.6365,2.7467,0.0,2.7703,2.7888,2.8411,2.8411,2.8411,2.8444,0.0,2.9044,2.8949,0.0,2.8936,0.0,0.0,0.0,0.0,0.0,0.0,0.0,0.0,2.687,0.0,0.0,0.0,0.0,0.0,0.0,0.0,0.0,0.0,0.0,0.0,0.0,0.0,0.0,0.0,0.0,0.0,0.0,0.0,0.0,0.0,2.78,2.7271,2.7651,2.7908,2.7908,2.8343,2.8587,2.8587,2.8587,2.8587,2.8587,2.8587,2.8908,2.9491,2.9421,2.9747,3.0384,3.0372,3.0689,3.1291,3.1422,3.1823,3.2287,3.2475,3.2505,3.2644,3.4044,3.4691,3.4891,3.5491,3.6138,3.6799,1.7321,1.7329,1.7401,1.7612,1.8094,1.8659,1.9269,2.0394,2.1328,0.0,0.0,0.0,0.0,0.0,0.0,0.0,0.0,2.231,0.0,0.0,0.0,2.291,2.3182,2.3394,2.3495,2.3513,2.3513,2.3513,2.3376,0.0,0.0,0.0,0.0,0.0,2.231,0.0,2.2835,0.0,2.478,0.0,0.0,0.0,0.0,2.831,2.815,2.8411,2.8411,2.8658,2.9079,0.0,2.9737,0.0,0.0,0.0,0.0,0.0,0.0,0.0,0.0,0.0,0.0,0.0,0.0,0.0,0.0,0.0,2.7872,0.0,0.0,0.0,0.0,0.0,0.0,0.0,0.0,0.0,0.0,0.0,0.0,0.0,0.0,0.0,0.0,0.0,0.0,0.0,0.0,2.6959,2.7664,2.7949,2.8234,2.8587,2.8587,2.8587,2.8587,2.8944,2.9219,2.9504,2.9889,3.0208,3.0524,3.0881,3.1233,3.1537,3.1879,3.2176,3.2398,3.2398,3.2398,3.2444,3.3044,3.3506,3.3937,3.4645,3.5322,3.5953,1.7498,1.7512,1.7633,1.7927,1.8605,1.9462,2.0475,2.16,0.0,0.0,0.0,0.0,2.231,2.231,0.0,0.0,0.0,2.231,0.0,0.0,2.2902,0.0,0.0,0.0,0.0,2.3795,2.3795,2.3795,2.3646,0.0,0.0,0.0,0.0,0.0,0.0,2.2716,2.3004,0.0,0.0,2.6587,2.7501,2.8666,2.9705,2.8873,2.8573,2.8573,2.8573,2.9007,2.9728,3.037,3.0541,0.0,3.2201,0.0,0.0,0.0,0.0,0.0,2.9739,0.0,0.0,0.0,0.0,0.0,0.0,0.0,0.0,0.0,0.0,0.0,0.0,0.0,0.0,0.0,0.0,0.0,0.0,0.0,0.0,0.0,0.0,0.0,0.0,0.0,0.0,2.6257,2.6038,2.6397,2.7621,2.781,2.8181,2.8809,2.8684,2.8766,2.9135,2.9233,2.9518,3.0058,3.0329,3.0689,3.1043,3.1522,3.1766,3.1766,3.2216,3.2398,3.2398,3.2398,3.2398,3.2398,3.2398,3.269,3.3213,3.3921,3.4614,3.523,1.7512,1.7612,0.0,0.0,1.9461,2.0475,2.1978,0.0,0.0,0.0,0.0,0.0,0.0,0.0,0.0,0.0,0.0,2.231,2.231,0.0,2.3091,0.0,0.0,2.3795,0.0,0.0,2.3795,2.3795,2.3795,0.0,0.0,0.0,0.0,0.0,0.0,2.3748,2.4509,2.5528,2.6628,2.7803,2.8436,2.913,2.9766,0.0,2.909,2.909,2.909,0.0,0.0,3.1221,3.1527,0.0,0.0,0.0,0.0,0.0,0.0,0.0,0.0,0.0,0.0,2.9566,0.0,0.0,0.0,0.0,3.0664,0.0,0.0,0.0,0.0,0.0,0.0,0.0,0.0,0.0,0.0,0.0,0.0,0.0,0.0,0.0,0.0,0.0,0.0,2.498,2.5584,2.6408,2.7544,2.8193,2.8785,2.942,2.8879,2.9198,3.0464,2.9261,2.9546,3.1422,3.0822,3.116,3.2342,3.2342,3.2398,3.2382,3.2398,3.2398,3.2398,3.2398,3.2398,3.2398,3.2398,3.2398,3.2505,3.3183,3.3891,3.4599,1.8967,0.0,0.0,0.0,0.0,0.0,0.0,2.2405,0.0,0.0,0.0,0.0,0.0,0.0,2.3748,0.0,0.0,2.3038,2.3038,2.3059,0.0,0.0,0.0,2.4049,0.0,0.0,0.0,0.0,0.0,0.0,0.0,0.0,0.0,0.0,0.0,2.4449,0.0,0.0,0.0,0.0,0.0,3.0303,3.0225,0.0,0.0,2.9572,2.9572,3.0039,0.0,3.1353,3.1901,3.2426,3.3259,3.3153,3.2756,3.3397,3.3305,0.0,0.0,0.0,3.2664,3.0437,0.0,0.0,0.0,0.0,0.0,0.0,0.0,0.0,0.0,0.0,0.0,0.0,0.0,0.0,0.0,0.0,0.0,0.0,0.0,0.0,0.0,0.0,0.0,2.5386,2.5681,2.6337,0.0,2.8182,2.8828,2.9493,2.9711,3.004,3.0524,3.0524,3.0822,3.148,3.1694,3.1977,3.2398,3.2398,3.2398,3.2398,3.2398,3.2398,3.2398,3.2398,3.2398,3.2398,3.2398,3.2398,3.2428,3.2644,3.3475,3.4629,1.968,1.9757,0.0,0.0,0.0,0.0,0.0,0.0,0.0,0.0,2.3613,0.0,2.4455,0.0,2.4506,0.0,2.4083,2.3782,2.3782,2.3774,0.0,2.4479,2.4504,0.0,0.0,0.0,0.0,0.0,0.0,2.3771,0.0,0.0,0.0,0.0,0.0,2.4866,2.4829,0.0,2.8205,0.0,0.0,3.0864,0.0,0.0,2.9821,2.9636,0.0,3.0092,3.0817,3.1573,3.2159,3.2677,3.3777,3.3592,3.3203,3.4201,3.4167,3.3694,3.3203,3.3761,0.0,3.1816,3.2357,0.0,3.1275,0.0,0.0,0.0,0.0,0.0,0.0,0.0,0.0,0.0,0.0,0.0,0.0,2.7989,0.0,0.0,0.0,0.0,0.0,0.0,2.4798,2.5982,2.5914,2.6406,0.0,0.0,2.9189,2.9785,3.0295,3.0748,3.116,3.1276,3.1522,3.1879,3.2048,3.2272,3.2453,3.2453,3.2453,3.2453,3.2523,3.2578,3.2578,3.2578,3.2578,3.2578,3.2578,3.2578,3.2578,3.2453,3.3275,3.466,1.9817,2.0502,0.0,0.0,2.228,0.0,0.0,0.0,2.3439,0.0,2.4117,2.4591,2.4625,2.4625,2.4625,2.4625,2.4591,0.0,2.4557,2.4778,0.0,0.0,2.55,2.5804,2.5857,0.0,0.0,0.0,0.0,0.0,0.0,0.0,0.0,0.0,2.5005,0.0,2.5264,2.7408,2.8135,2.8026,3.0226,3.0666,3.0057,3.0057,2.9755,2.9407,2.9473,2.9938,3.0717,3.1898,3.2364,3.251,3.3186,3.2966,3.273,3.4134,3.4539,3.4539,3.4539,3.4539,3.437,3.3592,0.0,0.0,0.0,0.0,3.3254,0.0,0.0,0.0,0.0,0.0,0.0,0.0,0.0,0.0,0.0,0.0,0.0,0.0,0.0,0.0,0.0,2.4014,2.4238,2.6652,2.632,0.0,0.0,0.0,2.9879,3.036,3.0648,3.1319,3.2398,3.1477,3.1534,3.2594,3.2048,3.2048,3.2594,3.2594,3.2594,3.2648,3.2843,3.2897,3.2897,3.2897,3.2897,3.2897,3.2897,3.2897,3.2843,3.26,3.3393,3.4719,2.1427,2.2237,2.2713,0.0,2.3058,2.3206,0.0,0.0,0.0,0.0,2.5077,2.5805,2.6098,2.6133,2.6133,2.6133,2.5625,0.0,0.0,0.0,0.0,2.5777,2.5572,2.5809,2.6675,2.5975,0.0,2.5009,0.0,0.0,2.413,0.0,0.0,0.0,0.0,0.0,2.6699,2.7827,2.8439,2.8738,2.9313,2.9431,0.0,0.0,2.9225,2.9248,3.0342,3.0864,3.1156,3.2019,3.3017,3.3863,3.3508,3.4032,3.4844,3.5216,3.5334,3.5334,3.5334,3.5334,3.503,3.3728,3.3812,3.3863,0.0,0.0,0.0,0.0,0.0,0.0,0.0,0.0,0.0,0.0,0.0,0.0,0.0,0.0,0.0,0.0,0.0,0.0,2.7405,2.6977,2.6901,2.715,2.7971,2.8558,0.0,0.0,0.0,3.0552,3.1581,3.2272,3.2523,3.2468,3.2523,3.2843,3.2664,3.2664,3.2843,3.2843,3.2843,3.2843,3.2897,3.2897,3.2897,3.2897,3.2897,3.2897,3.2897,3.2897,3.3022,3.3892,3.4483,3.4996,2.2235,0.0,0.0,2.3277,0.0,0.0,2.3598,0.0,0.0,2.4645,2.5107,0.0,2.6166,2.6218,2.6353,2.6657,2.6319,0.0,0.0,0.0,0.0,2.654,2.6411,2.6493,2.6809,2.6279,0.0,2.5337,0.0,0.0,2.4723,0.0,0.0,0.0,0.0,2.762,2.7296,2.8011,2.8647,2.9225,2.9759,0.0,0.0,2.9347,2.9262,2.9214,3.0666,3.119,3.1309,3.2036,3.3051,3.3947,3.3541,3.4201,3.5131,3.5131,3.5368,3.5622,3.5622,3.5622,3.5419,3.459,3.4675,3.4675,3.3508,3.3897,3.437,0.0,0.0,0.0,0.0,0.0,0.0,0.0,0.0,0.0,0.0,0.0,0.0,0.0,0.0,0.0,2.822,2.8122,2.7853,2.7179,2.8498,2.915,0.0,0.0,0.0,3.0705,3.2095,3.2757,3.2718,3.2935,3.3058,3.3005,3.3005,3.3005,3.3005,3.3005,3.3005,3.3005,3.3058,3.3043,3.3043,3.3043,3.3043,3.3043,3.3043,3.3043,3.3215,3.4579,3.5023,3.5096,2.2569,0.0,0.0,0.0,0.0,0.0,0.0,2.4156,0.0,2.4838,0.0,2.5012,2.5406,2.5642,2.5964,2.6505,0.0,2.6725,2.6758,2.6758,2.6923,2.7244,2.7535,2.7385,2.6764,2.6448,0.0,0.0,0.0,2.4584,2.5651,0.0,0.0,0.0,0.0,0.0,0.0,2.8075,2.8625,2.9369,3.0398,3.001,2.8924,2.9786,2.9702,2.9313,3.07,3.1258,3.1444,3.2188,3.3,3.3677,3.3575,3.4049,3.4641,3.4641,3.5115,3.5622,3.5622,3.5622,3.5622,3.5622,3.5622,3.5453,3.4793,3.4641,3.4641,3.4641,3.4134,3.3863,0.0,0.0,0.0,0.0,0.0,0.0,0.0,0.0,0.0,0.0,0.0,0.0,0.0,2.8167,2.7844,2.7007,2.8307,2.8951,0.0,0.0,0.0,3.0927,3.241,0.0,3.2897,0.0,3.3256,3.3096,3.3096,3.3096,3.3096,3.3096,3.3096,3.315,3.3256,3.3309,3.3309,3.3309,3.3309,3.3309,3.3309,3.3309,3.3467,3.4762,3.5124,3.5143,0.0,0.0,0.0,0.0,0.0,2.3845,2.4456,2.4856,2.4997,2.4641,2.5826,2.6216,2.4828,2.5778,2.6302,2.5845,2.6353,0.0,0.0,0.0,0.0,2.7612,2.7672,2.7631,2.7508,2.7068,2.6834,0.0,2.5611,2.5546,2.65,0.0,0.0,0.0,0.0,0.0,2.9142,2.8304,0.0,2.8574,2.8749,2.8476,2.818,2.9583,3.0023,3.0023,3.0886,3.1579,3.2205,3.2949,3.4117,3.5115,3.4506,3.481,3.5419,3.5419,3.552,3.5622,3.5622,3.5622,3.5622,3.5622,3.5622,3.5588,3.5453,3.5419,3.5419,3.5419,3.5318,3.5081,3.459,0.0,0.0,0.0,0.0,0.0,0.0,0.0,0.0,0.0,0.0,0.0,0.0,0.0,0.0,0.0,0.0,0.0,0.0,0.0,0.0,0.0,3.291,0.0,0.0,0.0,3.3309,3.324,3.324,3.324,3.324,3.324,3.324,3.3256,3.3309,3.3309,3.3309,3.3309,3.3309,3.3309,3.3309,3.3309,3.3403,3.4194,3.4733,3.5273,0.0,0.0,0.0,0.0,0.0,0.0,0.0,2.4593,0.0,2.4236,2.4457,2.4471,2.3981,2.5067,2.5843,2.586,2.6702,2.7289,2.7461,2.7461,2.7595,2.7897,2.7897,0.0,2.7341,2.7253,2.7151,2.7004,2.6272,2.6392,0.0,0.0,0.0,0.0,0.0,2.9177,0.0,0.0,0.0,2.8908,2.951,2.9676,2.9661,3.0565,3.0936,3.0933,3.1133,3.1664,3.2391,3.3152,3.388,3.4539,3.4945,3.5064,3.5115,3.5504,3.5622,3.5622,3.5622,3.5622,3.5622,3.5622,3.5622,3.565,3.5915,3.5783,3.5667,3.5915,3.5756,3.5474,3.4993,3.4681,0.0,0.0,0.0,0.0,0.0,0.0,0.0,0.0,0.0,0.0,0.0,0.0,0.0,0.0,0.0,0.0,0.0,0.0,0.0,0.0,0.0,0.0,0.0,0.0,0.0,3.3309,3.3309,3.3309,3.3309,3.3309,3.3309,3.3309,3.3309,3.3309,3.3309,3.3309,3.345,3.3694,3.3694,3.3882,3.4149,3.4845,3.531,3.5689,0.0,2.3289,0.0,0.0,2.3289,0.0,2.406,2.3971,2.3832,2.388,2.3344,2.309,2.3442,2.4586,2.5553,2.6143,2.7128,2.7713,2.7771,2.78,2.7897,2.8201,2.8201,2.7897,2.7236,2.7349,2.7349,0.0,2.6754,2.7096,0.0,0.0,0.0,0.0,0.0,0.0,0.0,0.0,2.9347,2.9637,3.0596,3.1067,3.123,3.1672,3.1823,3.1787,3.1428,3.1664,3.2258,3.294,3.3271,3.3643,3.5094,3.4992,3.4567,3.5484,3.5637,3.5501,3.5501,3.562,3.5749,3.5667,3.5735,3.5985,3.6326,3.6156,3.5985,3.6367,3.6114,3.5831,3.5627,3.5634,0.0,0.0,0.0,0.0,0.0,0.0,0.0,0.0,0.0,0.0,0.0,0.0,0.0,0.0,0.0,0.0,0.0,0.0,0.0,0.0,0.0,3.4615,3.4121,0.0,3.4034,0.0,3.3503,3.345,3.345,3.3346,3.3309,3.3309,3.3309,3.3346,3.345,3.345,3.3797,3.4234,3.4234,3.4464,3.4899,3.543,3.5743,3.5974,0.0,0.0,0.0,0.0,0.0,0.0,0.0,2.3274,2.3327,2.3757,2.45,2.4721,2.394,2.5349,2.6398,2.6532,2.7262,2.78,2.8047,2.8075,2.8201,2.8543,2.8543,2.8386,2.8022,2.7594,2.7594,0.0,0.0,2.7458,0.0,0.0,0.0,0.0,0.0,0.0,0.0,2.9241,2.9492,3.0415,3.0505,3.08,3.1263,3.1984,3.2231,3.2179,3.1787,3.1691,3.1826,3.2241,3.2848,3.3626,3.4844,3.4708,3.4318,3.5786,3.5734,3.5143,3.5143,3.5683,3.617,3.5789,3.6217,3.6781,3.6821,3.6821,3.6781,3.6821,3.6821,3.6732,3.6524,3.6432,3.608,0.0,0.0,0.0,0.0,0.0,0.0,0.0,0.0,0.0,0.0,0.0,0.0,0.0,0.0,0.0,0.0,0.0,0.0,3.3155,0.0,3.4746,3.4202,3.4545,0.0,3.4625,3.4234,3.405,3.4,3.3503,3.3309,3.3309,3.3309,3.3555,3.405,3.405,3.4333,3.4721,3.4721,3.4785,3.4785,3.4851,3.5215,3.5746,0.0,0.0,0.0,0.0,0.0,0.0,0.0,2.3336,2.3419,2.3605,2.3829,2.3849,2.3474,2.4997,2.6091,2.6135,2.7424,2.8291,2.8396,2.8396,2.8448,2.8587,2.8587,2.8543,2.8396,2.8211,2.8193,0.0,0.0,0.0,0.0,0.0,0.0,0.0,0.0,2.9209,2.9362,2.9033,2.9703,3.0984,3.1109,3.1847,3.2861,3.2822,3.2773,3.2727,3.2213,3.2074,3.2073,3.226,3.2349,3.2637,3.4031,3.4112,3.383,3.4892,3.4979,3.4753,3.4753,3.4979,3.5279,3.563,3.5931,3.6359,3.7084,3.7076,3.6978,3.7208,3.7283,3.7251,3.7167,3.7032,3.6789,0.0,0.0,0.0,0.0,0.0,0.0,0.0,0.0,0.0,0.0,0.0,0.0,0.0,0.0,0.0,0.0,0.0,0.0,3.4393,0.0,3.6138,3.5403,3.5555,3.5369,3.4769,3.4593,3.4513,3.4496,3.4301,3.4202,3.4202,3.4202,3.4301,3.4513,3.4513,3.4833,3.5333,3.5769,3.5852,3.5756,3.6231,3.6246,3.6062,2.2615,0.0,2.2816,0.0,2.307,2.3168,2.3401,2.3471,2.3522,2.3576,2.3422,2.3372,2.3512,2.4962,2.602,2.6254,2.7698,2.8587,2.8587,2.8587,2.8587,2.8587,2.8587,0.0,2.8587,2.8587,2.8587,2.8587,2.881,0.0,0.0,0.0,0.0,0.0,2.8957,2.9033,2.9253,2.9253,3.0216,3.174,3.19,3.2779,3.3954,3.3524,3.3346,3.3288,3.2727,3.255,3.2517,3.2334,3.2162,3.2248,3.3589,3.3631,3.3424,3.4375,3.4516,3.4357,3.4357,3.4516,3.4781,3.5243,3.574,3.6238,3.688,3.697,3.702,3.7292,3.7542,3.7703,3.7739,3.7649,3.7325,3.6644,0.0,0.0,0.0,0.0,0.0,0.0,3.3238,3.2364,3.2679,0.0,0.0,0.0,0.0,0.0,0.0,0.0,0.0,0.0,0.0,0.0,0.0,3.6325,3.6028,3.5237,3.5098,3.5021,3.5021,3.4864,3.4769,3.4769,3.4769,3.4864,3.5021,3.5021,3.5345,3.5861,3.6372,3.649,3.637,3.6939,3.6784,3.6301,2.2443,2.2605,2.2712,2.279,2.297,2.3193,2.3471,2.3494,2.3567,2.3774,2.3795,2.3999,2.4527,2.5559,2.653,2.7302,2.8117,2.8587,2.8587,2.8587,2.8587,0.0,0.0,2.8587,2.8587,2.8587,2.8587,2.8587,0.0,0.0,2.8905,0.0,2.9034,2.8887,2.8905,2.9326,3.01,3.01,3.114,3.2785,3.2785,3.3284,3.3998,3.3998,3.3998,3.3902,3.3317,3.3094,3.3003,3.2484,3.2502,3.2938,3.374,3.3455,3.3116,3.4634,3.4599,3.4013,3.4013,3.4563,3.5039,3.4713,3.582,3.6779,3.6019,3.6435,3.6997,3.6997,3.7631,3.8225,3.8274,3.8336,3.763,3.5297,0.0,0.0,0.0,0.0,0.0,0.0,3.2375,3.1839,3.2892,0.0,0.0,0.0,0.0,0.0,0.0,0.0,0.0,3.5398,3.6364,0.0,3.6292,3.6706,3.6678,3.6301,3.581,3.5571,3.5571,3.5052,3.4769,3.4769,3.4769,3.5098,3.5571,3.5571,3.5854,3.6301,3.6301,3.6301,3.6301,3.6318,3.6301,3.6301,2.2415,2.2525,2.2659,2.2952,2.307,2.3144,2.3217,2.3383,2.3562,2.3703,2.3771,2.3865,2.4053,2.5344,2.653,0.0,2.8135,2.8587,0.0,2.8587,2.8587,2.8587,2.8587,2.8587,2.8587,2.8587,2.8587,2.8587,0.0,0.0,0.0,2.9454,2.9686,2.953,3.0093,3.0534,3.0924,3.1048,3.1866,3.3018,3.315,3.3676,3.4386,3.4245,3.4197,3.4173,3.3831,3.3707,3.368,3.3361,3.3321,3.3433,3.3557,3.3424,3.3316,3.3821,3.3754,3.3592,3.3592,3.3754,3.4037,3.4485,3.5403,3.6254,3.6544,3.6816,3.6834,3.6309,3.6816,3.7392,3.7392,3.7925,3.7917,3.6681,3.7132,0.0,0.0,0.0,0.0,0.0,3.3469,3.3125,0.0,3.3819,0.0,0.0,0.0,0.0,0.0,0.0,0.0,0.0,3.7776,0.0,3.7553,3.7648,3.7395,3.6719,3.658,3.6333,3.6071,3.5881,3.5837,3.5837,3.5837,3.5924,3.6071,3.6071,3.6174,3.6353,3.6887,3.6766,3.637,3.6904,3.6766,3.6343,2.2175,2.2388,2.2596,2.2893,2.3028,2.3119,2.3168,2.336,2.3562,2.3678,2.375,2.3922,2.4212,2.5425,0.0,2.691,2.7978,2.8587,2.8587,2.8587,2.8587,2.8587,2.8587,2.8587,2.8587,0.0,0.0,2.8587,2.8902,2.9243,2.9628,3.0163,3.0374,3.026,3.0767,3.1318,3.1875,3.1992,3.2669,3.3665,3.3789,3.4151,3.4602,3.4473,3.4409,3.4404,3.4173,3.4124,3.4074,3.3868,3.378,3.3671,3.3549,3.3452,3.3393,3.3393,3.3393,3.3393,3.3393,3.3393,3.352,3.4027,3.4987,3.5946,3.6435,3.6309,3.5946,3.5457,3.6001,3.6544,3.6544,3.7275,3.7644,3.6887,3.725,3.7081,3.5579,0.0,0.0,0.0,0.0,0.0,0.0,3.5418,0.0,0.0,0.0,0.0,0.0,0.0,0.0,3.7977,3.8456,0.0,3.8101,3.8101,3.7756,3.7132,3.7132,3.6978,3.6741,3.6741,3.6741,3.6741,3.6741,3.6741,3.6741,3.6741,3.6741,3.6794,3.73,3.7196,3.6811,3.7318,3.7178,3.6799,2.1811,2.2175,0.0,0.0,2.2927,0.0,2.3265,2.3407,2.3522,2.3656,2.375,2.4085,2.4846,2.5719,2.6227,2.6227,0.0,0.0,0.0,2.8619,2.8619,2.8619,2.8619,2.8619,2.8619,2.8619,2.8656,2.871,2.9507,3.0381,3.129,3.12,3.113,3.1075,3.1157,3.1816,3.2878,3.2878,3.3538,3.4602,3.4602,3.4602,3.4602,3.4602,3.4602,3.458,3.4404,3.4316,3.4293,3.4099,3.3895,3.3753,3.3726,3.3577,3.3422,3.3393,3.3393,3.3393,3.3393,3.3393,3.3393,3.3393,3.457,3.5765,3.5874,3.5222,3.4624,3.4679,3.524,3.5747,3.5802,3.6508,3.6869,3.6079,3.674,3.6497,3.4099,0.0,0.0,0.0,0.0,0.0,0.0,3.7014,3.6882,0.0,0.0,0.0,0.0,0.0,3.6587,3.8244,3.8553,3.8546,3.8153,3.8135,3.7948,3.7542,3.7505,3.7505,3.7505,3.7505,3.7505,3.7505,3.7505,3.7505,3.7505,3.7505,3.7505,3.7505,3.7505,3.7505,3.7505,3.7505,3.7505,3.7505,0.0,0.0,2.2186,2.2876,2.307,2.3119,2.3144,2.3336,2.3517,2.3522,2.3685,2.3868,2.4049,2.5485,2.6428,2.6428,2.7908,2.8887,2.8971,2.8971,2.8971,2.8971,2.8971,2.8971,2.8971,2.8971,2.9324,2.9968,3.0631,3.1057,3.1309,3.2059,3.2224,3.1944,3.2721,3.3303,3.3702,3.3702,3.4059,3.4602,3.4602,3.4602,3.4602,3.4602,3.4602,3.4583,3.4539,3.4517,3.4495,3.4293,3.4197,3.4124,3.3972,3.3807,3.3605,3.3452,3.3393,3.3393,3.3393,3.3393,3.3393,3.3393,3.4154,3.5222,3.6435,3.562,3.4769,3.5403,3.5186,3.5077,3.5693,3.5996,3.5957,3.545,3.5597,3.5214,3.3649,3.3627,0.0,0.0,3.5417,3.6691,3.8194,3.7907,3.7772,0.0,0.0,0.0,0.0,3.747,3.7615,3.9126,3.9072,3.8862,3.8546,3.8564,3.8368,3.7948,3.765,3.7505,3.7505,3.7505,3.7505,3.7505,3.7505,3.7505,3.7505,3.7505,3.7505,3.7505,3.7505,3.7505,3.7505,3.7505,3.7505,3.7542,2.1998,2.1899,2.2056,2.2952,2.3095,2.3095,2.3095,2.3217,2.336,2.3494,2.3638,2.3771,2.3795,2.5117,2.6176,2.6602,2.807,2.9034,2.9104,2.9086,2.9086,2.9086,2.9086,2.9086,2.9086,2.9086,2.9739,3.1088,3.131,3.1667,3.2151,3.2945,3.3048,3.2519,3.3413,3.3947,3.4148,3.4148,3.4316,3.4602,3.4602,3.4602,3.4602,3.4602,3.4602,3.4602,3.4602,3.4602,3.4583,3.4473,3.4381,3.4269,3.4173,3.3998,3.3807,3.3605,3.3481,3.3556,3.4298,3.4244,3.4135,3.486,3.5095,3.5476,3.6707,3.6037,3.5276,3.5729,3.5168,3.4764,3.529,3.5405,3.5389,3.5264,3.4955,3.4501,3.3803,3.3529,0.0,3.5247,3.6274,3.7603,3.9413,3.9164,3.8916,3.8992,0.0,0.0,3.8954,3.8785,3.8986,3.9656,3.9298,3.9017,3.8881,3.875,3.8596,3.8368,3.8135,3.8068,3.8068,3.8068,3.8068,3.805,3.767,3.7724,3.8032,3.767,3.7724,3.8068,3.8068,3.8068,3.8068,3.8068,3.8068,3.8068,2.1797,2.1797,2.2056,2.2952,2.3095,2.3095,2.3095,2.3095,2.3193,2.3407,2.3611,2.3747,2.3837,2.4653,2.5622,2.6614,2.7985,2.8931,2.9172,2.9191,2.9191,2.9191,2.9191,2.9191,2.9191,2.9299,3.0123,3.1747,3.1815,3.2275,3.3119,3.3826,3.3728,3.3044,3.3778,3.4173,3.4316,3.4316,3.4427,3.4602,3.4602,3.4602,3.4602,3.4602,3.4602,3.4602,3.4602,3.4602,3.4602,3.4602,3.4495,3.434,3.434,3.4197,3.4042,3.4007,3.3826,3.3953,3.5258,3.5222,3.515,3.6616,3.649,3.62,3.6979,3.6562,3.6019,3.6146,3.5452,3.4891,3.5049,3.5064,3.5054,3.5155,3.4637,3.4208,3.4153,0.0,3.4319,3.5892,3.7033,3.8381,4.0138,4.031,4.0005,3.926,3.989,3.9986,0.0,3.9909,4.0215,3.9975,3.9477,3.9192,3.9156,3.8892,3.875,3.875,3.8738,3.8707,3.8707,3.8707,3.8707,3.867,3.7973,3.8065,3.8652,3.7955,3.8065,3.8707,3.8707,3.8707,3.8707,3.8707,3.8707,3.8707,2.1797,2.1797,2.2056,2.2952,2.3095,2.3095,2.3095,2.3095,2.3102,2.3168,2.3531,2.3858,2.402,2.4205,2.4816,2.6098,2.7008,2.809,2.9495,2.9626,2.9626,2.9626,2.9626,2.9626,2.9626,3.0122,3.0588,3.107,3.2337,3.3026,3.3197,3.4275,3.4494,3.4074,3.4311,3.445,3.4473,3.434,3.4427,3.4602,3.4602,3.4602,3.4602,3.4602,3.4602,3.4602,3.4602,3.4602,3.4602,3.4602,3.458,3.4539,3.4539,3.4427,3.4375,3.5033,3.5066,3.4908,3.4788,3.5204,3.5838,3.6761,3.6888,3.7015,3.7812,3.7377,3.6997,3.7685,3.6789,3.5882,3.5919,3.5515,3.5055,3.4661,3.4525,3.432,3.3904,0.0,3.5227,3.6306,3.7179,3.8381,4.0138,4.031,4.0253,4.0119,4.0234,4.0253,4.0119,4.0234,4.0272,4.0234,3.9954,3.967,3.9452,3.9165,3.9045,3.9036,3.881,3.8707,3.8707,3.8707,3.8707,3.8689,3.8579,3.8579,3.8689,3.8579,3.8597,3.8707,3.8707,3.8707,3.8707,3.8707,3.8707,3.8707,2.1751,2.2169,2.2624,2.3028,2.3095,2.3095,2.3095,2.3095,2.3095,2.3095,2.3277,2.3628,2.4211,2.4229,2.4654,2.58,2.6425,2.7223,2.8275,2.8763,2.9213,2.9683,2.9701,2.9701,2.9701,3.0412,3.101,3.156,3.2763,3.3366,3.3385,3.4433,3.4566,3.4011,3.4484,3.473,3.4711,3.4604,3.4623,3.4687,3.4623,3.4602,3.4602,3.4602,3.4602,3.4602,3.4602,3.4602,3.4602,3.4602,3.4602,3.4677,3.5146,3.5252,3.531,3.5994,3.6337,3.6426,3.6127,3.6656,3.7303,3.7573,3.7631,3.7848,3.8645,3.821,3.7914,3.8828,3.7807,3.6677,3.6454,3.5832,3.5343,3.5285,3.4548,0.0,0.0,3.5362,3.5775,3.7527,3.8116,3.8897,4.0196,4.031,4.031,4.031,4.031,4.031,4.031,4.031,4.031,4.031,4.0038,3.9762,3.9483,3.9376,3.9324,3.9324,3.9192,3.9129,3.9129,3.9129,3.9129,3.9091,3.8664,3.8656,3.8865,3.7978,3.8048,3.867,3.8212,3.8322,3.8707,3.8707,3.8707,3.8707,2.2015,2.2651,2.3095,2.3095,2.3095,2.3175,2.3394,2.344,2.344,2.344,2.344,2.3692,2.4389,2.4409,2.4669,2.5405,2.5806,2.6303,2.6979,2.7711,2.85,2.9363,2.9589,2.9701,2.9701,3.0321,3.1016,3.1823,3.2788,3.3355,3.3582,3.4529,3.4641,3.409,3.468,3.4945,3.4945,3.4849,3.481,3.481,3.4687,3.4645,3.4645,3.4623,3.4602,3.4602,3.4602,3.4602,3.4602,3.4602,3.4733,3.5015,3.5691,3.6028,3.6269,3.6726,3.7303,3.7757,3.7702,3.8126,3.8541,3.8322,3.8546,3.8946,3.9363,3.9145,3.9049,3.9896,3.8817,3.7642,3.7344,3.6665,3.6166,3.6175,0.0,0.0,0.0,3.6388,3.648,3.8595,3.8956,3.9336,4.0234,4.031,4.031,4.031,4.031,4.031,4.031,4.031,4.031,4.031,4.0098,3.9892,3.9693,3.9623,3.958,3.9599,3.9526,3.9502,3.9502,3.9502,3.9502,3.9464,3.885,3.8821,3.908,3.7653,3.7755,3.8789,3.7987,3.8132,3.8792,3.8792,3.875,3.8707,2.2833,2.307,2.3095,2.3095,2.3095,2.3394,2.4266,2.4393,2.4393,2.4393,2.4393,2.4462,2.466,2.461,2.4631,2.4751,2.4804,2.5289,2.6397,2.6979,2.7655,2.8463,2.927,2.9701,2.9701,2.9758,3.019,3.0997,3.1995,3.2899,3.3714,3.4708,3.5155,3.5081,3.5089,3.5075,3.5075,3.4945,3.4889,3.4889,3.481,3.4788,3.4768,3.4645,3.4602,3.4602,3.4602,3.4602,3.4602,3.4602,3.5146,3.5822,3.5878,3.6404,3.7005,3.7061,3.7638,3.8347,3.8682,3.8826,3.8803,3.8541,3.9611,4.051,3.9812,4.0215,4.0793,4.1119,4.0036,3.9044,3.9016,3.8527,3.7845,3.7117,0.0,0.0,3.7351,3.7414,3.7813,3.8859,3.8992,3.9336,4.0234,4.031,4.031,4.031,4.031,4.031,4.031,4.031,4.031,4.031,4.0272,4.0253,4.0234,3.9996,3.987,3.987,3.9623,3.9502,3.9502,3.9502,3.9502,3.9502,3.9427,3.9427,3.9402,3.8483,3.8608,3.9358,3.8471,3.8525,3.9073,3.9073,3.8921,3.8707,2.3003,2.3095,2.3095,2.3095,2.358,2.4096,2.4465,2.45,2.45,2.45,2.45,2.4517,2.4566,2.4629,2.4676,2.4714,2.4711,2.4876,2.5327,2.604,2.7279,2.9138,2.9514,2.9701,2.9701,3.019,3.0885,3.177,3.2731,3.3674,3.4564,3.4492,3.4713,3.519,3.4642,3.4683,3.516,3.5056,3.502,3.502,3.4908,3.483,3.4788,3.4747,3.4666,3.4602,3.4602,3.4602,3.4602,3.4602,3.5254,3.6151,3.6524,3.7288,3.8112,3.8517,3.8863,3.9252,3.9904,3.9946,3.9787,3.9552,4.0338,4.1204,4.1388,4.0909,4.0769,4.2032,4.1035,4.001,4.0154,3.9996,3.9746,3.9445,0.0,3.928,4.0366,3.9773,3.9585,4.0444,4.0119,3.9947,4.0272,4.0345,4.036,4.036,4.0444,4.0492,4.0492,4.0492,4.046,4.036,4.036,4.0344,4.031,4.0196,4.0157,4.0157,4.0038,3.9996,3.9996,3.9996,3.9996,3.9996,3.9996,3.9892,3.9664,3.8855,3.8893,3.9408,3.8582,3.8721,3.935,3.935,3.9272,3.9192,2.2944,2.3277,2.3535,2.3535,2.4077,2.45,2.45,2.45,2.45,2.45,2.4582,2.4629,2.4629,2.4719,2.4794,2.4817,2.4783,2.4877,2.5107,2.6148,2.7505,2.9213,2.9551,2.9701,2.9701,3.0246,3.096,3.1864,3.258,3.3371,3.4258,3.4072,3.4292,3.4808,3.4503,3.4674,3.5209,3.5143,3.5127,3.5127,3.502,3.4927,3.4888,3.4849,3.4769,3.4689,3.4689,3.4668,3.4703,3.4967,3.5715,3.6689,3.7354,3.8275,3.9235,3.9787,4.0026,4.022,4.0992,4.1237,4.1185,4.0725,4.1223,4.1934,4.2489,4.1767,4.1449,4.3069,4.2081,4.1052,4.1503,4.136,4.1191,4.1191,4.0906,4.1105,4.2242,4.1641,4.1304,4.1896,4.1474,4.1072,4.082,4.0844,4.0758,4.0489,4.0545,4.0588,4.0588,4.0588,4.0559,4.0469,4.0469,4.0441,4.0379,4.0328,4.031,4.031,4.031,4.031,4.031,4.031,4.031,4.031,4.031,4.0215,3.996,3.9125,3.9155,3.9664,3.8855,3.8958,3.9647,3.9628,3.9561,3.9489,2.2712,2.3674,2.45,2.45,2.45,2.45,2.45,2.45,2.45,2.45,2.4734,2.4902,2.4902,2.4968,2.5038,2.5082,2.4987,2.5243,2.6062,2.7552,2.8388,2.8388,2.9232,2.9701,2.9701,2.9701,3.0096,3.0903,3.1088,3.1608,3.2425,3.3468,3.3987,3.4025,3.4827,3.519,3.5209,3.5209,3.5209,3.5193,3.5127,3.5092,3.5075,3.4945,3.4908,3.4908,3.4908,3.4869,3.492,3.575,3.6646,3.7564,3.8378,3.9355,4.0291,4.0683,4.0976,4.1226,4.187,4.2656,4.3033,4.1997,4.2321,4.2917,4.2909,4.2899,4.3218,4.429,4.3154,4.228,4.3144,4.26,4.201,4.201,4.2246,4.2431,4.2431,4.265,4.2852,4.2998,4.2996,4.2701,4.1977,4.188,4.1533,4.0665,4.0607,4.0621,4.0621,4.0621,4.0621,4.0607,4.0607,4.0607,4.0588,4.0396,4.031,4.031,4.031,4.031,4.031,4.031,4.031,4.031,4.031,4.031,4.0234,3.9374,3.9527,4.0215,3.9355,3.9395,3.9895,3.9899,3.9731,3.9524,2.2712,2.3674,2.45,2.45,2.45,2.45,2.45,2.45,2.45,2.45,2.4902,2.508,2.487,2.4968,2.5056,2.5038,2.5044,2.54,2.6257,2.774,2.8609,2.8609,2.9304,2.9701,2.9701,2.9701,3.0133,3.1035,3.1142,3.1661,3.2547,3.2336,3.286,3.3968,3.3605,3.4101,3.5209,3.5209,3.5209,3.5209,3.5176,3.5126,3.5111,3.5057,3.4983,3.4984,3.559,3.5798,3.593,3.6825,3.7774,3.8854,4.0304,4.132,4.1972,4.21,4.2176,4.2389,4.3123,4.3426,4.3397,4.2929,4.3428,4.4008,4.4008,4.3606,4.3437,4.4318,4.3651,4.3163,4.3989,4.3933,4.3764,4.3764,4.3983,4.4156,4.4156,4.3937,4.3789,4.3843,4.289,4.214,4.1919,4.1428,4.1235,4.1557,4.2238,4.2369,4.1748,4.2291,4.2307,4.1596,4.1577,4.1268,4.0607,4.0534,4.0457,4.0358,4.0358,4.0344,4.031,4.031,4.031,4.031,4.031,4.031,4.0291,4.0024,4.0081,4.0272,4.0024,4.0024,4.0177,4.0177,4.0158,4.0139,2.323,2.3878,2.4412,2.4482,2.45,2.4582,2.4775,2.4645,2.45,2.45,2.4775,2.4981,2.5,2.5103,2.516,2.5115,2.5757,2.6522,2.7344,2.8569,2.9254,2.9254,2.9639,2.9841,2.9773,2.9773,3.0088,3.0698,3.0776,3.1089,3.1638,3.1541,3.2048,3.3012,3.3146,3.3777,3.4751,3.5057,3.5209,3.5209,3.5209,3.5176,3.5145,3.5145,3.53,3.5589,3.6121,3.6502,3.6901,3.7849,3.881,3.99,4.1289,4.2063,4.2518,4.3063,4.3235,4.3446,4.421,4.4334,4.4197,4.4094,4.4282,4.4515,4.4515,4.412,4.3914,4.4402,4.412,4.3933,4.4421,4.4515,4.4515,4.4551,4.4802,4.4995,4.5065,4.4901,4.4812,4.4861,4.4051,4.3369,4.3079,4.2644,4.2446,4.2582,4.3149,4.3277,4.2733,4.2889,4.2713,4.2097,4.2078,4.1803,4.1241,4.157,4.1318,4.0485,4.0485,4.0457,4.0413,4.0413,4.0396,4.0326,4.0326,4.0326,4.0326,4.0326,4.0362,4.0413,4.0413,4.0411,4.0425,4.0427,4.0427,4.0482,2.4014,2.419,2.4284,2.4532,2.4582,2.4734,2.5233,2.4888,2.4582,2.4582,2.4582,2.4749,2.5222,2.5293,2.5303,2.5303,2.685,2.813,2.8894,2.9691,3.0122,3.0122,3.0122,3.0052,2.9953,2.9921,2.9981,3.0109,3.0177,3.0196,3.0218,3.1033,3.144,3.1575,3.3181,3.3926,3.4044,3.4866,3.5209,3.5209,3.5209,3.5209,3.5209,3.5209,3.5687,3.6413,3.6566,3.7048,3.7774,3.8814,3.9823,4.0791,4.1586,4.1969,4.2375,4.3669,4.4149,4.4393,4.5074,4.5263,4.5243,4.5243,4.4887,4.4551,4.4524,4.4496,4.4515,4.4515,4.4515,4.4515,4.4515,4.4496,4.4578,4.4693,4.4934,4.5161,4.5283,4.5545,4.5761,4.5893,4.5848,4.5537,4.486,4.4792,4.4443,4.3569,4.3646,4.3685,4.3627,4.2928,4.25,4.2422,4.2422,4.2364,4.2189,4.3063,4.2621,4.0847,4.0847,4.0795,4.0723,4.08,4.0684,4.0422,4.0499,4.0499,4.0422,4.0422,4.0485,4.0588,4.0588,4.0602,4.0602,4.0598,4.0617,4.0617,2.4151,2.419,2.4392,2.5012,2.5126,2.5179,2.5274,2.5212,2.5126,2.5126,2.5126,2.5091,2.5006,2.5171,2.5303,2.5303,2.694,2.8319,2.9166,2.9871,3.0259,3.0259,3.0157,3.015,3.0209,3.0103,3.008,3.0109,3.0177,3.0235,3.0279,3.0533,3.0963,3.1629,3.2612,3.3412,3.4044,3.4866,3.5209,3.5209,3.5209,3.5209,3.5209,3.5209,3.5324,3.5649,3.6967,3.7627,3.8089,3.9769,4.1003,4.1862,4.1993,4.2516,4.3291,4.4247,4.457,4.4763,4.5539,4.5629,4.5491,4.5436,4.5244,4.5004,4.477,4.4621,4.4515,4.4515,4.4515,4.4515,4.4515,4.4648,4.4745,4.4843,4.512,4.5361,4.5455,4.5677,4.5866,4.5893,4.5386,4.4985,4.4812,4.4792,4.4443,4.3569,4.4715,4.5181,4.4559,4.4928,4.4889,4.4268,4.4229,4.3569,4.2209,4.3063,4.3244,4.2712,4.2712,4.2325,4.1629,4.2338,4.188,4.0598,4.1292,4.1195,4.0559,4.0559,4.0574,4.0588,4.0588,4.0623,4.0687,4.0674,4.0703,4.0751,2.461,2.4673,2.4804,2.5233,2.5303,2.5303,2.5303,2.5303,2.5303,2.5303,2.5303,2.5243,2.5103,2.5222,2.5514,2.6053,2.7239,2.8502,2.9777,3.022,3.0441,3.0441,3.0375,3.0375,3.0441,3.0375,3.034,3.034,3.0375,3.0386,3.0394,3.0439,3.0659,3.1071,3.2346,3.3102,3.3508,3.4753,3.5258,3.5209,3.5273,3.5258,3.5209,3.5273,3.5519,3.5994,3.6875,3.7824,3.8884,4.0288,4.1385,4.2266,4.2654,4.3059,4.3656,4.494,4.5025,4.4878,4.568,4.5808,4.5718,4.5708,4.5543,4.5323,4.5033,4.4814,4.4629,4.4629,4.4629,4.4621,4.4524,4.477,4.4992,4.4988,4.5304,4.5574,4.5677,4.5841,4.5949,4.5949,4.5606,4.5375,4.5375,4.5375,4.5181,4.4734,4.5491,4.5822,4.5394,4.5414,4.522,4.4812,4.4792,4.4365,4.3452,4.4268,4.4655,4.4583,4.3776,4.3133,4.2679,4.3143,4.2808,4.1899,4.1925,4.1693,4.1229,4.0861,4.0723,4.0787,4.0789,4.0801,4.0839,4.0811,4.0791,4.081,2.5088,2.5191,2.5214,2.5262,2.5293,2.5303,2.5303,2.535,2.5365,2.5365,2.5365,2.5348,2.5293,2.5609,2.6139,2.6958,2.7711,2.8811,3.0414,3.0559,3.0598,3.0598,3.0598,3.0598,3.0598,3.0598,3.0598,3.0598,3.0598,3.0559,3.053,3.053,3.0491,3.0497,3.2246,3.2952,3.2948,3.4677,3.5345,3.527,3.536,3.5345,3.527,3.5364,3.583,3.644,3.6546,3.7855,3.9658,4.0676,4.1554,4.2354,4.3228,4.346,4.3738,4.5332,4.5281,4.489,4.5704,4.5917,4.5905,4.5899,4.5771,4.5594,4.5362,4.5096,4.4868,4.4868,4.4872,4.48,4.4629,4.4969,4.5246,4.5204,4.5505,4.5794,4.5899,4.5953,4.5997,4.5997,4.5997,4.5997,4.5997,4.5997,4.5997,4.5997,4.5997,4.5997,4.5997,4.5375,4.5006,4.5006,4.5006,4.4948,4.4792,4.5589,4.5919,4.5783,4.454,4.386,4.3724,4.386,4.3712,4.3296,4.2734,4.2296,4.1978,4.1334,4.1023,4.0996,4.1,4.1013,4.1019,4.0954,4.0906,4.0855,2.518,2.5191,2.5191,2.5214,2.5271,2.5303,2.5303,2.5498,2.5645,2.5645,2.5645,2.5552,2.5322,2.6856,2.7697,2.721,2.8354,2.9522,3.053,3.0598,3.0598,3.0598,3.0598,3.0598,3.0598,3.0598,3.0598,3.0598,3.0598,3.0607,3.0586,3.0585,3.0548,3.0559,3.231,3.3053,3.308,3.4769,3.5489,3.5457,3.547,3.5489,3.5464,3.5422,3.5507,3.574,3.6363,3.7855,3.9766,4.1431,4.2102,4.2345,4.3238,4.3481,4.3675,4.4665,4.4879,4.4957,4.5759,4.5991,4.596,4.5905,4.5893,4.5848,4.58,4.5454,4.5159,4.5159,4.5163,4.5145,4.5104,4.5342,4.5552,4.5623,4.5808,4.596,4.5975,4.5997,4.5997,4.5997,4.5997,4.5997,4.5997,4.5997,4.5997,4.5997,4.5997,4.5997,4.5997,4.5899,4.5841,4.5841,4.5841,4.5491,4.4812,4.5589,4.5647,4.4967,4.5433,4.5297,4.4656,4.5336,4.487,4.3509,4.415,4.3578,4.216,4.211,4.1669,4.0996,4.1,4.1045,4.1091,4.107,4.1078,4.1055,2.5191,2.5191,2.5191,2.5191,2.5261,2.5339,2.5504,2.5616,2.5707,2.5707,2.5707,2.5651,2.5537,2.7179,2.8267,2.821,2.8912,2.9702,3.0549,3.0598,3.0598,3.0598,3.0598,3.0598,3.0598,3.0598,3.0617,3.0656,3.0617,3.0597,3.0595,3.0593,3.0834,3.1338,3.2635,3.3422,3.3865,3.5093,3.5562,3.5507,3.5574,3.5562,3.5495,3.5546,3.5601,3.5789,3.7135,3.8468,3.9791,4.1053,4.2112,4.2986,4.3374,4.384,4.4384,4.522,4.5142,4.4986,4.5772,4.6005,4.5994,4.596,4.596,4.5949,4.5912,4.5733,4.5558,4.5455,4.5418,4.5399,4.5285,4.5571,4.5808,4.5718,4.5873,4.6005,4.5997,4.5997,4.5997,4.5997,4.5997,4.5997,4.5997,4.5997,4.5997,4.5997,4.5997,4.5997,4.5997,4.5997,4.6027,4.6044,4.6008,4.5861,4.5586,4.5893,4.5893,4.5586,4.5936,4.5893,4.5472,4.5841,4.5589,4.4889,4.4822,4.4093,4.2896,4.2512,4.1838,4.1058,4.1052,4.1066,4.1097,4.1104,4.1108,4.1108]},{"header":{"parameterUnit":"m.s-1","parameterCategory":1,"la1":30.6,"la2":28.766,"lo1":-90.7593,"lo2":-88.6598,"dy":0.0162,"dx":0.0183,"nx":116,"ny":114,"refTime":"2024-04-04T12:00:00:Z","depth":0,"parameterNumber":3,"parameterNumberName":"V-component_of_WINDS"},"data":[0.0,0.0,0.0,0.0,0.0,0.0,0.0,0.0,0.0,0.0,0.0,0.0,0.0,0.0,0.0,0.0,0.0,0.0,0.0,0.0,0.0,0.0,0.0,0.0,0.0,0.0,0.0,0.0,0.0,0.0,0.0,0.0,0.0,0.0,0.0,0.0,0.0,0.0,0.0,0.0,0.0,0.0,0.0,0.0,0.0,0.0,0.0,0.0,0.0,0.0,0.0,0.0,0.0,0.0,0.0,0.0,0.0,0.0,0.0,0.0,0.0,0.0,0.0,0.0,0.0,0.0,0.0,0.0,0.0,0.0,0.0,0.0,0.0,0.0,0.0,0.0,0.0,0.0,0.0,0.0,0.0,0.0,0.0,0.0,0.0,0.0,0.0,0.0,0.0,0.0,0.0,0.0,0.0,0.0,0.0,0.0,0.0,0.0,0.0,0.0,0.0,0.0,0.0,0.0,0.0,0.0,0.0,0.0,0.0,0.0,0.0,0.0,0.0,0.0,0.0,0.0,0.0,0.0,0.0,0.0,0.0,0.0,0.0,0.0,0.0,0.0,0.0,0.0,0.0,0.0,0.0,0.0,0.0,0.0,0.0,0.0,0.0,0.0,0.0,0.0,0.0,0.0,0.0,0.0,0.0,0.0,0.0,0.0,0.0,0.0,0.0,0.0,0.0,0.0,0.0,0.0,0.0,0.0,0.0,0.0,0.0,0.0,0.0,0.0,0.0,0.0,0.0,0.0,0.0,0.0,0.0,0.0,0.0,0.0,0.0,0.0,0.0,0.0,0.0,0.0,0.0,0.0,0.0,0.0,0.0,0.0,0.0,0.0,0.0,0.0,0.0,0.0,0.0,0.0,0.0,0.0,0.0,0.0,0.0,0.0,0.0,0.0,0.0,0.0,0.0,0.0,0.0,0.0,0.0,0.0,0.0,0.0,0.0,0.0,0.0,0.0,0.0,0.0,0.0,0.0,0.0,0.0,0.0,0.0,0.0,0.0,0.0,0.0,0.0,0.0,0.0,0.0,0.0,0.0,0.0,0.0,0.0,0.0,0.0,0.0,0.0,0.0,0.0,0.0,0.0,0.0,0.0,0.0,0.0,0.0,0.0,0.0,0.0,0.0,0.0,0.0,0.0,0.0,0.0,0.0,0.0,0.0,0.0,0.0,0.0,0.0,0.0,0.0,0.0,0.0,0.0,0.0,0.0,0.0,0.0,0.0,0.0,0.0,0.0,0.0,0.0,0.0,0.0,0.0,0.0,0.0,0.0,0.0,0.0,0.0,0.0,0.0,0.0,0.0,0.0,0.0,0.0,0.0,0.0,0.0,0.0,0.0,0.0,0.0,0.0,0.0,0.0,0.0,0.0,0.0,0.0,0.0,0.0,0.0,0.0,0.0,0.0,0.0,0.0,0.0,0.0,0.0,0.0,0.0,0.0,0.0,0.0,0.0,0.0,0.0,0.0,0.0,0.0,0.0,0.0,0.0,0.0,0.0,0.0,0.0,0.0,0.0,0.0,0.0,0.0,0.0,0.0,0.0,0.0,0.0,0.0,0.0,0.0,0.0,0.0,0.0,0.0,0.0,0.0,0.0,0.0,0.0,0.0,0.0,0.0,0.0,0.0,0.0,0.0,0.0,0.0,0.0,0.0,0.0,0.0,0.0,0.0,0.0,0.0,0.0,0.0,0.0,0.0,0.0,0.0,0.0,0.0,0.0,0.0,0.0,0.0,0.0,0.0,0.0,0.0,0.0,0.0,0.0,0.0,0.0,0.0,0.0,0.0,0.0,0.0,0.0,0.0,0.0,0.0,0.0,0.0,0.0,0.0,0.0,0.0,0.0,0.0,0.0,0.0,0.0,0.0,0.0,0.0,0.0,0.0,0.0,0.0,0.0,0.0,0.0,0.0,0.0,0.0,0.0,0.0,0.0,0.0,0.0,0.0,0.0,0.0,0.0,0.0,0.0,0.0,0.0,0.0,0.0,0.0,0.0,0.0,0.0,0.0,0.0,0.0,0.0,0.0,0.0,0.0,0.0,0.0,0.0,0.0,0.0,0.0,0.0,0.0,0.0,0.0,0.0,0.0,0.0,0.0,0.0,0.0,0.0,0.0,0.0,0.0,0.0,0.0,0.0,0.0,0.0,0.0,0.0,0.0,0.0,0.0,0.0,0.0,0.0,0.0,0.0,0.0,0.0,0.0,0.0,0.0,0.0,0.0,0.0,0.0,0.0,0.0,0.0,0.0,0.0,0.0,0.0,0.0,0.0,0.0,0.0,0.0,0.0,0.0,0.0,0.0,0.0,0.0,0.0,0.0,0.0,0.0,0.0,0.0,0.0,0.0,0.0,0.0,0.0,0.0,0.0,0.0,0.0,0.0,0.0,0.0,0.0,0.0,0.0,0.0,0.0,0.0,0.0,0.0,0.0,0.0,0.0,0.0,0.0,0.0,0.0,0.0,0.0,0.0,0.0,0.0,0.0,0.0,0.0,0.0,0.0,0.0,0.0,0.0,0.0,0.0,0.0,0.0,0.0,0.0,0.0,0.0,0.0,0.0,0.0,0.0,0.0,0.0,0.0,0.0,0.0,0.0,0.0,0.0,0.0,0.0,0.0,0.0,0.0,0.0,0.0,0.0,0.0,0.0,0.0,0.0,0.0,0.0,0.0,0.0,0.0,0.0,0.0,0.0,0.0,0.0,0.0,0.0,0.0,0.0,0.0,0.0,0.0,0.0,0.0,0.0,0.0,0.0,0.0,0.0,0.0,0.0,0.0,0.0,0.0,0.0,0.0,0.0,0.0,0.0,0.0,0.0,0.0,0.0,0.0,0.0,0.0,0.0,0.0,0.0,0.0,0.0,0.0,0.0,0.0,0.0,0.0,0.0,0.0,0.0,0.0,0.0,0.0,0.0,0.0,0.0,0.0,0.0,0.0,0.0,0.0,0.0,0.0,0.0,0.0,0.0,0.0,0.0,0.0,0.0,0.0,0.0,0.0,0.0,0.0,0.0,0.0,0.0,0.0,0.0,0.0,0.0,0.0,0.0,0.0,0.0,0.0,0.0,0.0,0.0,0.0,0.0,0.0,0.0,0.0,0.0,0.0,0.0,0.0,0.0,0.0,0.0,0.0,0.0,0.0,0.0,0.0,0.0,0.0,0.0,0.0,0.0,0.0,0.0,0.0,0.0,0.0,0.0,0.0,0.0,0.0,0.0,0.0,0.0,0.0,0.0,0.0,0.0,0.0,0.0,0.0,0.0,0.0,0.0,0.0,0.0,0.0,0.0,0.0,0.0,0.0,0.0,0.0,0.0,0.0,0.0,0.0,0.0,0.0,0.0,0.0,0.0,0.0,0.0,0.0,0.0,0.0,0.0,0.0,0.0,0.0,0.0,0.0,0.0,0.0,0.0,0.0,0.0,0.0,0.0,0.0,0.0,0.0,0.0,0.0,0.0,0.0,0.0,0.0,0.0,0.0,0.0,0.0,0.0,0.0,0.0,0.0,0.0,0.0,0.0,0.0,0.0,0.0,0.0,0.0,0.0,0.0,0.0,0.0,0.0,0.0,0.0,0.0,0.0,0.0,0.0,0.0,0.0,0.0,0.0,0.0,0.0,0.0,0.0,0.0,0.0,0.0,0.0,0.0,0.0,0.0,0.0,0.0,0.0,0.0,0.0,0.0,0.0,0.0,0.0,0.0,0.0,0.0,0.0,0.0,0.0,0.0,0.0,0.0,0.0,0.0,0.0,0.0,0.0,0.0,0.0,0.0,0.0,0.0,0.0,0.0,0.0,0.0,0.0,0.0,0.0,0.0,0.0,0.0,0.0,0.0,0.0,0.0,0.0,0.0,0.0,0.0,0.0,0.0,0.0,0.0,0.0,0.0,0.0,0.0,0.0,0.0,0.0,0.0,0.0,0.0,0.0,0.0,0.0,0.0,0.0,0.0,0.0,0.0,0.0,0.0,0.0,0.0,0.0,0.0,0.0,0.0,0.0,0.0,0.0,0.0,0.0,0.0,0.0,0.0,0.0,0.0,0.0,0.0,0.0,0.0,0.0,0.0,0.0,0.0,0.0,0.0,0.0,0.0,0.0,0.0,0.0,0.0,0.0,0.0,0.0,0.0,0.0,0.0,0.0,0.0,0.0,0.0,0.0,0.0,0.0,0.0,0.0,0.0,0.0,0.0,0.0,0.0,0.0,0.0,0.0,0.0,0.0,0.0,0.0,0.0,0.0,0.0,0.0,0.0,0.0,0.0,0.0,0.0,0.0,0.0,0.0,0.0,0.0,0.0,0.0,0.0,0.0,0.0,0.0,0.0,0.0,0.0,0.0,0.0,0.0,0.0,0.0,0.0,0.0,0.0,0.0,0.0,0.0,0.0,0.0,0.0,0.0,0.0,0.0,0.0,0.0,0.0,0.0,0.0,0.0,0.0,0.0,0.0,0.0,0.0,0.0,0.0,0.0,0.0,0.0,0.0,0.0,0.0,0.0,0.0,0.0,0.0,0.0,0.0,0.0,0.0,0.0,0.0,0.0,0.0,0.0,0.0,0.0,0.0,0.0,0.0,0.0,0.0,0.0,0.0,0.0,0.0,0.0,0.0,0.0,0.0,0.0,0.0,0.0,0.0,0.0,0.0,0.0,0.0,0.0,0.0,0.0,0.0,0.0,0.0,0.0,0.0,0.0,0.0,0.0,0.0,0.0,0.0,0.0,0.0,0.0,0.0,0.0,0.0,0.0,0.0,0.0,0.0,0.0,0.0,0.0,0.0,0.0,0.0,0.0,0.0,0.0,0.0,0.0,0.0,0.0,0.0,0.0,0.0,0.0,0.0,0.0,0.0,0.0,0.0,0.0,0.0,0.0,0.0,0.0,0.0,0.0,0.0,0.0,0.0,0.0,0.0,0.0,0.0,0.0,0.0,0.0,0.0,0.0,0.0,0.0,0.0,0.0,0.0,0.0,0.0,0.0,0.0,0.0,0.0,0.0,0.0,0.0,0.0,0.0,0.0,0.0,0.0,0.0,0.0,0.0,0.0,0.0,0.0,0.0,0.0,0.0,0.0,0.0,0.0,0.0,0.0,0.0,0.0,0.0,0.0,0.0,0.0,0.0,0.0,0.0,0.0,0.0,0.0,0.0,0.0,0.0,0.0,0.0,0.0,0.0,0.0,0.0,0.0,0.0,0.0,0.0,0.0,0.0,0.0,0.0,0.0,0.0,0.0,0.0,0.0,0.0,0.0,0.0,0.0,0.0,0.0,0.0,0.0,0.0,0.0,0.0,0.0,0.0,0.0,0.0,0.0,0.0,0.0,0.0,0.0,0.0,0.0,0.0,0.0,0.0,0.0,0.0,0.0,0.0,0.0,0.0,0.0,0.0,0.0,0.0,0.0,0.0,0.0,0.0,0.0,0.0,0.0,0.0,0.0,0.0,0.0,0.0,0.0,0.0,0.0,0.0,0.0,0.0,0.0,0.0,0.0,0.0,0.0,0.0,0.0,0.0,0.0,0.0,0.0,0.0,0.0,0.0,0.0,0.0,0.0,0.0,0.0,0.0,0.0,0.0,0.0,0.0,0.0,0.0,0.0,0.0,0.0,0.0,0.0,0.0,0.0,0.0,0.0,0.0,0.0,0.0,0.0,0.0,0.0,0.0,0.0,0.0,0.0,0.0,0.0,0.0,0.0,0.0,0.0,0.0,0.0,0.0,0.0,0.0,0.0,0.0,0.0,0.0,0.0,0.0,0.0,0.0,0.0,0.0,0.0,0.0,0.0,0.0,0.0,0.0,0.0,0.0,0.0,0.0,0.0,0.0,0.0,0.0,0.0,0.0,0.0,0.0,0.0,0.0,0.0,0.0,0.0,0.0,0.0,0.0,0.0,0.0,0.0,0.0,0.0,0.0,0.0,0.0,0.0,0.0,0.0,0.0,0.0,0.0,0.0,0.0,0.0,0.0,0.0,0.0,0.0,0.0,0.0,0.0,0.0,0.0,0.0,0.0,0.0,0.0,0.0,0.0,0.0,0.0,0.0,0.0,0.0,0.0,0.0,0.0,0.0,0.0,0.0,0.0,0.0,0.0,0.0,0.0,0.0,0.0,0.0,0.0,0.0,0.0,0.0,2.4066,0.0,0.0,0.0,0.0,0.0,0.0,0.0,0.0,0.0,0.0,0.0,0.0,0.0,0.0,0.0,0.0,0.0,0.0,0.0,0.0,0.0,0.0,0.0,0.0,2.4823,2.5139,2.5645,2.6093,2.6069,2.5443,0.0,0.0,0.0,0.0,0.0,2.8376,2.9092,2.9709,3.0162,3.0976,3.1495,3.1731,3.2921,3.349,3.3542,0.0,0.0,0.0,0.0,0.0,0.0,0.0,0.0,0.0,0.0,0.0,0.0,0.0,0.0,0.0,0.0,0.0,0.0,0.0,0.0,0.0,0.0,0.0,0.0,0.0,0.0,0.0,0.0,0.0,0.0,0.0,0.0,0.0,0.0,0.0,0.0,0.0,0.0,0.0,0.0,0.0,0.0,0.0,0.0,0.0,0.0,0.0,0.0,0.0,0.0,0.0,0.0,0.0,0.0,0.0,0.0,0.0,0.0,0.0,0.0,0.0,0.0,0.0,0.0,0.0,0.0,0.0,0.0,0.0,0.0,0.0,2.5846,0.0,0.0,0.0,0.0,0.0,0.0,0.0,0.0,0.0,0.0,0.0,0.0,0.0,0.0,0.0,0.0,0.0,0.0,0.0,0.0,0.0,2.482,2.5369,2.563,2.6056,2.6713,2.7543,2.7496,2.6224,2.8026,2.8631,2.7416,2.8933,2.9848,2.9922,3.1073,3.1793,3.2108,3.2351,3.3301,3.4869,3.4869,3.4594,0.0,0.0,0.0,0.0,0.0,0.0,0.0,0.0,0.0,0.0,0.0,0.0,0.0,0.0,0.0,0.0,0.0,0.0,0.0,0.0,0.0,0.0,0.0,0.0,0.0,0.0,0.0,0.0,0.0,0.0,0.0,0.0,0.0,0.0,0.0,0.0,0.0,0.0,0.0,0.0,0.0,0.0,0.0,0.0,0.0,0.0,0.0,0.0,0.0,0.0,0.0,0.0,0.0,0.0,0.0,0.0,0.0,0.0,0.0,0.0,0.0,0.0,0.0,0.0,0.0,0.0,3.4023,3.3882,3.4575,3.456,3.3867,3.0899,2.8732,2.7254,0.0,0.0,0.0,0.0,0.0,0.0,0.0,0.0,0.0,0.0,0.0,0.0,0.0,0.0,0.0,0.0,0.0,0.0,0.0,0.0,2.5486,2.556,2.7322,2.8411,2.8232,2.9186,2.9575,2.917,2.98,3.0388,3.0814,3.1733,3.2311,3.2509,3.3125,3.3018,3.2108,3.328,3.5272,3.7991,3.7991,0.0,0.0,0.0,0.0,0.0,0.0,0.0,0.0,0.0,0.0,0.0,0.0,0.0,0.0,0.0,0.0,0.0,0.0,0.0,0.0,0.0,0.0,0.0,0.0,0.0,0.0,0.0,0.0,0.0,0.0,0.0,0.0,0.0,0.0,0.0,0.0,0.0,0.0,0.0,0.0,0.0,0.0,0.0,0.0,0.0,0.0,2.7519,2.8196,0.0,0.0,0.0,0.0,0.0,0.0,0.0,0.0,0.0,0.0,0.0,0.0,0.0,0.0,3.4675,3.543,3.5861,3.5968,3.723,3.723,3.6122,3.7336,3.7536,3.6938,3.6429,0.0,3.1365,3.0952,0.0,0.0,0.0,0.0,0.0,0.0,0.0,0.0,0.0,0.0,0.0,0.0,0.0,0.0,0.0,0.0,0.0,0.0,0.0,0.0,0.0,2.8476,2.9132,2.8881,3.1589,3.2092,2.9212,3.2219,3.3374,3.1737,3.3114,3.3935,3.3942,3.3892,3.39,3.4022,3.616,3.7922,3.9215,0.0,0.0,0.0,0.0,0.0,0.0,0.0,0.0,0.0,0.0,0.0,0.0,0.0,0.0,0.0,0.0,0.0,0.0,0.0,0.0,0.0,0.0,0.0,0.0,0.0,0.0,0.0,0.0,0.0,0.0,0.0,0.0,0.0,0.0,0.0,0.0,0.0,0.0,0.0,0.0,0.0,0.0,0.0,0.0,0.0,0.0,2.8827,2.9904,2.9073,3.0489,3.1259,0.0,0.0,0.0,0.0,0.0,0.0,0.0,0.0,0.0,3.4675,3.5722,3.6753,3.7738,3.8816,3.9554,3.9939,4.0893,4.1247,4.1063,4.1648,4.1755,4.1463,4.1078,3.9647,3.721,3.4235,3.2155,3.0746,0.0,0.0,0.0,0.0,0.0,2.8426,0.0,0.0,0.0,0.0,0.0,0.0,0.0,0.0,0.0,0.0,0.0,0.0,2.9507,3.0412,3.1016,3.1452,3.4401,3.4873,3.161,3.4655,3.5523,3.3175,3.4544,3.5145,3.4707,3.4694,3.5488,3.7103,3.9581,4.0984,0.0,0.0,0.0,0.0,0.0,0.0,0.0,0.0,0.0,0.0,0.0,0.0,0.0,0.0,0.0,0.0,0.0,0.0,0.0,0.0,0.0,0.0,0.0,0.0,0.0,0.0,0.0,0.0,0.0,0.0,0.0,0.0,0.0,0.0,0.0,0.0,0.0,0.0,0.0,0.0,0.0,0.0,0.0,0.0,0.0,0.0,0.0,3.0458,3.152,2.9874,3.1751,3.2782,0.0,0.0,0.0,0.0,0.0,0.0,3.4214,3.6014,3.7353,3.8031,3.9354,4.0478,4.1324,4.2355,4.3217,4.3895,4.4202,4.4603,4.5095,4.5095,4.5095,4.5049,4.4372,4.3525,4.2263,3.7548,3.4788,3.3472,3.2684,3.1792,3.0959,3.1302,3.159,3.1863,0.0,0.0,0.0,0.0,0.0,0.0,0.0,0.0,0.0,0.0,0.0,2.8344,3.2255,3.3965,3.5661,3.7752,3.7607,3.7924,3.914,3.6878,3.5773,3.6426,3.6556,3.6011,3.4725,3.6043,3.8315,0.0,0.0,0.0,0.0,0.0,0.0,0.0,0.0,0.0,0.0,0.0,0.0,0.0,0.0,0.0,0.0,0.0,0.0,0.0,0.0,0.0,0.0,0.0,0.0,0.0,0.0,0.0,0.0,0.0,0.0,0.0,0.0,0.0,0.0,0.0,0.0,0.0,0.0,0.0,0.0,0.0,0.0,0.0,0.0,0.0,0.0,0.0,0.0,0.0,0.0,0.0,0.0,3.0458,3.3306,0.0,0.0,0.0,0.0,3.6138,3.7446,3.8477,3.9123,4.0509,4.1601,4.2279,4.3587,4.491,4.6219,4.6311,4.668,4.7342,4.6742,4.6465,4.6496,4.6496,4.6496,4.6449,4.5772,4.5449,4.5064,4.0955,3.8462,3.7184,3.6335,3.5982,3.5875,3.5033,3.5169,3.5531,0.0,0.0,0.0,0.0,0.0,2.4447,2.45,2.4946,2.5856,2.7474,2.8626,3.0728,3.4549,3.6321,3.7875,3.9543,4.0799,4.1013,3.9855,3.919,3.8645,3.8265,3.8228,3.8413,3.8761,4.038,4.2073,0.0,0.0,0.0,0.0,0.0,0.0,0.0,0.0,0.0,0.0,0.0,0.0,0.0,0.0,0.0,0.0,0.0,0.0,0.0,0.0,0.0,0.0,0.0,0.0,0.0,0.0,0.0,0.0,0.0,0.0,0.0,0.0,0.0,0.0,0.0,0.0,0.0,0.0,0.0,0.0,0.0,0.0,0.0,0.0,0.0,0.0,0.0,0.0,0.0,0.0,0.0,0.0,3.5599,3.8262,0.0,0.0,3.8292,3.9016,3.9724,4.1016,4.2063,4.274,4.5048,4.6351,4.6586,4.8533,4.9716,5.0242,5.0242,5.0292,5.0531,4.983,4.948,4.948,4.948,4.9187,4.8702,4.7997,4.7388,4.6742,4.4849,4.2525,4.0031,3.8826,3.8119,3.7751,3.7855,3.8019,3.8233,0.0,0.0,0.0,0.0,2.4465,2.4447,2.45,2.5187,2.6284,2.7881,3.0018,3.295,3.7032,3.9663,4.1934,4.387,4.44,4.4035,4.258,4.1029,3.9982,3.9565,3.9731,4.0572,4.2145,4.4005,4.573,4.728,0.0,0.0,0.0,0.0,0.0,0.0,0.0,0.0,0.0,0.0,0.0,0.0,0.0,0.0,4.0595,0.0,0.0,0.0,0.0,0.0,0.0,0.0,0.0,0.0,0.0,0.0,0.0,0.0,0.0,0.0,0.0,0.0,0.0,0.0,0.0,0.0,0.0,0.0,0.0,0.0,0.0,0.0,0.0,0.0,0.0,0.0,0.0,0.0,0.0,0.0,3.8862,3.9785,4.1894,4.291,4.1986,4.2109,4.2525,4.3233,4.4812,4.6019,4.6703,4.9045,5.0368,5.029,5.2065,5.2912,5.2929,5.2929,5.2929,5.2929,5.2199,5.1858,5.1858,5.1569,5.0975,5.02,4.9409,4.8696,4.7896,4.7219,4.5634,4.3464,4.1863,4.0816,4.0247,4.0478,4.057,4.0516,0.0,0.0,0.0,2.4462,2.4481,2.45,2.45,2.5187,2.6303,2.7938,3.1002,3.4934,3.9785,4.4016,4.7816,5.0991,4.8336,4.6791,4.7608,4.2296,3.951,4.0457,4.1046,4.2408,4.4693,4.6819,4.9268,5.1977,0.0,0.0,0.0,0.0,0.0,0.0,0.0,0.0,0.0,0.0,0.0,0.0,0.0,0.0,4.3128,0.0,0.0,0.0,0.0,0.0,0.0,0.0,0.0,0.0,0.0,0.0,0.0,0.0,0.0,0.0,0.0,0.0,0.0,0.0,0.0,0.0,0.0,0.0,0.0,0.0,0.0,0.0,0.0,0.0,0.0,0.0,0.0,0.0,3.5676,3.8554,4.1186,4.2648,4.3987,4.4879,4.4894,4.5496,4.608,4.6837,4.889,5.0422,5.1102,5.2602,5.3428,5.338,5.4062,5.4419,5.4403,5.4403,5.4403,5.4386,5.3688,5.3347,5.3347,5.2428,5.1656,5.0927,5.0071,4.9266,4.8558,4.7912,4.7635,4.7434,4.5403,4.4202,4.3556,4.291,4.2663,4.254,0.0,0.0,2.3572,2.3572,2.4074,2.45,2.45,2.5187,2.6507,2.8756,3.2418,3.6891,4.2359,4.5621,4.8686,5.1937,4.8184,4.5974,4.6773,4.198,4.0271,4.289,4.4114,4.6537,5.0287,5.194,5.3801,5.5936,5.6358,0.0,0.0,0.0,0.0,0.0,0.0,0.0,0.0,0.0,0.0,0.0,0.0,0.0,4.4527,0.0,0.0,0.0,0.0,0.0,0.0,0.0,0.0,0.0,0.0,0.0,0.0,0.0,0.0,0.0,0.0,0.0,0.0,0.0,0.0,0.0,0.0,0.0,0.0,0.0,0.0,0.0,0.0,0.0,0.0,0.0,0.0,3.9908,3.9908,4.1971,4.4812,4.8341,4.9392,5.0471,5.2285,5.1424,5.1577,5.3613,5.3728,5.403,5.4856,5.5941,5.5973,5.4936,5.6237,5.6687,5.6094,5.6077,5.6077,5.6077,5.5342,5.4699,5.4053,5.3825,5.2741,5.0911,5.0684,4.9801,4.8604,4.8419,4.8343,4.8142,4.6095,4.5187,4.4957,4.4279,4.3725,4.3217,0.0,2.2562,2.3117,2.3117,2.3872,2.45,2.45,2.5187,2.647,2.8589,3.3305,3.8284,4.2983,4.694,5.0023,5.1936,4.8853,4.642,4.5509,4.2742,4.2314,4.4934,4.7453,5.0472,5.4073,5.5625,5.7256,5.9051,5.9051,5.9534,0.0,0.0,0.0,0.0,0.0,0.0,0.0,0.0,0.0,0.0,0.0,0.0,4.7941,4.4906,4.4199,4.4665,4.3285,4.2647,4.225,4.0716,0.0,0.0,0.0,0.0,0.0,0.0,0.0,0.0,0.0,0.0,0.0,0.0,0.0,0.0,0.0,0.0,0.0,0.0,0.0,0.0,0.0,0.0,0.0,0.0,4.1372,4.4033,4.5316,4.6206,4.8348,5.2649,5.2807,5.3668,5.6559,5.5138,5.4876,5.677,5.6718,5.6756,5.6939,5.7752,5.7733,5.6562,5.7409,5.7679,5.7256,5.7256,5.7256,5.7256,5.6833,5.6381,5.582,5.5505,5.4256,0.0,5.1627,5.0485,4.9035,4.8743,4.862,0.0,0.0,0.0,0.0,0.0,4.4326,4.3895,0.0,2.2167,2.2737,2.2737,2.3634,2.4351,2.4351,2.5132,2.6284,2.7881,3.3733,3.8934,4.2054,4.7367,5.0822,5.1082,4.9336,4.7014,4.4191,4.4098,4.5064,4.7107,5.1026,5.4314,5.6803,5.8438,5.998,6.1484,6.1484,6.1484,0.0,0.0,0.0,0.0,0.0,0.0,0.0,0.0,0.0,0.0,0.0,0.0,5.2149,4.9217,4.8459,4.8665,4.6475,4.4872,4.3544,4.1836,0.0,0.0,0.0,0.0,0.0,0.0,0.0,0.0,0.0,0.0,0.0,0.0,0.0,0.0,0.0,0.0,0.0,0.0,0.0,0.0,0.0,0.0,0.0,0.0,4.5001,4.8166,5.1167,5.1194,5.2246,5.5978,5.5176,5.5543,5.8775,5.7547,5.6901,5.7997,5.8609,5.8664,5.7997,0.0,0.0,0.0,0.0,5.7881,5.7881,5.7881,5.7881,5.7881,5.7881,5.7881,5.7718,5.6844,5.5608,5.4098,5.2536,5.1049,4.9681,4.8881,4.862,4.8543,4.7865,4.7142,4.6326,4.5126,4.4633,0.0,0.0,2.0446,2.1062,2.1062,2.2395,2.3444,2.3444,2.4724,2.6284,2.7881,3.325,3.7671,3.9602,4.3801,4.7256,4.9206,4.6067,4.3986,4.4005,4.4655,4.6958,5.1231,5.4723,5.7713,6.0202,6.1837,6.2822,6.3156,6.3156,6.3156,0.0,0.0,0.0,0.0,0.0,0.0,0.0,0.0,0.0,0.0,0.0,0.0,5.3804,5.1373,5.0166,4.9562,4.7872,4.7458,4.7303,4.4544,4.4268,4.4509,4.1423,0.0,0.0,0.0,0.0,0.0,0.0,0.0,0.0,0.0,0.0,0.0,0.0,0.0,0.0,0.0,0.0,0.0,0.0,0.0,0.0,4.6145,4.9557,5.2634,5.5118,5.7064,5.8309,5.8525,5.8128,5.8916,6.1631,6.0121,5.9614,6.1337,6.0351,5.9685,5.9667,5.9244,0.0,5.7898,5.7881,5.7881,5.7881,5.7881,5.7881,5.7881,0.0,0.0,5.6844,5.5955,5.4776,5.3323,5.1701,5.0549,4.9754,4.8996,4.862,4.8543,4.7865,4.6865,4.5757,4.548,4.5049,4.4556,0.0,1.9788,2.042,2.0505,2.1944,2.3117,2.3186,2.4612,2.6284,2.7881,3.2024,3.5776,3.8228,4.1089,4.3318,4.4544,4.2779,4.2463,0.0,4.6568,4.9726,5.4258,5.6803,5.9459,6.2339,6.3193,6.401,6.4865,6.4865,6.4865,6.4865,0.0,0.0,0.0,0.0,0.0,0.0,0.0,0.0,0.0,0.0,0.0,5.7084,5.4739,5.342,5.2615,5.1097,5.0304,4.9614,4.732,4.632,4.5544,4.2871,4.1233,4.0169,0.0,0.0,0.0,0.0,0.0,0.0,0.0,0.0,0.0,0.0,0.0,0.0,0.0,0.0,3.9231,4.147,0.0,4.6795,4.9854,5.2574,5.5001,5.714,5.9122,6.0161,5.9635,5.9894,6.0754,6.2364,6.1317,6.097,6.2302,6.1261,6.0427,6.0148,5.9404,5.866,5.7898,5.7881,5.7881,5.7881,5.7881,5.7881,5.7881,5.748,5.7256,5.7239,5.6364,5.5382,5.4273,5.3004,5.167,5.0278,4.9073,4.862,4.8573,4.8235,4.7496,4.6557,4.6219,4.588,4.5588,0.0,1.9594,2.0046,2.015,2.1637,2.2825,2.2912,2.4502,2.6228,2.7697,3.0724,3.3714,3.6203,3.8098,3.9324,3.964,4.0401,4.2389,0.0,4.8964,5.2587,5.7063,5.8642,6.0815,6.3788,6.3843,6.4586,6.6109,6.6258,6.6258,6.6109,0.0,0.0,0.0,0.0,0.0,0.0,0.0,0.0,0.0,0.0,0.0,6.0385,5.8279,5.6878,5.5822,5.4046,5.2321,5.0649,4.8959,4.6975,4.4992,4.3768,4.2733,4.1788,4.0707,4.0182,0.0,0.0,0.0,0.0,0.0,0.0,0.0,0.0,0.0,3.7438,3.971,4.1197,4.3024,4.605,4.8242,5.0473,5.3041,5.5157,5.698,5.8387,6.0112,6.0985,6.0315,6.1118,6.19,6.2493,6.19,6.182,6.2381,6.1569,6.0791,6.0131,5.9268,5.8507,5.7898,5.7881,5.7881,5.7881,5.7881,5.7881,5.7881,5.7181,5.7164,5.7645,5.6787,5.6001,5.5213,5.4134,5.2429,5.0351,4.9068,4.862,4.862,4.862,4.8281,4.7711,4.7034,4.6711,4.6603,0.0,1.9321,1.9314,1.933,2.086,2.2078,2.1961,2.4078,2.6024,2.6935,2.9888,3.1782,3.1452,3.3491,3.5479,3.6965,4.0438,0.0,4.9262,5.1286,5.4816,6.0407,6.1521,6.284,6.4642,6.4679,6.5144,6.6109,6.6834,6.6815,6.6128,0.0,0.0,0.0,0.0,0.0,0.0,0.0,0.0,0.0,0.0,0.0,6.1949,6.0827,5.9254,5.7271,5.4425,5.1994,4.9804,4.7596,4.5768,4.4371,4.4199,4.3164,4.1836,4.1047,0.0,3.87,3.8261,3.7032,0.0,3.7291,3.6861,3.6922,0.0,0.0,4.1245,4.3711,4.4818,4.6223,4.8949,5.0969,5.295,5.5452,5.8106,5.982,5.9724,6.2329,6.336,6.1143,6.218,6.3068,6.2923,6.2693,6.2537,6.2398,6.1044,6.0199,6.0097,5.8778,5.7983,5.7881,5.7881,5.7881,5.7881,5.7881,5.7881,5.7881,5.7808,5.7406,5.6751,5.5935,5.5239,5.4419,5.2356,5.0483,4.8877,4.865,4.862,4.862,4.862,4.8558,4.8419,4.7742,4.7111,4.6603,0.0,0.0,1.9375,1.9235,2.0296,2.133,2.1742,2.3615,2.5466,2.673,2.8494,2.9888,3.0541,3.1912,3.3268,3.4439,3.8284,0.0,4.8351,5.1584,5.567,6.0964,6.1521,6.245,6.4085,6.4568,6.5236,6.6109,6.7373,6.7595,6.6834,6.7633,0.0,0.0,0.0,0.0,0.0,0.0,0.0,0.0,0.0,0.0,6.1311,5.9725,5.7448,5.4983,5.4129,5.2666,0.0,0.0,4.6527,4.5475,4.4561,4.3544,4.2526,4.175,4.0767,0.0,3.844,0.0,0.0,0.0,3.991,4.1061,4.4214,4.4863,4.5626,4.8394,4.9822,5.1482,5.4245,5.5325,5.6539,0.0,5.9399,5.9869,6.0613,6.108,6.0976,5.9942,6.0104,6.0529,6.1113,6.1518,6.1459,6.0907,6.0231,5.9769,5.9621,5.862,5.8044,5.7881,5.7881,5.7645,5.7164,5.7645,5.7645,5.7164,5.7164,5.6937,5.6597,5.5374,5.417,5.2891,5.1163,4.9946,4.9204,4.8789,4.862,4.862,4.862,4.862,4.8573,4.8296,4.8004,4.7773,0.0,0.0,0.0,1.9251,1.9774,2.0556,2.1531,2.3048,2.467,2.6283,2.7231,2.8422,3.0095,3.1005,3.1689,3.2284,3.6073,0.0,0.0,5.0506,5.5187,6.0611,6.1076,6.206,6.3899,6.4512,6.5236,6.6109,6.7503,6.7874,6.7335,6.8134,0.0,0.0,0.0,0.0,0.0,0.0,0.0,0.0,0.0,0.0,6.0295,5.7887,5.5179,5.2608,5.2582,5.1255,0.0,0.0,4.582,4.4906,4.4199,4.3646,4.3059,4.2216,4.1457,4.0634,3.9521,0.0,0.0,4.2112,4.3266,4.5151,4.813,4.8955,4.9833,5.2521,5.3931,5.5299,5.7454,5.7984,5.8641,6.015,5.9789,5.972,6.084,5.9701,5.8806,5.8737,5.7585,5.7137,5.8051,5.9525,6.0251,5.9852,5.9661,5.9562,5.94,5.8596,5.8116,5.7971,5.7954,5.748,5.6614,5.7256,5.7089,5.6208,5.6208,5.6129,5.5843,5.4277,5.2845,5.1322,5.0311,4.9703,4.9358,4.8835,4.862,4.862,4.862,4.862,4.862,4.862,4.862,4.862,0.0,0.0,0.0,0.0,1.9219,1.9734,2.1187,2.2337,2.3621,2.5223,2.632,2.7585,2.9258,3.015,3.0652,3.0671,3.4401,3.8859,4.3782,4.7943,5.3125,5.9664,6.076,6.232,6.4716,6.4809,6.5236,6.6109,6.6945,6.7335,6.7335,6.8134,0.0,0.0,0.0,0.0,0.0,0.0,0.0,0.0,0.0,0.0,5.9316,5.6103,5.3421,5.1085,4.9263,0.0,0.0,0.0,4.2302,4.1319,4.28,4.3249,0.0,4.2216,4.1457,4.1026,0.0,0.0,4.3061,4.5205,4.6583,4.8231,5.1127,5.2303,5.3461,5.5638,5.6067,5.6337,5.6891,5.7644,5.8041,5.8048,5.9219,6.0168,6.022,5.911,5.8183,5.7962,5.5145,5.3444,0.0,5.7128,5.9285,5.9725,5.9661,5.9635,5.9617,5.8685,5.8188,5.8188,5.8027,5.748,5.6614,5.6614,5.6208,5.5296,5.5296,5.4886,5.4014,5.2586,5.1227,4.9931,4.9884,4.9421,4.8635,4.862,4.862,4.862,4.862,4.862,4.862,4.862,4.862,4.862,0.0,0.0,0.0,0.0,0.0,1.9379,2.0332,2.137,2.2868,2.5111,2.6726,0.0,0.0,0.0,0.0,0.0,3.3305,3.6909,4.1311,4.5937,5.0469,5.4871,5.7955,6.0184,6.154,6.3175,6.4159,6.4456,6.5831,6.6221,6.5682,6.6518,0.0,0.0,0.0,0.0,0.0,0.0,0.0,0.0,0.0,0.0,5.7525,5.3658,4.9742,4.6098,0.0,0.0,0.0,0.0,3.9698,4.0008,3.9543,0.0,0.0,4.1336,4.1802,4.2457,4.2748,0.0,4.7172,4.8884,5.078,5.286,5.5294,5.6064,5.6474,5.7175,5.6526,5.5893,5.6027,5.5492,5.5644,5.7549,5.7926,5.8288,5.9271,5.8253,5.6643,5.4661,5.3648,0.0,0.0,0.0,0.0,5.6701,5.713,5.7656,5.8472,5.7465,5.7089,5.7314,5.6581,5.578,5.4886,5.5458,5.5296,5.4385,5.4007,5.3394,5.2618,5.1137,4.99,4.9,4.9,4.8852,4.862,4.862,4.862,4.862,4.862,4.862,4.862,4.862,4.862,4.862,0.0,0.0,0.0,0.0,0.0,0.0,0.0,0.0,0.0,0.0,0.0,0.0,0.0,0.0,0.0,0.0,0.0,0.0,0.0,0.0,4.6085,4.9373,5.2902,5.515,5.5967,5.7546,5.8642,5.9255,6.0611,6.1447,6.1781,6.2636,6.3193,0.0,0.0,0.0,0.0,0.0,0.0,0.0,0.0,0.0,5.3684,4.9689,4.5947,0.0,0.0,0.0,0.0,0.0,0.0,3.9526,3.8577,3.9474,4.094,4.1198,4.2561,4.4096,4.4647,4.7562,5.0821,5.2339,5.4236,5.6167,5.7909,5.7892,5.7426,5.715,5.565,5.4322,5.4063,5.2787,5.2605,5.5214,5.496,5.5286,5.7586,5.6146,5.4479,5.3513,5.232,5.1474,0.0,0.0,0.0,5.51,5.6104,5.6902,5.7611,5.6954,5.6553,5.6691,5.5971,5.5067,5.3992,5.4569,5.4401,5.3505,5.3067,5.2448,5.1471,5.0476,4.9528,4.862,4.862,4.862,4.862,4.862,4.862,4.862,4.862,4.862,4.862,4.862,4.862,4.862,0.0,0.0,0.0,0.0,0.0,0.0,0.0,0.0,0.0,0.0,0.0,0.0,0.0,0.0,0.0,0.0,0.0,0.0,0.0,0.0,0.0,4.3485,4.6085,4.785,4.8704,4.8797,4.9652,5.1268,5.2048,5.3627,5.5949,5.671,5.7472,0.0,0.0,0.0,0.0,0.0,0.0,0.0,0.0,0.0,4.8144,4.4509,0.0,0.0,0.0,0.0,0.0,0.0,0.0,0.0,3.9664,4.0215,4.0991,4.1888,4.3802,4.5941,4.751,5.07,5.3925,5.5374,5.6857,5.8133,5.8754,5.7771,5.6477,5.5529,5.3546,5.1718,0.0,0.0,4.9251,5.1037,5.0873,5.1728,5.54,5.3305,5.2154,0.0,0.0,0.0,0.0,0.0,0.0,5.5007,0.0,5.7064,5.7131,5.6954,5.6741,5.6319,5.6004,5.5263,5.3992,5.3907,5.3505,5.2713,5.2683,5.1959,5.0697,5.0651,4.9897,4.862,4.862,4.862,4.862,4.862,4.862,4.862,4.862,4.862,4.862,4.862,4.862,4.862,0.0,0.0,0.0,0.0,0.0,0.0,0.0,0.0,0.0,0.0,0.0,0.0,0.0,0.0,0.0,0.0,0.0,0.0,0.0,0.0,0.0,0.0,0.0,0.0,0.0,0.0,0.0,0.0,0.0,5.0172,5.0785,5.1008,5.1212,0.0,0.0,0.0,0.0,0.0,0.0,0.0,0.0,0.0,4.6232,0.0,0.0,0.0,0.0,0.0,0.0,0.0,0.0,0.0,3.9163,3.9836,4.0595,4.3647,4.6165,4.8407,5.0493,5.3442,5.6167,5.7081,5.803,5.8495,5.7581,5.6615,5.5063,5.2063,5.0062,4.8114,0.0,0.0,0.0,4.8651,5.1099,0.0,5.503,5.5481,0.0,5.3695,0.0,5.275,5.1961,5.2734,0.0,0.0,5.4427,5.4968,5.6487,5.5781,5.5539,5.5829,5.4685,5.3868,5.3537,5.3201,5.2951,5.2713,5.219,5.1513,5.0682,5.0174,4.9466,4.862,4.862,4.862,4.862,4.862,4.862,4.862,4.862,4.862,4.862,4.862,4.862,4.862,0.0,0.0,0.0,0.0,0.0,0.0,0.0,0.0,0.0,0.0,0.0,0.0,0.0,0.0,0.0,0.0,0.0,0.0,0.0,0.0,0.0,0.0,0.0,0.0,0.0,0.0,0.0,0.0,0.0,0.0,0.0,4.5175,4.5361,4.5732,0.0,0.0,0.0,0.0,0.0,0.0,0.0,0.0,0.0,0.0,0.0,0.0,0.0,0.0,0.0,0.0,0.0,3.7818,4.0784,4.194,4.2768,4.5596,0.0,5.1183,5.2787,5.5443,5.7874,5.8288,5.8219,5.7564,5.5719,5.3925,5.1649,4.82,4.601,0.0,4.2259,0.0,0.0,0.0,0.0,0.0,5.42,5.4858,5.4748,0.0,5.4281,0.0,5.2802,5.3725,5.4405,0.0,5.4308,5.4727,5.5812,5.5393,5.5164,5.5295,5.4226,5.3481,5.3129,5.2788,5.2713,5.2713,5.2329,5.1636,5.0682,5.0297,4.9743,4.9066,0.0,4.8789,4.9066,4.8743,4.862,4.862,4.862,4.862,4.862,4.862,4.862,4.862,0.0,0.0,0.0,0.0,0.0,0.0,0.0,0.0,0.0,0.0,2.0281,0.0,0.0,0.0,0.0,0.0,0.0,0.0,0.0,0.0,0.0,0.0,0.0,0.0,0.0,0.0,0.0,0.0,0.0,0.0,0.0,0.0,0.0,0.0,0.0,0.0,0.0,0.0,0.0,0.0,0.0,0.0,0.0,0.0,0.0,0.0,0.0,0.0,0.0,0.0,3.8491,3.9802,4.332,4.5165,4.6372,4.8114,5.1028,5.3891,5.4736,5.6943,5.8995,5.8892,5.7754,5.5995,5.3511,5.059,4.7541,4.4285,0.0,4.0487,3.9759,3.9459,4.0622,4.4686,0.0,4.7768,5.3403,5.3253,5.3274,5.5111,5.4821,5.4292,5.3661,5.4163,5.4535,5.4535,5.5086,5.5409,5.5409,5.5409,5.518,5.4681,5.4343,5.3671,5.2713,5.2713,5.2713,5.2713,5.2713,5.2052,5.082,5.0728,5.0328,4.9651,0.0,0.0,4.9497,4.8866,4.862,4.862,4.862,4.862,4.862,4.862,4.862,4.862,0.0,0.0,0.0,0.0,0.0,0.0,0.0,0.0,0.0,0.0,2.0155,2.0644,0.0,0.0,0.0,0.0,0.0,0.0,0.0,0.0,0.0,0.0,0.0,0.0,0.0,0.0,0.0,0.0,0.0,0.0,0.0,0.0,0.0,0.0,0.0,0.0,0.0,0.0,0.0,0.0,0.0,0.0,0.0,0.0,0.0,0.0,0.0,0.0,0.0,0.0,4.1216,4.2716,4.463,4.7062,4.9752,5.2511,5.4236,5.5529,5.6943,5.815,5.8857,5.8254,5.6943,5.4908,5.139,4.8455,0.0,0.0,3.9771,3.8775,3.6518,3.8422,4.1271,4.4052,4.6601,4.969,0.0,0.0,5.4907,0.0,0.0,0.0,0.0,0.0,0.0,0.0,0.0,0.0,5.5409,5.5409,5.4998,5.4274,5.4173,5.3671,5.2713,5.2713,5.2713,5.2713,5.2713,5.2298,5.1513,5.0944,5.0328,4.9651,0.0,0.0,4.8789,4.8666,4.862,4.862,4.862,4.862,4.862,4.862,4.862,4.862,0.0,0.0,0.0,0.0,0.0,0.0,0.0,1.9752,2.0144,2.0519,2.0634,2.0837,2.1292,2.1767,2.2792,0.0,0.0,0.0,0.0,0.0,0.0,0.0,0.0,0.0,0.0,0.0,0.0,0.0,0.0,0.0,0.0,0.0,0.0,0.0,0.0,0.0,0.0,0.0,0.0,0.0,0.0,0.0,0.0,0.0,0.0,0.0,0.0,0.0,0.0,0.0,4.1509,4.4147,4.6458,4.8752,5.1097,5.3736,5.5322,5.6477,5.7598,5.8443,5.8737,5.7616,5.5563,5.2691,4.8335,0.0,0.0,0.0,3.6861,3.6232,3.5124,3.6622,0.0,4.1863,4.3872,4.6729,5.1534,0.0,0.0,0.0,0.0,0.0,0.0,0.0,0.0,0.0,0.0,0.0,5.5409,5.5409,5.5081,5.4513,5.4274,5.3742,5.304,5.2788,5.2713,5.2713,5.2713,5.2175,5.1159,5.0851,5.0328,4.9651,4.8927,0.0,4.9143,4.8773,4.862,4.862,4.862,4.862,4.862,4.862,4.862,4.862,0.0,0.0,0.0,0.0,0.0,0.0,0.0,2.0269,2.0751,2.1518,2.1607,2.1554,2.1375,2.1337,2.1942,0.0,0.0,0.0,0.0,0.0,0.0,0.0,0.0,0.0,0.0,0.0,0.0,0.0,0.0,0.0,0.0,0.0,0.0,0.0,0.0,0.0,0.0,0.0,0.0,0.0,0.0,0.0,0.0,0.0,0.0,0.0,0.0,0.0,0.0,0.0,4.0681,4.3802,4.67,4.9217,5.1494,5.3442,5.5154,5.6486,5.7242,5.7913,5.8015,5.6352,5.3541,5.0001,4.5512,4.1952,0.0,0.0,3.4681,3.4372,3.4528,0.0,3.6711,0.0,4.0998,4.346,4.8884,5.005,0.0,0.0,0.0,0.0,0.0,0.0,0.0,0.0,0.0,0.0,5.5409,5.5409,5.5262,5.4848,5.4428,5.4001,5.3552,5.3217,5.2966,5.2877,5.2877,5.2156,5.0913,5.0759,5.0328,4.9651,4.8927,0.0,0.0,4.885,4.862,4.862,4.862,4.862,4.862,4.862,4.862,4.862,0.0,0.0,0.0,0.0,0.0,0.0,0.0,2.1179,2.2375,2.3155,2.3262,2.2999,2.2268,2.1557,2.161,0.0,0.0,0.0,0.0,0.0,0.0,0.0,0.0,0.0,0.0,0.0,0.0,0.0,0.0,0.0,0.0,0.0,0.0,0.0,0.0,0.0,0.0,0.0,0.0,0.0,0.0,0.0,0.0,0.0,0.0,0.0,0.0,0.0,0.0,0.0,0.0,4.0526,4.294,4.7096,5.1287,5.2166,0.0,0.0,5.586,5.6275,5.5967,5.3782,5.0505,4.7009,4.3917,0.0,3.6771,3.5117,3.469,3.456,3.4234,0.0,0.0,0.0,0.0,4.312,4.7572,4.9872,5.1669,0.0,0.0,0.0,0.0,0.0,0.0,0.0,0.0,0.0,0.0,5.5409,5.5262,5.4848,5.4765,5.4513,5.4017,5.4001,5.3742,5.3305,5.3305,5.2741,5.159,5.0974,5.0328,4.9651,0.0,0.0,0.0,4.8635,4.862,4.862,4.862,4.862,4.862,4.862,4.862,4.862,0.0,0.0,0.0,0.0,0.0,0.0,1.9877,2.0894,2.1875,2.266,2.3213,2.3195,2.2375,2.1572,2.1294,2.174,0.0,0.0,0.0,0.0,0.0,0.0,0.0,0.0,0.0,0.0,0.0,0.0,0.0,0.0,0.0,0.0,0.0,0.0,0.0,0.0,0.0,0.0,0.0,0.0,0.0,0.0,0.0,0.0,0.0,0.0,0.0,0.0,0.0,0.0,0.0,0.0,3.8367,4.1148,0.0,0.0,5.1018,5.2411,5.4125,5.5019,5.5034,5.2805,4.9469,4.5905,4.2675,0.0,3.5893,3.4595,3.4023,3.3811,3.407,3.4137,0.0,0.0,0.0,0.0,4.2391,4.4706,4.72,0.0,0.0,0.0,0.0,0.0,0.0,0.0,0.0,0.0,0.0,5.5409,5.5344,5.518,5.4931,5.4681,5.4513,5.4001,5.3552,5.3377,5.3129,5.2306,5.1082,5.082,5.0082,4.902,0.0,0.0,0.0,4.862,4.862,4.862,4.862,4.862,4.862,4.862,4.862,4.862,0.0,0.0,0.0,0.0,0.0,1.9074,1.9877,2.0626,2.1393,2.2178,2.2785,2.2928,2.2357,2.1393,2.0965,2.1411,2.1686,0.0,0.0,0.0,0.0,0.0,0.0,0.0,0.0,0.0,0.0,0.0,0.0,0.0,0.0,0.0,0.0,0.0,0.0,0.0,0.0,0.0,0.0,0.0,0.0,0.0,0.0,0.0,0.0,0.0,0.0,0.0,0.0,0.0,0.0,0.0,0.0,0.0,0.0,0.0,4.7442,4.9159,5.1088,5.2468,5.2831,5.0855,4.7616,4.4152,0.0,0.0,3.4792,3.3956,3.3259,3.2983,3.368,3.3242,3.3161,0.0,0.0,3.6448,3.9104,4.1662,4.4544,0.0,0.0,0.0,0.0,0.0,0.0,0.0,0.0,0.0,0.0,5.5409,5.5409,5.5409,5.5097,5.4918,5.4709,5.4216,5.3679,5.2958,5.2916,5.1961,5.0389,5.0389,4.9743,4.862,0.0,0.0,0.0,4.862,4.862,4.862,4.862,4.862,4.862,4.862,4.862,4.862,0.0,0.0,0.0,0.0,0.0,0.0,1.9877,2.0626,2.1393,2.2178,2.2303,2.2303,2.2285,2.0929,2.0626,2.2143,2.1322,0.0,0.0,0.0,0.0,0.0,0.0,0.0,0.0,0.0,0.0,2.6411,2.6423,0.0,0.0,0.0,0.0,0.0,0.0,0.0,0.0,0.0,0.0,0.0,0.0,0.0,0.0,0.0,0.0,0.0,0.0,0.0,0.0,0.0,0.0,0.0,0.0,3.3654,0.0,0.0,4.2597,4.5296,4.6447,4.7893,4.8722,4.7281,4.4302,4.1107,0.0,0.0,3.3097,3.3097,3.2514,3.2238,3.2967,3.2514,3.2255,3.2983,0.0,0.0,3.9185,4.2537,4.5305,0.0,0.0,0.0,0.0,0.0,0.0,0.0,0.0,0.0,0.0,5.5409,5.5409,5.5409,5.5426,5.5102,5.4422,5.5069,5.4209,5.2033,5.2744,5.1931,4.9697,4.9697,4.9297,0.0,0.0,0.0,0.0,4.862,4.862,4.862,4.862,4.862,4.862,4.862,4.862,4.862,0.0,0.0,0.0,0.0,0.0,0.0,0.0,1.9841,2.043,2.068,2.1161,2.1483,2.1483,2.0433,2.035,2.1882,2.1383,0.0,0.0,0.0,0.0,0.0,0.0,0.0,0.0,0.0,2.3796,2.435,2.521,2.591,2.6368,0.0,0.0,0.0,0.0,0.0,0.0,0.0,0.0,0.0,0.0,0.0,0.0,0.0,0.0,0.0,0.0,0.0,0.0,0.0,0.0,0.0,0.0,0.0,0.0,3.4588,3.7733,4.1147,4.2558,4.3758,4.4431,4.3492,4.1306,3.9088,3.7938,0.0,3.308,3.308,3.2514,3.2077,3.2303,3.2158,3.2562,3.4246,3.5525,0.0,0.0,0.0,0.0,0.0,0.0,0.0,0.0,0.0,0.0,0.0,0.0,0.0,0.0,5.5409,5.5199,5.4729,5.5166,5.5086,5.4405,5.4743,5.4218,5.2728,5.2696,5.1577,4.9682,4.9682,0.0,0.0,0.0,0.0,0.0,4.862,4.862,4.862,4.862,4.862,4.862,4.862,4.862,4.862,0.0,0.0,0.0,0.0,0.0,0.0,0.0,1.8585,1.897,1.9253,1.9676,2.0082,2.04,1.9587,1.966,2.1231,2.1053,0.0,0.0,0.0,0.0,0.0,0.0,0.0,0.0,2.2677,2.3102,2.3627,2.4459,2.5146,2.5646,2.6148,2.6669,0.0,0.0,0.0,0.0,0.0,0.0,0.0,0.0,0.0,2.7666,0.0,0.0,0.0,0.0,0.0,0.0,0.0,0.0,0.0,0.0,0.0,0.0,0.0,3.399,3.6689,3.8461,3.9952,4.0869,4.014,3.878,3.7274,3.6011,0.0,3.2271,3.2271,3.1704,3.1283,3.1558,3.138,3.172,3.3323,3.4424,0.0,0.0,0.0,0.0,0.0,0.0,0.0,0.0,0.0,0.0,0.0,0.0,0.0,0.0,0.0,5.4843,5.3612,5.4519,5.4697,5.4001,5.4002,5.3403,5.2105,5.1795,5.0923,4.9532,4.9365,0.0,0.0,0.0,0.0,0.0,4.862,4.862,4.862,4.862,4.862,4.862,4.862,4.862,4.862,0.0,0.0,0.0,0.0,0.0,0.0,0.0,1.712,1.7248,1.7938,1.8076,1.8387,1.913,1.8538,1.8694,2.0258,2.0315,0.0,0.0,0.0,0.0,0.0,0.0,0.0,0.0,2.2147,2.2612,2.3833,2.408,2.478,2.5826,2.6158,2.6349,2.6314,2.6082,0.0,0.0,0.0,0.0,0.0,0.0,2.662,0.0,0.0,0.0,0.0,0.0,0.0,0.0,0.0,0.0,0.0,0.0,0.0,0.0,0.0,0.0,0.0,0.0,3.6335,3.7776,3.7112,3.6465,3.5477,3.3469,0.0,0.0,3.0881,3.036,3.0085,3.0797,3.0344,3.0166,3.1073,3.2368,0.0,0.0,0.0,0.0,0.0,0.0,0.0,0.0,0.0,0.0,0.0,0.0,0.0,0.0,0.0,5.4341,5.2333,5.3563,5.392,5.3177,5.2877,5.1949,5.045,5.0385,4.993,4.9275,4.8785,0.0,0.0,0.0,0.0,0.0,4.862,4.862,4.862,4.862,4.862,4.862,4.862,4.862,4.862,0.0,0.0,0.0,0.0,0.0,0.0,0.0,0.0,0.0,0.0,1.7766,1.8159,1.837,1.8078,1.8257,0.0,0.0,0.0,0.0,0.0,0.0,0.0,0.0,0.0,0.0,2.2128,2.2182,2.1922,2.3601,2.4319,2.4102,2.5265,2.5787,2.5787,2.5712,2.5675,0.0,0.0,0.0,0.0,2.5794,2.5875,0.0,0.0,0.0,0.0,2.6992,2.7381,0.0,0.0,0.0,0.0,0.0,0.0,0.0,0.0,2.981,3.0518,3.1037,0.0,3.3469,3.3291,3.3129,3.2886,0.0,3.1575,0.0,0.0,0.0,3.0085,3.0797,3.0344,3.0859,3.3712,3.4473,3.5687,3.857,0.0,0.0,0.0,0.0,0.0,0.0,0.0,0.0,0.0,0.0,0.0,0.0,0.0,5.358,5.3078,5.2835,5.2485,5.1995,5.2461,5.1884,5.0382,5.0309,4.9766,4.8785,4.862,0.0,0.0,0.0,0.0,4.862,4.862,4.862,4.862,4.862,4.862,4.862,4.862,4.862,4.862,0.0,0.0,0.0,0.0,0.0,0.0,0.0,0.0,0.0,0.0,1.7364,1.7822,1.7822,1.7698,0.0,0.0,0.0,0.0,0.0,0.0,0.0,0.0,0.0,0.0,2.1214,2.1989,2.2199,2.1811,2.3608,2.4304,2.3964,2.5082,2.5616,2.5616,2.5616,2.5616,0.0,0.0,0.0,0.0,2.5616,0.0,0.0,0.0,0.0,0.0,2.6328,2.6652,0.0,2.7235,2.751,2.7818,0.0,0.0,0.0,0.0,2.8806,2.9416,2.9416,3.0409,3.1429,3.1105,3.1267,3.1429,3.1105,0.0,0.0,0.0,0.0,3.0032,3.036,3.0393,3.1089,3.3356,3.4538,0.0,0.0,0.0,0.0,0.0,0.0,0.0,0.0,0.0,0.0,0.0,0.0,0.0,0.0,0.0,5.3013,5.2365,5.2252,5.2126,5.1894,5.1566,5.1089,5.0373,4.9821,4.9306,4.8949,4.8702,0.0,0.0,0.0,0.0,4.862,4.862,4.862,4.862,4.862,4.862,4.862,4.862,4.862,4.862,0.0,0.0,0.0,0.0,0.0,0.0,0.0,0.0,0.0,0.0,0.0,0.0,0.0,0.0,0.0,0.0,0.0,0.0,0.0,0.0,0.0,0.0,0.0,2.083,2.0985,2.184,2.2376,2.2556,2.3981,2.4596,2.4499,2.5373,2.5729,2.5616,2.5616,2.5616,0.0,0.0,0.0,0.0,2.5616,0.0,0.0,0.0,0.0,0.0,0.0,0.0,0.0,2.6484,2.6548,2.6726,2.7155,0.0,0.0,0.0,0.0,0.0,2.8757,2.9701,3.0574,3.002,3.0328,3.0603,3.0048,0.0,0.0,0.0,0.0,0.0,0.0,3.0684,0.0,0.0,0.0,0.0,0.0,0.0,0.0,0.0,0.0,0.0,0.0,0.0,0.0,0.0,0.0,0.0,0.0,0.0,0.0,5.1232,5.175,5.2041,5.2041,5.0595,5.0073,5.0276,4.9178,4.8723,4.9038,4.863,4.8404,0.0,0.0,0.0,4.8327,4.8527,4.8558,4.8481,4.8573,4.862,4.862,4.862,4.862,4.862,0.0,0.0,0.0,0.0,0.0,0.0,0.0,0.0,0.0,0.0,0.0,0.0,0.0,0.0,0.0,0.0,0.0,0.0,0.0,0.0,0.0,0.0,1.9398,2.0268,2.1768,2.1879,2.2383,2.3335,2.4742,2.5114,2.4515,2.5891,2.6199,2.5616,2.5616,2.5616,2.5616,0.0,0.0,2.5616,2.5616,0.0,0.0,0.0,0.0,0.0,0.0,0.0,0.0,2.5493,2.5878,2.6262,2.5624,0.0,0.0,0.0,0.0,0.0,2.8569,2.9258,2.9749,2.9891,2.9999,3.0048,2.9935,0.0,0.0,0.0,0.0,0.0,0.0,0.0,0.0,0.0,0.0,0.0,0.0,0.0,0.0,0.0,0.0,0.0,0.0,0.0,0.0,0.0,0.0,0.0,0.0,0.0,0.0,5.1183,5.128,5.1345,5.1345,5.0372,4.9757,4.9517,4.8852,4.8312,4.7839,4.7758,4.745,0.0,0.0,4.7434,4.7004,4.8142,4.8281,4.7819,4.8389,4.862,4.862,4.862,4.862,4.862,0.0,0.0,0.0,0.0,0.0,0.0,0.0,0.0,0.0,0.0,0.0,0.0,0.0,0.0,0.0,0.0,0.0,0.0,0.0,0.0,0.0,1.9413,1.9539,2.0189,2.16,2.2134,2.292,2.4029,2.5486,2.5826,2.5114,2.5794,2.5599,2.4756,2.5086,2.4885,2.4397,2.4753,2.5029,2.5208,0.0,0.0,0.0,0.0,0.0,0.0,0.0,0.0,0.0,0.0,2.5408,2.5591,2.468,0.0,0.0,0.0,0.0,0.0,2.7779,2.8398,2.8968,2.9809,3.0534,3.0927,3.0522,0.0,0.0,0.0,0.0,0.0,0.0,0.0,0.0,0.0,0.0,0.0,0.0,0.0,0.0,0.0,0.0,0.0,0.0,0.0,0.0,0.0,0.0,0.0,0.0,0.0,0.0,0.0,5.06,5.0406,5.0017,4.9421,4.9061,4.9048,4.8633,4.7954,4.7065,4.7065,4.688,4.6619,0.0,4.688,4.665,4.7265,4.7342,4.7096,4.7404,4.7527,4.7573,4.7942,4.8296,4.862,0.0,0.0,0.0,0.0,0.0,0.0,0.0,0.0,0.0,0.0,0.0,0.0,0.0,0.0,0.0,0.0,0.0,0.0,0.0,0.0,1.7327,1.933,1.9502,2.0263,2.1759,2.2692,2.377,2.5001,2.6134,2.6354,2.5689,2.5389,2.4734,2.3869,2.4312,2.4053,2.3326,2.3866,2.4337,2.4744,0.0,0.0,0.0,0.0,0.0,0.0,0.0,0.0,0.0,0.0,0.0,0.0,0.0,0.0,0.0,2.4395,2.4918,2.5873,2.6735,2.7474,2.8302,2.9374,3.0527,3.1433,3.1546,0.0,0.0,0.0,0.0,0.0,0.0,0.0,0.0,0.0,0.0,0.0,0.0,0.0,0.0,0.0,0.0,0.0,0.0,0.0,0.0,0.0,0.0,0.0,0.0,0.0,0.0,0.0,4.9855,4.958,4.903,4.8666,4.8642,4.8805,4.8247,4.7496,4.6515,4.6436,4.6265,4.6126,4.6296,4.6265,4.6142,4.6465,4.6511,4.6372,4.6542,4.6603,4.668,4.7357,4.7927,4.8404,0.0,0.0,0.0,0.0,0.0,0.0,0.0,0.0,0.0,0.0,0.0,0.0,0.0,0.0,0.0,0.0,0.0,0.0,0.0,0.0,1.62,1.7968,1.8585,2.0223,2.3079,2.3667,2.4798,2.6539,2.6636,2.6438,2.5932,2.4687,2.3847,2.3335,2.3381,2.3365,2.3295,2.3341,2.3742,2.4338,2.4146,0.0,0.0,0.0,0.0,0.0,0.0,0.0,0.0,0.0,0.0,0.0,0.0,0.0,2.4871,2.4266,2.441,2.4848,2.5492,2.6704,2.7886,2.816,2.8984,0.0,3.2928,3.3223,0.0,0.0,0.0,0.0,0.0,0.0,0.0,0.0,0.0,0.0,0.0,0.0,0.0,0.0,0.0,0.0,0.0,0.0,0.0,0.0,0.0,0.0,0.0,0.0,0.0,0.0,0.0,4.9078,4.903,4.8941,4.8755,4.8451,4.768,4.6935,4.6188,4.5804,4.5311,4.4756,4.5387,4.5311,4.4818,4.608,4.6219,4.5726,4.6357,4.6603,4.668,4.7357,4.7635,4.7773,0.0,0.0,0.0,0.0,0.0,0.0,0.0,0.0,0.0,0.0,0.0,0.0,0.0,0.0,0.0,0.0,0.0,0.0,0.0,0.0,1.6065,1.7751,1.8692,2.0153,2.2259,2.3412,2.491,2.6701,2.6247,2.5796,2.5377,2.4388,2.3351,2.2358,2.3137,2.3122,2.2542,2.2901,2.3385,2.3837,2.3773,2.4228,0.0,0.0,0.0,0.0,0.0,0.0,0.0,0.0,2.3421,2.3685,2.3219,2.4039,2.4937,2.3568,2.3761,2.4488,2.4859,2.5905,2.7132,2.8078,0.0,0.0,0.0,0.0,0.0,0.0,0.0,0.0,0.0,0.0,0.0,0.0,0.0,0.0,0.0,0.0,0.0,0.0,0.0,0.0,0.0,0.0,0.0,0.0,0.0,0.0,0.0,0.0,0.0,0.0,0.0,4.8171,4.7702,4.7686,4.7632,4.749,4.7346,4.667,4.5563,4.5412,4.5046,4.4587,4.4849,4.4572,4.3987,4.451,4.4326,4.3802,4.4449,4.5234,4.6003,4.6249,4.6619,4.7065,0.0,0.0,0.0,0.0,0.0,0.0,0.0,0.0,0.0,0.0,0.0,0.0,0.0,0.0,0.0,0.0,0.0,0.0,1.4439,1.4979,1.5962,1.7419,1.8714,2.0028,2.1424,2.3044,2.4665,2.6361,2.5915,2.5281,2.4414,2.3787,2.2891,2.1847,2.2695,2.2687,2.2004,2.2193,2.2703,2.3319,2.3018,2.35,0.0,0.0,0.0,0.0,0.0,0.0,0.0,0.0,2.2516,2.2823,2.2194,2.2945,2.3808,2.2476,2.2833,2.372,2.3918,2.507,2.6551,0.0,0.0,0.0,0.0,0.0,0.0,0.0,0.0,0.0,0.0,0.0,0.0,0.0,0.0,0.0,0.0,0.0,0.0,0.0,0.0,0.0,0.0,0.0,0.0,0.0,0.0,0.0,0.0,0.0,0.0,0.0,0.0,4.6282,4.5543,4.5543,4.5543,4.5473,4.5698,4.552,4.505,4.47,4.4313,4.3956,4.3956,4.3694,4.3264,4.3264,4.3125,4.2956,4.3387,4.4264,4.5295,4.5511,4.588,4.6372,0.0,0.0,0.0,0.0,0.0,0.0,0.0,0.0,1.2474,1.2664,1.2579,0.0,0.0,0.0,0.0,0.0,0.0,0.0,1.4297,1.4935,1.5756,1.6759,1.8453,1.9844,2.0846,2.2567,2.4159,2.5546,2.5839,2.4986,2.3185,2.2768,2.2384,2.1989,2.1989,2.2004,2.196,2.1238,2.1629,2.2725,2.1762,2.2191,2.3286,0.0,0.0,0.0,0.0,0.0,0.0,0.0,2.1379,2.085,2.1292,2.138,2.134,2.0988,2.1549,2.2363,2.2611,2.4235,2.6134,0.0,0.0,0.0,0.0,0.0,0.0,0.0,0.0,0.0,0.0,0.0,0.0,0.0,0.0,0.0,0.0,0.0,0.0,0.0,0.0,0.0,0.0,0.0,0.0,0.0,0.0,0.0,0.0,0.0,0.0,0.0,0.0,0.0,4.2608,4.2608,4.2535,4.2333,4.2318,4.3123,4.4599,4.3568,4.2916,4.2602,4.2602,4.2602,4.2602,4.2586,4.2971,4.3556,4.3556,4.3972,4.4649,4.5326,4.5572,4.568,0.0,0.0,0.0,0.0,0.0,0.0,0.0,0.0,1.2219,1.2515,1.215,0.0,0.0,0.0,0.0,0.0,0.0,0.0,1.367,1.4689,1.5521,1.6009,1.7015,1.7792,1.8298,2.0219,2.2039,2.3702,2.3238,2.2508,2.1447,2.1759,2.1676,2.1336,2.2251,2.2627,2.2523,2.1816,2.1715,2.1899,2.1182,2.1345,2.1954,0.0,0.0,0.0,0.0,0.0,0.0,0.0,0.0,0.0,2.0948,2.1481,2.1884,2.0847,2.1362,2.2302,2.2365,2.4015,0.0,2.8032,0.0,0.0,0.0,0.0,0.0,0.0,0.0,0.0,0.0,0.0,0.0,0.0,0.0,0.0,0.0,0.0,0.0,0.0,0.0,0.0,0.0,0.0,0.0,0.0,0.0,0.0,0.0,0.0,0.0,0.0,0.0,0.0,4.2608,4.2608,4.2535,4.2318,4.174,4.1805,4.2404,4.2058,4.1685,4.1339,4.1339,4.1325,4.124,4.077,4.124,4.2182,4.2257,4.294,4.3972,4.4649,4.488,4.4972,0.0,0.0,0.0,0.0,0.0,0.0,0.0,0.0,1.2576,1.2203,1.2001,1.1803,0.0,0.0,0.0,0.0,0.0,0.0,0.0,1.4631,1.5358,1.5536,1.6353,1.7091,1.7729,1.8849,2.0056,2.1341,2.162,2.1375,2.0685,2.1406,2.1645,2.1438,2.2439,2.2682,2.2363,2.1628,2.1412,2.1481,2.0557,2.0696,2.1405,0.0,0.0,0.0,0.0,0.0,0.0,0.0,0.0,0.0,1.9921,2.0333,2.0779,2.0348,2.0852,2.1771,2.2746,2.47,0.0,2.9373,3.2333,3.5475,0.0,0.0,0.0,0.0,0.0,0.0,0.0,0.0,0.0,0.0,0.0,0.0,0.0,0.0,0.0,0.0,0.0,0.0,0.0,0.0,0.0,0.0,0.0,0.0,0.0,0.0,0.0,0.0,0.0,0.0,4.087,4.087,4.0723,4.0591,4.0009,3.9802,3.9765,4.0353,4.0368,4.0022,4.0022,3.9951,3.9933,3.9471,3.9934,4.0875,4.095,4.1594,4.2551,4.321,4.3455,4.3516,0.0,0.0,1.2975,1.2915,0.0,0.0,0.0,0.0,1.3198,1.1901,1.2071,1.2096,0.0,0.0,0.0,0.0,0.0,0.0,0.0,0.0,1.5222,1.5222,1.6067,1.7143,1.8342,1.8066,1.8238,1.8962,2.065,2.1147,2.0578,2.1489,2.1931,2.2019,2.2494,2.2377,2.1729,2.0813,2.0784,2.1165,1.988,2.0077,2.1109,2.0126,0.0,0.0,0.0,0.0,0.0,0.0,0.0,0.0,1.862,1.8556,1.8708,1.9663,2.0185,2.1054,2.3655,0.0,0.0,3.1196,3.4424,0.0,0.0,0.0,0.0,0.0,0.0,0.0,0.0,0.0,0.0,0.0,0.0,0.0,0.0,0.0,0.0,0.0,0.0,0.0,0.0,0.0,0.0,0.0,0.0,0.0,0.0,0.0,0.0,0.0,0.0,0.0,3.8202,3.8202,3.8066,0.0,3.7701,3.7457,3.7303,3.8517,3.8899,3.8634,3.8708,3.8708,3.8708,3.8708,3.9091,3.9679,3.9755,4.0138,4.0787,4.1376,4.1597,4.1597,0.0,0.0,1.2767,1.3078,0.0,0.0,0.0,0.0,0.0,0.0,0.0,0.0,0.0,0.0,0.0,0.0,0.0,0.0,0.0,0.0,1.4525,1.4525,1.4731,1.5374,1.652,1.6476,1.7163,1.8602,1.9266,1.9806,2.0221,2.0898,2.1439,2.1859,2.196,2.1872,2.151,2.0288,1.9836,1.9768,1.9023,1.8869,1.9134,1.8891,1.8935,0.0,0.0,0.0,0.0,0.0,0.0,0.0,1.876,1.8798,1.8927,1.9409,2.0266,2.1651,2.4057,2.6579,0.0,0.0,3.6514,4.0139,4.1971,0.0,0.0,0.0,0.0,0.0,0.0,0.0,0.0,0.0,0.0,0.0,0.0,0.0,0.0,0.0,0.0,0.0,0.0,0.0,0.0,0.0,0.0,0.0,0.0,0.0,0.0,3.8202,0.0,3.8337,3.8202,3.8066,3.7853,0.0,3.7457,3.7226,3.7056,3.7352,3.7429,3.7429,3.7886,3.8113,3.8113,3.8113,3.8489,3.9054,3.9054,3.9445,4.0089,4.0705,4.0997,4.0997,0.0,0.0,0.0,0.0,0.0,0.0,0.0,0.0,0.0,0.0,0.0,0.0,0.0,0.0,0.0,0.0,0.0,0.0,0.0,0.0,1.43,1.43,1.4124,1.4439,1.5318,1.5415,1.6095,1.738,1.8085,1.8849,1.9638,2.0262,2.07,2.0894,2.1183,2.1198,2.0968,1.9921,1.9654,1.981,1.8883,1.8647,1.8885,1.863,1.8581,1.8725,1.9024,0.0,0.0,0.0,0.0,0.0,0.0,0.0,1.8849,1.949,2.0131,2.1269,2.4087,0.0,0.0,3.4836,0.0,4.1232,4.1955,0.0,0.0,0.0,0.0,0.0,0.0,0.0,0.0,0.0,0.0,0.0,0.0,0.0,0.0,0.0,0.0,0.0,0.0,0.0,0.0,0.0,0.0,0.0,0.0,3.8391,3.8202,3.8202,3.8202,3.8202,3.8202,3.8005,3.7853,3.7777,3.7457,3.7226,3.6978,3.6978,3.6978,3.6978,3.7366,3.7443,3.7443,3.7443,3.7628,3.7912,3.8004,3.8189,3.8517,3.9211,3.939,3.939,0.0,0.0,0.0,0.0,0.0,0.0,0.0,0.0,0.0,0.0,0.0,0.0,0.0,0.0,0.0,0.0,0.0,0.0,0.0,0.0,0.0,1.4092,1.3782,1.3938,1.4624,1.4828,1.5375,1.6334,1.7223,1.8108,0.0,1.9705,2.0052,2.0033,2.0341,2.0457,2.0274,1.9446,1.9447,1.9852,1.8805,1.8693,1.9084,1.8675,1.8517,1.8588,1.9053,1.8684,1.8044,1.8932,0.0,0.0,0.0,0.0,1.8747,1.9623,1.9955,2.0746,2.3938,0.0,3.1089,3.689,3.9801,0.0,4.154,0.0,0.0,0.0,0.0,0.0,0.0,0.0,0.0,0.0,0.0,0.0,0.0,0.0,0.0,0.0,0.0,0.0,0.0,0.0,0.0,0.0,0.0,0.0,3.8202,3.8202,3.8202,3.8202,3.8202,3.8202,3.8202,3.8005,3.781,3.7695,3.7187,3.6824,3.6669,3.6782,3.688,3.6978,3.6978,3.6978,3.6978,3.6978,3.6978,3.6978,3.6978,3.6978,3.7049,3.7555,3.7737,3.7737,0.0,0.0,0.0,0.0,0.0,0.0,0.0,0.0,0.0,0.0,1.3011,1.2582,0.0,1.2657,1.2991,1.2823,1.3311,1.3537,1.3288,0.0,0.0,1.3335,1.3301,1.3781,1.4854,1.4878,1.5565,1.6876,1.7037,0.0,0.0,0.0,0.0,2.0415,0.0,1.968,1.9474,1.8467,1.8045,1.8153,1.7936,1.7922,1.8031,1.8375,1.8517,1.8531,1.8616,1.8548,1.8439,1.8562,1.8534,0.0,0.0,0.0,1.8912,1.9369,2.0045,2.1216,2.3806,0.0,3.3571,0.0,3.8723,4.0108,0.0,0.0,0.0,0.0,0.0,0.0,0.0,0.0,0.0,0.0,0.0,0.0,0.0,0.0,0.0,0.0,0.0,0.0,0.0,0.0,0.0,0.0,0.0,0.0,3.8202,3.8202,3.8202,3.8202,3.8202,3.8202,3.8202,3.8005,3.758,3.6885,3.5957,3.5479,3.5494,3.5953,3.6487,3.6978,3.6978,3.6978,3.6978,3.6978,3.6978,3.6978,3.6978,3.6978,3.6993,3.7077,3.7105,3.7105,0.0,0.0,0.0,0.0,0.0,0.0,0.0,0.0,0.0,0.0,0.0,1.2669,1.2685,1.2749,1.2871,1.2997,1.3285,1.3357,1.3198,1.2943,1.2943,1.3198,1.2965,1.3371,1.4425,1.4752,1.5293,1.6169,0.0,0.0,0.0,1.8714,1.9401,0.0,0.0,0.0,0.0,1.8262,1.818,1.8749,1.7824,1.7999,1.8735,1.8276,0.0,1.8983,1.8983,1.8639,1.819,1.8791,1.8585,1.8135,1.8439,0.0,0.0,0.0,1.9276,2.048,2.3955,2.7851,3.1692,0.0,3.7241,3.8739,4.0124,0.0,0.0,0.0,0.0,0.0,0.0,0.0,0.0,0.0,0.0,0.0,0.0,0.0,0.0,0.0,0.0,0.0,0.0,0.0,0.0,0.0,0.0,3.7982,3.756,3.7546,3.7313,3.6878,3.6923,3.6996,3.6996,3.6776,3.6425,3.5858,3.5427,3.5226,3.524,3.5508,3.5883,3.6487,3.6838,3.6978,3.6978,3.6978,3.6978,3.6978,3.6978,3.6978,3.6978,3.6978,3.6978,3.6978,0.0,0.0,0.0,0.0,0.0,0.0,0.0,0.0,0.0,0.0,0.0,1.2905,1.3166,0.0,0.0,0.0,1.3094,1.2978,1.2861,1.2615,1.2579,1.2873,1.2806,1.3192,1.4076,1.4725,1.5274,1.5711,0.0,0.0,1.6723,1.7774,1.8303,0.0,1.8711,1.8911,0.0,0.0,0.0,0.0,1.7652,1.7931,1.8937,0.0,0.0,0.0,1.9239,1.8755,1.8316,1.881,1.8453,1.7882,1.8214,1.8307,0.0,0.0,0.0,0.0,0.0,0.0,2.8912,3.267,3.4896,3.6545,0.0,0.0,0.0,0.0,0.0,0.0,0.0,0.0,0.0,0.0,0.0,0.0,0.0,0.0,0.0,0.0,0.0,0.0,0.0,0.0,0.0,0.0,0.0,3.7313,3.6704,3.6689,3.6386,3.584,3.5884,3.5942,3.5942,3.5553,3.5265,3.5046,3.4832,3.4688,3.4688,3.4857,3.5166,3.5644,3.6416,3.6754,3.6768,3.6922,3.6978,3.6978,3.6978,3.6978,3.6978,3.6978,3.6978,3.6978,0.0,0.0,0.0,0.0,0.0,0.0,0.0,0.0,0.0,0.0,0.0,1.3517,1.322,1.3173,1.3173,1.3198,1.2791,1.2354,1.1982,1.2246,1.2258,1.1982,1.2787,0.0,1.4089,1.4992,1.5765,0.0,0.0,0.0,1.671,1.6675,1.6846,1.735,1.8741,1.8823,1.7842,0.0,0.0,0.0,0.0,0.0,0.0,0.0,0.0,0.0,0.0,0.0,0.0,1.8207,1.7868,1.7787,1.7841,1.7841,1.7922,0.0,0.0,0.0,0.0,2.4,0.0,2.9395,3.1327,0.0,0.0,0.0,0.0,0.0,0.0,0.0,0.0,0.0,0.0,0.0,0.0,0.0,0.0,0.0,0.0,0.0,0.0,0.0,0.0,0.0,0.0,0.0,0.0,3.5912,3.5883,3.5883,3.5869,3.5826,3.5826,3.5826,3.5826,3.4982,3.4526,3.4526,3.3748,3.3424,3.3438,3.4014,3.4309,3.4393,3.5602,3.6121,3.6164,3.674,3.6978,3.6978,3.6978,3.6978,3.6978,3.6978,3.6978,3.6978,0.0,0.0,0.0,0.0,0.0,0.0,0.0,0.0,0.0,0.0,0.0,0.0,0.0,1.2908,1.2756,1.2756,1.2318,1.1993,1.1847,1.1616,1.1722,1.2222,1.2643,1.336,1.4393,1.5142,0.0,0.0,0.0,1.6231,1.6405,1.6873,1.6935,1.6778,1.7618,1.7757,1.7393,1.6934,0.0,0.0,0.0,0.0,0.0,0.0,0.0,0.0,0.0,0.0,0.0,1.9373,1.8742,1.7828,1.8135,1.8254,0.0,0.0,0.0,0.0,0.0,0.0,0.0,2.6577,2.8808,3.0726,3.234,0.0,0.0,0.0,0.0,0.0,0.0,0.0,0.0,0.0,0.0,0.0,0.0,0.0,0.0,0.0,0.0,0.0,0.0,0.0,0.0,0.0,0.0,0.0,3.5636,3.5209,3.4739,3.42,3.4342,3.4228,3.3829,3.3093,3.2645,3.2591,3.2312,3.2356,3.2736,3.296,3.3283,3.3719,3.4955,3.555,3.5578,3.5728,3.6037,3.6388,3.6388,3.6641,3.6978,3.6978,3.6978,3.6978,0.0,0.0,0.0,0.0,0.0,1.4163,1.3861,1.3971,1.396,1.3547,0.0,0.0,0.0,0.0,1.2508,1.2198,1.192,1.1627,1.1356,1.1094,1.1193,1.1694,1.2254,1.297,1.3871,1.4922,0.0,0.0,0.0,0.0,0.0,1.6633,1.6653,1.6262,1.6607,1.682,0.0,0.0,0.0,1.7045,0.0,0.0,1.9527,0.0,0.0,0.0,0.0,0.0,0.0,0.0,1.9833,1.9067,1.9183,0.0,0.0,0.0,0.0,0.0,2.0751,0.0,0.0,0.0,0.0,2.77,2.9684,0.0,0.0,0.0,0.0,0.0,0.0,0.0,0.0,0.0,0.0,0.0,0.0,0.0,0.0,0.0,0.0,0.0,0.0,0.0,0.0,0.0,0.0,0.0,3.4172,3.3733,3.3254,3.2721,3.2845,3.2715,3.2305,3.1881,3.1603,3.1485,3.1485,3.171,3.2103,3.2103,3.244,3.3073,3.3796,3.4377,3.4766,3.4974,3.5142,3.5242,3.5242,3.5489,3.5874,3.6411,3.6573,3.6573,0.0,0.0,1.2509,1.2509,1.2939,1.3208,1.2849,1.3318,1.3547,1.3129,0.0,0.0,0.0,0.0,0.0,1.1675,1.1612,1.1276,1.0497,1.0728,1.0766,1.0478,1.1778,1.251,1.2521,0.0,0.0,0.0,0.0,0.0,0.0,0.0,1.5792,1.5792,1.5792,1.6044,1.6479,0.0,1.6539,1.6632,0.0,1.8073,1.9071,0.0,0.0,0.0,2.0773,2.1234,0.0,2.099,2.1019,2.1356,0.0,0.0,0.0,0.0,0.0,0.0,0.0,0.0,0.0,0.0,0.0,0.0,2.7451,0.0,0.0,0.0,0.0,0.0,0.0,0.0,0.0,0.0,0.0,0.0,0.0,0.0,0.0,0.0,0.0,0.0,0.0,0.0,0.0,0.0,0.0,3.2145,3.1555,3.1499,3.1485,3.1485,3.1471,3.1457,3.1457,3.1443,3.1429,3.1429,3.1429,3.1443,3.1457,3.1457,3.1794,3.2344,3.2072,3.2678,3.3774,3.4461,3.4312,3.3498,3.3498,3.3511,3.3684,3.5117,3.5669,3.5749,0.0,1.2423,1.2712,1.2479,1.3057,1.3467,1.3074,1.3166,1.3185,0.0,0.0,0.0,0.0,0.0,1.2093,1.1186,1.1429,1.1548,1.1286,1.137,1.1476,1.167,1.244,1.2996,1.3273,1.462,0.0,0.0,0.0,0.0,0.0,0.0,0.0,0.0,1.5792,1.5881,1.6001,1.6001,0.0,0.0,1.7616,1.8614,0.0,0.0,0.0,0.0,0.0,2.1778,2.1107,0.0,2.1341,2.0899,0.0,0.0,0.0,0.0,0.0,0.0,2.1076,0.0,0.0,0.0,0.0,0.0,2.4143,2.6804,2.9117,0.0,0.0,0.0,0.0,0.0,0.0,0.0,0.0,0.0,0.0,0.0,0.0,0.0,0.0,0.0,0.0,0.0,0.0,0.0,3.2904,3.2328,3.2159,3.1738,3.1485,3.1485,3.1036,3.0797,3.0797,3.0347,3.0136,3.0136,3.0136,3.0361,3.0797,3.0797,3.1134,3.1713,3.157,3.1508,3.1708,3.2288,3.2698,3.2829,3.2829,3.3091,3.3603,3.4426,3.4733,3.4733,1.1645,1.2157,1.2615,1.2436,1.2989,1.3357,1.3141,1.3107,1.3111,0.0,0.0,0.0,0.0,0.0,0.0,1.1486,1.1588,1.166,1.1606,1.1606,1.1724,1.1943,1.2393,1.2797,1.3003,1.4103,0.0,0.0,0.0,0.0,0.0,0.0,0.0,0.0,1.5277,1.5187,0.0,0.0,0.0,0.0,1.7752,0.0,0.0,2.1163,2.1728,0.0,0.0,0.0,2.1765,2.2363,2.2153,0.0,0.0,0.0,0.0,0.0,0.0,0.0,0.0,0.0,0.0,0.0,0.0,0.0,2.3179,2.524,2.7095,0.0,0.0,0.0,0.0,0.0,0.0,0.0,0.0,0.0,0.0,0.0,0.0,0.0,0.0,0.0,0.0,0.0,0.0,3.3508,3.2806,3.2174,3.1654,3.1036,3.0712,3.0712,3.0347,3.0136,3.0136,2.9785,2.9743,2.9982,2.9729,2.994,3.0516,3.0263,3.0488,3.1054,3.0581,3.044,3.0433,3.0407,3.0871,3.1554,3.1327,3.1719,3.2523,3.3174,3.3611,3.3804,0.0,1.1584,1.2307,1.2274,1.2734,1.3072,1.299,1.299,1.3116,0.0,0.0,0.0,0.0,0.0,0.0,0.0,1.1933,1.1753,1.1753,1.1753,1.1753,1.1753,1.209,1.2305,1.2305,1.3252,0.0,0.0,0.0,0.0,0.0,0.0,0.0,0.0,1.449,1.4305,1.4305,0.0,0.0,1.8103,1.7681,1.9042,0.0,0.0,2.1728,0.0,2.2197,2.2531,2.3027,2.3088,2.3063,0.0,0.0,0.0,0.0,0.0,2.0954,0.0,0.0,0.0,0.0,0.0,0.0,0.0,2.3462,2.4325,2.5184,2.6745,0.0,0.0,0.0,0.0,0.0,0.0,0.0,0.0,0.0,0.0,0.0,0.0,0.0,0.0,0.0,3.4014,3.348,3.2384,3.2174,3.1597,3.0488,2.9897,2.9602,2.9602,2.9602,2.9602,2.9602,2.9602,2.9883,3.0417,2.9869,2.9897,3.0403,2.9855,2.9834,3.0238,2.9331,2.9184,2.9598,2.8639,2.8895,2.9869,2.946,2.9869,3.0784,3.1645,3.2344,3.2893,1.1045,1.1475,1.179,1.141,1.2335,1.2955,1.2461,1.2389,1.2505,1.2819,1.2866,0.0,0.0,0.0,0.0,0.0,1.2469,1.2675,1.2675,1.2675,1.2675,1.2675,1.2705,1.2754,1.2754,1.3341,1.361,0.0,0.0,0.0,0.0,0.0,0.0,0.0,1.4351,1.4305,1.4326,0.0,0.0,1.7629,1.7514,0.0,2.1404,2.1404,2.1728,2.2197,2.2197,2.2309,2.2482,0.0,2.2783,2.2419,0.0,0.0,0.0,0.0,0.0,0.0,0.0,0.0,0.0,0.0,0.0,0.0,2.24,2.2729,2.3032,0.0,0.0,0.0,0.0,0.0,0.0,0.0,0.0,0.0,0.0,0.0,0.0,0.0,0.0,0.0,0.0,3.2609,3.1935,3.1682,3.0726,3.0052,2.9799,2.9673,2.9602,2.9602,2.9602,2.9602,2.9602,2.9602,2.9673,2.9785,2.9673,2.9673,2.9785,2.9659,2.9331,2.8876,2.816,2.7795,2.77,2.6883,2.7452,2.8847,2.9172,2.9424,2.9665,3.0325,3.0822,3.1357,1.1204,1.15,1.178,1.1535,1.1965,1.2328,1.2249,1.2246,1.2478,1.307,1.3201,0.0,0.0,0.0,0.0,0.0,0.0,0.0,0.0,1.2881,1.2783,1.2529,1.248,1.2372,1.2067,1.2295,1.2384,1.2384,0.0,0.0,0.0,0.0,0.0,0.0,0.0,0.0,0.0,0.0,1.534,1.7534,1.8055,0.0,2.144,2.1692,2.1969,2.2197,2.2197,2.2197,2.2247,2.2531,2.2469,0.0,0.0,2.2865,2.253,0.0,2.24,2.2502,0.0,0.0,0.0,2.1862,0.0,0.0,0.0,2.2286,2.2857,0.0,0.0,0.0,0.0,0.0,0.0,0.0,0.0,0.0,0.0,0.0,0.0,0.0,0.0,0.0,0.0,3.1668,3.1485,3.1485,3.06,3.0066,3.0066,2.9771,2.9602,2.9602,2.9602,2.9602,2.9602,2.9602,2.9757,3.0066,2.9757,2.9771,3.0052,2.9337,2.8839,2.8427,2.7391,2.6909,2.6784,2.6274,2.6574,2.7392,2.8198,2.8835,2.9328,2.9593,3.0025,3.0482,1.1296,1.1518,1.1763,1.1653,1.1682,1.1843,1.2084,1.2225,1.2524,1.3235,0.0,0.0,0.0,0.0,0.0,0.0,0.0,0.0,0.0,0.0,1.2529,1.2126,1.1977,1.1719,1.1209,1.12,1.12,1.12,0.0,0.0,0.0,0.0,0.0,0.0,0.0,0.0,0.0,0.0,0.0,1.7291,0.0,2.017,2.1596,2.1921,2.2101,2.2197,2.2197,2.2197,2.2185,2.2061,0.0,2.2047,2.2369,2.2472,0.0,0.0,0.0,0.0,0.0,0.0,0.0,0.0,0.0,2.1851,0.0,0.0,0.0,0.0,0.0,0.0,0.0,0.0,0.0,0.0,0.0,0.0,0.0,0.0,0.0,0.0,0.0,0.0,0.0,3.0712,3.0895,3.0783,3.0403,3.0164,3.0164,2.9813,2.9602,2.9602,2.9602,2.9602,2.9602,2.9602,2.9778,3.0127,2.9638,2.9603,2.9919,2.8801,2.8233,2.8038,2.6867,2.6346,2.6176,2.5972,2.5949,2.6057,2.7152,2.8089,2.8859,2.8955,2.9328,2.9797,1.1307,1.1313,1.1207,1.0677,1.1482,1.2084,1.1661,1.1934,1.2261,0.0,0.0,0.0,0.0,0.0,0.0,0.0,0.0,0.0,1.2881,0.0,0.0,1.2076,1.161,1.1259,1.12,1.12,1.12,1.12,1.1301,0.0,0.0,0.0,0.0,0.0,1.2929,0.0,0.0,0.0,1.5205,0.0,1.8633,2.0604,0.0,2.1644,2.1789,2.2197,2.2197,2.2197,2.2123,0.0,2.1198,2.1129,0.0,2.0545,0.0,0.0,0.0,0.0,0.0,0.0,0.0,0.0,2.0711,0.0,0.0,0.0,0.0,0.0,0.0,0.0,0.0,0.0,0.0,0.0,0.0,0.0,0.0,0.0,0.0,0.0,0.0,0.0,0.0,0.0,2.8788,2.824,2.8633,2.89,2.89,2.935,2.9602,2.9602,2.9602,2.9602,2.9602,2.9602,2.9289,2.8729,2.8661,2.8352,2.7842,2.7709,2.7271,2.6607,2.6483,2.6,2.5453,2.5372,2.5396,2.5504,2.6598,2.7103,2.726,2.7729,2.8234,2.8751,1.1088,1.104,1.0926,1.0582,1.1143,1.1603,1.1578,1.2133,1.2626,0.0,0.0,0.0,0.0,0.0,0.0,0.0,0.0,1.2881,0.0,0.0,0.0,1.161,1.1057,1.06,1.0277,1.0285,1.0285,1.0285,1.0592,0.0,0.0,0.0,0.0,0.0,1.2881,0.0,1.3184,0.0,1.5111,0.0,0.0,0.0,0.0,2.1625,2.1993,2.2197,2.2197,2.239,2.2516,0.0,2.1506,0.0,0.0,0.0,0.0,0.0,0.0,0.0,0.0,0.0,0.0,0.0,0.0,0.0,0.0,0.0,2.0813,0.0,0.0,0.0,0.0,0.0,0.0,0.0,0.0,0.0,0.0,0.0,0.0,0.0,0.0,0.0,0.0,0.0,0.0,0.0,0.0,2.7917,2.8647,2.8942,2.9237,2.9602,2.9602,2.9602,2.9602,2.9198,2.8839,2.8492,2.8117,2.7802,2.7484,2.7082,2.6676,2.6346,2.5931,2.5594,2.5312,2.5312,2.5312,2.5348,2.5817,2.6178,2.6514,2.7067,2.7596,2.8089,1.0881,1.0784,1.07,1.0665,1.1014,1.1407,1.1881,1.2471,0.0,0.0,0.0,0.0,1.2881,1.2881,0.0,0.0,0.0,1.2881,0.0,0.0,1.1669,0.0,0.0,0.0,0.0,0.9614,0.9614,0.9614,0.9976,0.0,0.0,0.0,0.0,0.0,0.0,1.3115,1.3281,0.0,0.0,1.6533,1.8289,1.9427,2.0226,2.1463,2.1925,2.1925,2.1925,2.2258,2.2504,2.1563,2.1286,0.0,2.1415,0.0,0.0,0.0,0.0,0.0,1.9221,0.0,0.0,0.0,0.0,0.0,0.0,0.0,0.0,0.0,0.0,0.0,0.0,0.0,0.0,0.0,0.0,0.0,0.0,0.0,0.0,0.0,0.0,0.0,0.0,0.0,0.0,2.6719,2.6496,2.6745,2.7621,2.8177,2.8552,2.8809,2.9317,2.9401,2.9008,2.8853,2.8505,2.7907,2.767,2.7271,2.6867,2.6333,2.607,2.607,2.5511,2.5312,2.5312,2.5312,2.5312,2.5312,2.5312,2.554,2.5949,2.6502,2.7043,2.7524,1.0784,1.0582,0.0,0.0,1.1292,1.1881,1.2753,0.0,0.0,0.0,0.0,0.0,0.0,0.0,0.0,0.0,0.0,1.2881,1.2881,0.0,1.12,0.0,0.0,0.9614,0.0,0.0,0.9614,0.9614,0.9614,0.0,0.0,0.0,0.0,0.0,0.0,1.3711,1.415,1.572,1.6318,1.6296,1.8467,1.9648,2.0172,0.0,2.1135,2.1135,2.1135,0.0,0.0,2.0275,1.9796,0.0,0.0,0.0,0.0,0.0,0.0,0.0,0.0,0.0,0.0,1.8475,0.0,0.0,0.0,0.0,2.0586,0.0,0.0,0.0,0.0,0.0,0.0,0.0,0.0,0.0,0.0,0.0,0.0,0.0,0.0,0.0,0.0,0.0,0.0,2.4123,2.4706,2.506,2.5129,2.6754,2.7436,2.6841,2.8628,2.8944,2.755,2.8881,2.8532,2.6483,2.7149,2.6731,2.5382,2.5382,2.5312,2.53,2.5312,2.5312,2.5312,2.5312,2.5312,2.5312,2.5312,2.5312,2.5396,2.5925,2.6478,2.7031,1.1284,0.0,0.0,0.0,0.0,0.0,0.0,1.2676,0.0,0.0,0.0,0.0,0.0,0.0,1.3711,0.0,0.0,1.3301,1.3301,1.2004,0.0,0.0,0.0,0.9716,0.0,0.0,0.0,0.0,0.0,0.0,0.0,0.0,0.0,0.0,0.0,1.3622,0.0,0.0,0.0,0.0,0.0,1.8843,1.9441,0.0,0.0,2.042,2.042,2.0742,0.0,2.007,1.9934,2.0163,1.9885,1.9334,1.9007,1.9574,1.9423,0.0,0.0,0.0,1.9241,1.8019,0.0,0.0,0.0,0.0,0.0,0.0,0.0,0.0,0.0,0.0,0.0,0.0,0.0,0.0,0.0,0.0,0.0,0.0,0.0,0.0,0.0,0.0,0.0,2.3466,2.3636,2.4134,0.0,2.5937,2.6532,2.6673,2.7706,2.8012,2.7484,2.7484,2.7149,2.6414,2.6126,2.5779,2.5312,2.5312,2.5312,2.5312,2.5312,2.5312,2.5312,2.5312,2.5312,2.5312,2.5312,2.5312,2.5336,2.5504,2.6154,2.7055,1.1767,1.1638,0.0,0.0,0.0,0.0,0.0,0.0,0.0,0.0,1.3633,0.0,1.4048,0.0,1.4077,0.0,1.3834,1.373,1.373,1.2574,0.0,1.2272,1.1038,0.0,0.0,0.0,0.0,0.0,0.0,0.9725,0.0,0.0,0.0,0.0,0.0,1.3431,1.3905,0.0,1.6614,0.0,0.0,1.818,0.0,0.0,1.9274,1.9523,0.0,1.9823,2.0108,1.9538,1.9515,1.9829,1.9698,1.9394,1.917,1.9746,1.9727,1.9453,1.917,1.9492,0.0,1.8369,1.8682,0.0,1.8057,0.0,0.0,0.0,0.0,0.0,0.0,0.0,0.0,0.0,0.0,0.0,0.0,1.8613,0.0,0.0,0.0,0.0,0.0,0.0,2.1843,2.2686,2.2526,2.2853,0.0,0.0,2.5486,2.5664,2.6802,2.7204,2.6731,2.6595,2.6333,2.5931,2.5721,2.5441,2.5241,2.5241,2.5241,2.5241,2.5182,2.5111,2.5111,2.5111,2.5111,2.5111,2.5111,2.5111,2.5111,2.5241,2.5997,2.7079,1.2144,1.2258,0.0,0.0,1.1722,0.0,0.0,0.0,1.3464,0.0,1.3854,1.4126,1.4145,1.4145,1.4145,1.4145,1.4126,0.0,1.4107,1.3594,0.0,0.0,1.2231,1.1624,1.1648,0.0,0.0,0.0,0.0,0.0,0.0,0.0,0.0,0.0,1.2399,0.0,1.3433,1.6387,1.7073,1.6262,1.7451,1.7705,1.7353,1.7353,1.779,1.8286,1.8328,1.8616,1.8916,1.8695,1.8592,1.8769,1.916,1.9033,1.8896,1.9707,1.9941,1.9941,1.9941,1.9941,1.9844,1.9394,0.0,0.0,0.0,0.0,1.9199,0.0,0.0,0.0,0.0,0.0,0.0,0.0,0.0,0.0,0.0,0.0,0.0,0.0,0.0,0.0,0.0,2.015,2.0701,2.1679,2.1313,0.0,0.0,0.0,2.4304,2.3827,2.5946,2.6514,2.5312,2.6296,2.6227,2.5123,2.5721,2.5721,2.5123,2.5123,2.5123,2.5052,2.4861,2.479,2.479,2.479,2.479,2.479,2.479,2.479,2.4861,2.5242,2.5973,2.7004,1.2496,1.1886,1.1262,0.0,1.0998,1.1006,0.0,0.0,0.0,0.0,1.39,1.4157,1.4992,1.5088,1.5088,1.5088,1.4795,0.0,0.0,0.0,0.0,1.3634,1.275,1.2172,1.1876,1.1429,0.0,1.0104,0.0,0.0,0.9022,0.0,0.0,0.0,0.0,0.0,1.4271,1.5345,1.609,1.6592,1.6924,1.6992,0.0,0.0,1.6958,1.7229,1.7873,1.818,1.8261,1.8486,1.9062,1.9551,1.9346,1.9648,2.0117,2.0332,2.04,2.04,2.04,2.04,2.0225,1.9473,1.9521,1.9551,0.0,0.0,0.0,0.0,0.0,0.0,0.0,0.0,0.0,0.0,0.0,0.0,0.0,0.0,0.0,0.0,0.0,0.0,1.8398,1.8541,1.8924,1.9817,2.0415,2.1035,0.0,0.0,0.0,2.3549,2.4897,2.5441,2.5182,2.5253,2.5182,2.4861,2.5064,2.5064,2.4861,2.4861,2.4861,2.4861,2.479,2.479,2.479,2.479,2.479,2.479,2.479,2.479,2.4884,2.5772,2.6221,2.6612,1.258,0.0,0.0,1.0854,0.0,0.0,1.1319,0.0,0.0,1.3591,1.3846,0.0,1.5031,1.5137,1.5215,1.5391,1.5195,0.0,0.0,0.0,0.0,1.4112,1.3385,1.2779,1.243,1.1563,0.0,1.069,0.0,0.0,0.8937,0.0,0.0,0.0,0.0,1.2153,1.3093,1.4504,1.5554,1.6367,1.7009,0.0,0.0,1.6943,1.6894,1.6782,1.7705,1.8008,1.8076,1.8496,1.9082,1.96,1.9365,1.9746,2.0283,2.0283,2.042,2.0566,2.0566,2.0566,2.0449,1.9971,2.0019,2.0019,1.9346,1.957,1.9844,0.0,0.0,0.0,0.0,0.0,0.0,0.0,0.0,0.0,0.0,0.0,0.0,0.0,0.0,0.0,1.5643,1.6981,1.8002,1.8419,1.9222,2.0034,0.0,0.0,0.0,2.3349,2.4295,2.4909,2.4992,2.4706,2.4574,2.4646,2.4646,2.4646,2.4646,2.4646,2.4646,2.4646,2.4574,2.4562,2.4562,2.4562,2.4562,2.4562,2.4562,2.4562,2.469,2.5704,2.6153,2.6447,1.2382,0.0,0.0,0.0,0.0,0.0,0.0,1.2175,0.0,1.3276,0.0,1.4295,1.4668,1.4805,1.499,1.5303,0.0,1.5352,1.5294,1.5294,1.5001,1.441,1.3803,1.3357,1.2981,1.1568,0.0,0.0,0.0,0.9314,0.8832,0.0,0.0,0.0,0.0,0.0,0.0,1.3769,1.514,1.578,1.7111,1.7239,1.6699,1.7197,1.7148,1.6924,1.7725,1.8047,1.8154,1.8584,1.9053,1.9443,1.9385,1.9658,2.0,2.0,2.0273,2.0566,2.0566,2.0566,2.0566,2.0566,2.0566,2.0469,2.0088,2.0,2.0,2.0,1.9707,1.9551,0.0,0.0,0.0,0.0,0.0,0.0,0.0,0.0,0.0,0.0,0.0,0.0,0.0,1.5293,1.7063,1.704,1.7688,1.8533,0.0,0.0,0.0,2.2989,2.3873,0.0,2.479,0.0,2.4273,2.449,2.449,2.449,2.449,2.449,2.449,2.4418,2.4273,2.42,2.42,2.42,2.42,2.42,2.42,2.42,2.4315,2.5256,2.5754,2.6123,0.0,0.0,0.0,0.0,0.0,1.0306,1.0953,1.1856,1.2805,1.38,1.4242,1.4383,1.4262,1.4883,1.5186,1.4922,1.5215,0.0,0.0,0.0,0.0,1.3692,1.3571,1.3476,1.3417,1.2335,1.1807,0.0,1.0282,0.9361,0.9125,0.0,0.0,0.0,0.0,0.0,1.2071,1.2825,0.0,1.5113,1.5448,1.5866,1.6269,1.708,1.7334,1.7334,1.7832,1.8232,1.8594,1.9023,1.9697,2.0273,1.9922,2.0098,2.0449,2.0449,2.0508,2.0566,2.0566,2.0566,2.0566,2.0566,2.0566,2.0547,2.0469,2.0449,2.0449,2.0449,2.0391,2.0254,1.9971,0.0,0.0,0.0,0.0,0.0,0.0,0.0,0.0,0.0,0.0,0.0,0.0,0.0,0.0,0.0,0.0,0.0,0.0,0.0,0.0,0.0,2.3044,0.0,0.0,0.0,2.42,2.4261,2.4261,2.4261,2.4261,2.4261,2.4261,2.4273,2.42,2.42,2.42,2.42,2.42,2.42,2.42,2.42,2.4269,2.4843,2.4661,2.447,0.0,0.0,0.0,0.0,0.0,0.0,0.0,1.1862,0.0,1.3159,1.3487,1.3704,1.3776,1.4038,1.4251,1.4261,1.4347,1.4282,1.3992,1.3992,1.3683,1.3009,1.3009,0.0,1.2677,1.1921,1.1665,1.1953,1.0415,0.9606,0.0,0.0,0.0,0.0,0.0,1.0404,0.0,0.0,0.0,1.4021,1.4874,1.5366,1.5688,1.6769,1.7148,1.7235,1.7794,1.8281,1.8701,1.9141,1.9561,1.9941,2.0176,2.0244,2.0273,2.0498,2.0566,2.0566,2.0566,2.0566,2.0566,2.0566,2.0566,2.0479,2.001,2.0245,2.0489,2.001,2.0333,2.0275,1.9297,1.7197,0.0,0.0,0.0,0.0,0.0,0.0,0.0,0.0,0.0,0.0,0.0,0.0,0.0,0.0,0.0,0.0,0.0,0.0,0.0,0.0,0.0,0.0,0.0,0.0,0.0,2.42,2.42,2.42,2.42,2.42,2.42,2.42,2.42,2.42,2.42,2.42,2.397,2.3593,2.3593,2.3287,2.3034,2.3504,2.3371,2.3399,0.0,1.0922,0.0,0.0,1.0922,0.0,1.1347,1.1756,1.2209,1.2498,1.2674,1.2931,1.3263,1.321,1.3302,1.3609,1.3525,1.3442,1.3321,1.326,1.3009,1.2336,1.2336,1.2202,1.2055,1.1398,1.1398,0.0,1.0471,0.9728,0.0,0.0,0.0,0.0,0.0,0.0,0.0,0.0,1.2836,1.3195,1.443,1.4985,1.5232,1.6225,1.6655,1.6724,1.751,1.8006,1.8344,1.8922,1.9209,1.9424,1.9956,1.9898,1.9657,2.0178,2.0265,2.0188,2.0188,2.0256,2.0226,1.9974,2.0012,1.9844,1.9213,1.9529,1.9844,1.9134,1.9608,1.9556,1.8055,1.6427,0.0,0.0,0.0,0.0,0.0,0.0,0.0,0.0,0.0,0.0,0.0,0.0,0.0,0.0,0.0,0.0,0.0,0.0,0.0,0.0,0.0,2.1525,2.2371,0.0,2.3065,0.0,2.3897,2.397,2.397,2.4116,2.42,2.42,2.42,2.4116,2.397,2.397,2.3446,2.2767,2.2767,2.2381,2.1807,2.2247,2.2226,2.2261,0.0,0.0,0.0,0.0,0.0,0.0,0.0,1.1226,1.1694,1.2565,1.2618,1.2528,1.2595,1.2846,1.3018,1.3012,1.3297,1.326,1.2634,1.2573,1.2336,1.1677,1.1677,1.1903,1.2403,1.1571,1.1571,0.0,0.0,0.9522,0.0,0.0,0.0,0.0,0.0,0.0,0.0,1.1078,1.199,1.3462,1.3741,1.4362,1.5163,1.56,1.5807,1.5956,1.6724,1.7028,1.719,1.8334,1.8965,1.9219,1.8919,1.8552,1.8536,1.9229,1.9201,1.8982,1.8982,1.9173,1.9131,1.8039,1.8057,1.8238,1.8158,1.8158,1.8238,1.8158,1.8158,1.7717,1.6166,1.5841,1.5222,0.0,0.0,0.0,0.0,0.0,0.0,0.0,0.0,0.0,0.0,0.0,0.0,0.0,0.0,0.0,0.0,0.0,0.0,1.6712,0.0,1.9459,2.0247,2.1377,0.0,2.2059,2.2767,2.3075,2.315,2.3897,2.42,2.42,2.42,2.3824,2.3075,2.3075,2.2617,2.1907,2.1907,2.1842,2.1842,2.1883,2.1369,2.0742,0.0,0.0,0.0,0.0,0.0,0.0,0.0,1.082,1.092,1.1259,1.1558,1.1696,1.1704,1.1923,1.2028,1.1979,1.221,1.2228,1.1981,1.1981,1.1856,1.1622,1.1622,1.1677,1.1981,1.1613,1.1606,0.0,0.0,0.0,0.0,0.0,0.0,0.0,0.0,1.0487,1.0978,1.0855,1.1402,1.2362,1.2098,1.2465,1.3193,1.4101,1.4506,1.4657,1.5799,1.6167,1.6254,1.6704,1.7291,1.7906,1.8286,1.7757,1.7237,1.7778,1.7823,1.7707,1.7707,1.7823,1.7879,1.7571,1.7622,1.7635,1.7293,1.7585,1.7836,1.735,1.7188,1.6976,1.6354,1.5529,1.4678,0.0,0.0,0.0,0.0,0.0,0.0,0.0,0.0,0.0,0.0,0.0,0.0,0.0,0.0,0.0,0.0,0.0,0.0,1.5946,0.0,1.8215,1.9523,2.0014,2.073,2.1832,2.2145,2.2306,2.2295,2.2596,2.2745,2.2745,2.2745,2.2596,2.2306,2.2306,2.1766,2.1021,2.1281,2.0909,2.0333,2.0603,2.0299,1.9784,1.2215,0.0,1.1877,0.0,1.1377,1.1175,1.0726,1.0573,1.0411,1.019,1.049,1.0836,1.1089,1.1114,1.1179,1.1279,1.1473,1.1622,1.1622,1.1622,1.1622,1.1622,1.1622,0.0,1.1622,1.1622,1.1622,1.1622,1.1059,0.0,0.0,0.0,0.0,0.0,1.0611,1.0855,1.0937,1.0937,1.1147,1.1474,1.114,1.1287,1.1774,1.2785,1.3135,1.3281,1.4657,1.5092,1.5163,1.5596,1.5948,1.6342,1.7022,1.6676,1.5942,1.6488,1.6556,1.648,1.648,1.6556,1.659,1.6528,1.6571,1.661,1.6132,1.6557,1.6871,1.6312,1.6226,1.6296,1.6214,1.5211,1.4328,1.3975,0.0,0.0,0.0,0.0,0.0,0.0,1.2098,1.17,1.1572,0.0,0.0,0.0,0.0,0.0,0.0,0.0,0.0,0.0,0.0,0.0,0.0,1.8708,1.9562,2.1068,2.1298,2.1461,2.1461,2.168,2.1832,2.1832,2.1832,2.168,2.1461,2.1461,2.0924,2.0186,2.0474,2.0019,1.9338,1.9641,1.9558,1.9301,1.2569,1.2274,1.2076,1.1927,1.1578,1.1124,1.0573,1.0522,1.0308,0.9666,0.9614,0.9941,1.0792,1.0718,1.0719,1.11,1.1431,1.1622,1.1622,1.1622,1.1622,0.0,0.0,1.1622,1.1622,1.1622,1.1622,1.1622,0.0,0.0,1.0807,0.0,1.0281,1.08,1.0807,1.0964,1.1179,1.1179,1.118,1.1209,1.1209,1.1379,1.1706,1.1706,1.1706,1.1922,1.3208,1.3708,1.3924,1.5234,1.5242,1.4665,1.5022,1.4895,1.4744,1.5511,1.5495,1.5322,1.5322,1.5479,1.5418,1.429,1.4472,1.486,1.4553,1.4721,1.4948,1.4948,1.5204,1.5347,1.5173,1.4908,1.4351,1.3285,0.0,0.0,0.0,0.0,0.0,0.0,1.1784,1.1197,1.0767,0.0,0.0,0.0,0.0,0.0,0.0,0.0,0.0,1.1587,1.3777,0.0,1.6348,1.7409,1.8487,1.9301,2.0157,2.0537,2.0537,2.1375,2.1832,2.1832,2.1832,2.1298,2.0537,2.0537,2.0079,1.9301,1.9301,1.9301,1.9301,1.9311,1.9301,1.9301,1.2618,1.2421,1.2175,1.1569,1.1377,1.1226,1.1074,1.0718,1.0368,0.994,0.9725,0.9703,0.9963,1.0368,1.0719,0.0,1.1439,1.1622,0.0,1.1622,1.1622,1.1622,1.1622,1.1622,1.1622,1.1622,1.1622,1.1622,0.0,0.0,0.0,1.1012,1.1173,1.1632,1.1854,1.1798,1.1485,1.1147,1.0817,1.0569,1.0214,1.0296,1.0513,1.0962,1.1111,1.1186,1.2063,1.2352,1.2425,1.331,1.3462,1.3339,1.3814,1.393,1.3885,1.4096,1.4154,1.4086,1.4086,1.4154,1.4186,1.4021,1.4304,1.4648,1.4765,1.4874,1.4882,1.467,1.4874,1.5012,1.5012,1.4939,1.4745,1.3989,1.3332,0.0,0.0,0.0,0.0,0.0,1.1199,1.0683,0.0,0.9458,0.0,0.0,0.0,0.0,0.0,0.0,0.0,0.0,1.3563,0.0,1.5651,1.6078,1.6944,1.8407,1.8638,1.9116,1.9687,1.9991,2.007,2.007,2.007,1.9913,1.9687,1.9687,1.9539,1.9329,1.9613,1.9549,1.9338,1.9622,1.9549,1.9222,1.2997,1.2666,1.2332,1.1728,1.1418,1.1276,1.1175,1.0769,1.0368,1.0051,0.9777,0.9665,0.9782,1.0272,0.0,1.0872,1.1304,1.1622,1.1622,1.1622,1.1622,1.1622,1.1622,1.1622,1.1622,0.0,0.0,1.1622,1.1677,1.1667,1.1596,1.173,1.1888,1.2226,1.2431,1.21,1.1444,1.1172,1.0694,1.0132,0.9849,0.9793,0.9922,1.0293,1.0438,1.0519,1.1186,1.1335,1.1484,1.2077,1.2378,1.2673,1.3046,1.3346,1.3492,1.3492,1.3492,1.3492,1.3492,1.3492,1.3543,1.3748,1.4136,1.4523,1.4721,1.467,1.4523,1.4326,1.4545,1.4765,1.4765,1.4777,1.4639,1.416,1.3466,1.2949,1.2862,0.0,0.0,0.0,0.0,0.0,0.0,0.9077,0.0,0.0,0.0,0.0,0.0,0.0,0.0,1.1792,1.3336,0.0,1.5394,1.5394,1.6124,1.7513,1.7513,1.7836,1.8318,1.8318,1.8318,1.8318,1.8318,1.8318,1.8318,1.8318,1.8318,1.8345,1.8597,1.8545,1.8353,1.8606,1.8536,1.8247,1.3563,1.2997,0.0,0.0,1.1619,0.0,1.0972,1.0667,1.0411,1.0102,0.9777,0.9731,1.0038,1.0326,1.053,1.053,0.0,0.0,0.0,1.149,1.149,1.149,1.149,1.149,1.149,1.149,1.1505,1.1527,1.1847,1.1815,1.1621,1.2133,1.2419,1.2555,1.2509,1.2054,1.124,1.124,1.0736,0.9922,0.9922,0.9922,0.9922,0.9922,0.9922,0.9997,1.0519,1.0738,1.0812,1.1409,1.2003,1.2452,1.2526,1.2973,1.3419,1.3492,1.3492,1.3492,1.3492,1.3492,1.3492,1.3492,1.3967,1.445,1.4494,1.4231,1.3989,1.4011,1.4238,1.4443,1.4465,1.4381,1.4153,1.3759,1.3554,1.3194,1.2243,0.0,0.0,0.0,0.0,0.0,0.0,0.8972,0.8685,0.0,0.0,0.0,0.0,0.0,1.0578,1.0966,1.2993,1.4412,1.5318,1.5311,1.5718,1.6617,1.6698,1.6698,1.6698,1.6698,1.6698,1.6698,1.6698,1.6698,1.6698,1.6698,1.6698,1.6698,1.6698,1.6698,1.6698,1.6698,1.6698,1.6698,0.0,0.0,1.2939,1.1719,1.1377,1.1276,1.1226,1.082,1.047,1.0411,0.9932,0.9643,0.9716,0.991,1.0013,1.0013,1.0573,1.08,1.0401,1.0401,1.0401,1.0401,1.0401,1.0401,1.0401,1.0401,1.0456,1.0686,1.1376,1.1689,1.1628,1.151,1.1968,1.2906,1.2642,1.2204,1.1605,1.1605,1.0902,0.9922,0.9922,0.9922,0.9922,0.9922,0.9922,0.9916,1.0067,1.0143,1.0218,1.0812,1.1111,1.1335,1.1781,1.2305,1.29,1.3346,1.3492,1.3492,1.3492,1.3492,1.3492,1.3492,1.3799,1.4231,1.4721,1.4392,1.4048,1.4304,1.4216,1.4172,1.4421,1.4452,1.4073,1.2815,1.2518,1.1954,1.0448,1.0121,0.0,0.0,0.9159,0.8978,0.8467,0.8317,0.8201,0.0,0.0,0.0,0.0,0.9082,1.0167,1.1219,1.2413,1.3476,1.4412,1.4419,1.4824,1.5718,1.637,1.6698,1.6698,1.6698,1.6698,1.6698,1.6698,1.6698,1.6698,1.6698,1.6698,1.6698,1.6698,1.6698,1.6698,1.6698,1.6698,1.6617,1.3218,1.342,1.3122,1.1569,1.1326,1.1326,1.1326,1.1074,1.0769,1.0522,1.0095,0.9725,0.9614,0.9831,0.9852,0.9485,1.0078,1.0281,1.0021,1.0015,1.0015,1.0015,1.0015,1.0015,1.0015,1.0015,1.0095,1.0251,1.0934,1.1214,1.1071,1.1344,1.1703,1.2239,1.2244,1.1855,1.126,1.126,1.0738,0.9922,0.9922,0.9922,0.9922,0.9922,0.9922,0.9922,0.9922,0.9922,0.9916,1.0293,1.0594,1.0887,1.1186,1.1706,1.2305,1.29,1.3273,1.3558,1.3857,1.3836,1.3792,1.4084,1.4179,1.4333,1.4831,1.456,1.4253,1.4435,1.4209,1.3957,1.3901,1.3768,1.3319,1.2229,1.1866,1.1377,1.0415,0.9694,0.0,0.9034,0.8709,0.8423,0.8467,0.8325,0.8272,0.8288,0.0,0.0,0.828,0.8776,0.954,1.0626,1.2015,1.296,1.3483,1.3913,1.4334,1.4824,1.5311,1.5477,1.5477,1.5477,1.5477,1.547,1.5315,1.5337,1.5462,1.5315,1.5337,1.5477,1.5477,1.5477,1.5477,1.5477,1.5477,1.5477,1.3621,1.3621,1.3122,1.1569,1.1326,1.1326,1.1326,1.1326,1.1124,1.0667,1.0205,0.9836,0.951,0.9836,0.9771,0.9034,0.9431,0.968,0.9761,0.9767,0.9767,0.9767,0.9767,0.9767,0.9767,0.9874,0.9933,0.9858,1.0414,1.0643,1.0442,1.0991,1.1285,1.1297,1.1384,1.1186,1.0738,1.0738,1.0443,0.9922,0.9922,0.9922,0.9922,0.9922,0.9922,0.9922,0.9922,0.9922,0.9922,0.9922,1.0218,1.0663,1.0663,1.1111,1.1639,1.221,1.2815,1.346,1.4245,1.4231,1.4201,1.4794,1.4743,1.4626,1.494,1.4772,1.4553,1.4604,1.4234,1.3744,1.3279,1.2849,1.2413,1.1763,1.1338,1.095,1.0605,0.0,0.8956,0.9115,0.8465,0.8158,0.8532,0.8568,0.8503,0.8345,0.8479,0.8499,0.0,0.8483,0.8915,0.9689,1.1413,1.2357,1.2534,1.3392,1.3913,1.3913,1.4004,1.4088,1.4088,1.4088,1.4088,1.4075,1.3821,1.3854,1.4068,1.3814,1.3854,1.4088,1.4088,1.4088,1.4088,1.4088,1.4088,1.4088,1.3621,1.3621,1.3122,1.1569,1.1326,1.1326,1.1326,1.1326,1.1267,1.1175,1.0293,0.9458,0.8981,0.899,0.891,0.8543,0.8257,0.8321,0.8737,0.8705,0.8705,0.8705,0.8705,0.8705,0.8705,0.9425,0.9571,0.9056,0.9732,1.0018,0.9991,0.9425,0.9728,1.0662,1.049,1.0368,1.0293,1.0663,1.0443,0.9922,0.9922,0.9922,0.9922,0.9922,0.9922,0.9922,0.9922,0.9922,0.9922,0.9922,0.9997,1.0067,1.0067,1.0443,1.1004,1.1383,1.1903,1.2533,1.3791,1.4223,1.4479,1.4853,1.4904,1.4955,1.5277,1.5101,1.4948,1.5226,1.4306,1.3505,1.3519,1.2751,1.1814,1.068,1.0391,0.9841,0.8532,0.0,0.8214,0.8049,0.7987,0.8158,0.8532,0.8568,0.8556,0.8528,0.8552,0.8556,0.8528,0.8552,0.8652,0.8828,0.9777,1.0722,1.1499,1.2443,1.2875,1.2966,1.3743,1.4088,1.4088,1.4088,1.4088,1.4082,1.4041,1.4041,1.4082,1.4041,1.4048,1.4088,1.4088,1.4088,1.4088,1.4088,1.4088,1.4088,1.3658,1.2929,1.2157,1.1418,1.1326,1.1326,1.1326,1.1326,1.1326,1.1326,1.0854,0.9969,0.8455,0.8461,0.8489,0.8259,0.789,0.7806,0.8108,0.8248,0.8377,0.8511,0.8517,0.8517,0.8517,0.9009,0.9259,0.905,0.9317,0.941,0.9416,0.8905,0.8939,0.9352,0.9401,0.9387,0.9382,0.9841,0.9846,0.962,0.9846,0.9922,0.9922,0.9922,0.9922,0.9922,0.9922,0.9922,0.9922,0.9922,0.9922,0.9943,1.0078,1.0275,1.0627,1.1263,1.1982,1.281,1.3687,1.4163,1.46,1.5085,1.5204,1.5292,1.5613,1.5438,1.5126,1.5099,1.4324,1.344,1.273,1.2076,1.1313,1.0368,0.9825,0.0,0.0,0.8408,0.8095,0.8405,0.8276,0.8268,0.8544,0.8568,0.8568,0.8568,0.8568,0.8568,0.8568,0.8568,0.8568,0.8568,0.9428,1.0376,1.1322,1.1757,1.1929,1.1929,1.2357,1.2619,1.2619,1.2619,1.2619,1.2607,1.2469,1.2747,1.3288,1.2984,1.338,1.4075,1.3908,1.3948,1.4088,1.4088,1.4088,1.4088,1.3228,1.2107,1.1326,1.1326,1.1326,1.1116,1.06,1.0498,1.0498,1.0498,1.0498,0.9814,0.7925,0.799,0.8075,0.7888,0.7644,0.7542,0.7736,0.7946,0.8172,0.842,0.8484,0.8517,0.8517,0.8694,0.8894,0.9125,0.8862,0.8782,0.8841,0.8529,0.8316,0.8184,0.8486,0.8551,0.8551,0.9013,0.9165,0.9165,0.962,0.9771,0.9771,0.9846,0.9922,0.9922,0.9922,0.9922,0.9922,0.9922,0.996,1.004,1.0234,1.0331,1.0486,1.1141,1.1851,1.2725,1.3536,1.3971,1.4314,1.4999,1.5281,1.5439,1.5605,1.5519,1.5284,1.4817,1.4128,1.3238,1.2044,1.1473,1.0971,1.0458,0.0,0.0,0.0,0.882,0.8255,0.8733,0.8458,0.8361,0.8552,0.8568,0.8568,0.8568,0.8568,0.8568,0.8568,0.8568,0.8568,0.8568,0.9257,0.9946,1.0636,1.0895,1.0977,1.0982,1.1241,1.1327,1.1327,1.1327,1.1327,1.1316,1.1048,1.1499,1.2322,1.1782,1.2359,1.3451,1.308,1.3316,1.3737,1.3737,1.3913,1.4088,1.176,1.1377,1.1326,1.1326,1.1326,1.06,0.8474,0.8162,0.8162,0.8162,0.8162,0.7889,0.7246,0.7348,0.7413,0.7214,0.7171,0.7252,0.7569,0.7736,0.793,0.8229,0.8393,0.8517,0.8517,0.8533,0.8657,0.8888,0.8349,0.8203,0.8406,0.7854,0.7553,0.7617,0.794,0.8178,0.8178,0.8551,0.878,0.878,0.9165,0.9322,0.9397,0.9771,0.9922,0.9922,0.9922,0.9922,0.9922,0.9922,1.0078,1.0272,1.0288,1.0439,1.0611,1.0627,1.0881,1.145,1.3037,1.3464,1.3646,1.4314,1.4909,1.5348,1.4984,1.5136,1.515,1.436,1.3299,1.2498,1.2395,1.1595,1.0941,1.0643,0.0,0.0,0.9399,0.8896,0.847,0.8348,0.8288,0.8361,0.8552,0.8568,0.8568,0.8568,0.8568,0.8568,0.8568,0.8568,0.8568,0.8568,0.8652,0.874,0.8828,0.9602,1.0033,1.0033,1.0895,1.1327,1.1327,1.1327,1.1327,1.1327,1.1305,1.1305,1.1391,1.1126,1.1253,1.1472,1.1304,1.187,1.279,1.279,1.3307,1.4088,1.1469,1.1326,1.1326,1.1326,1.0131,0.889,0.8008,0.7901,0.7901,0.7901,0.7901,0.7848,0.7628,0.7354,0.7192,0.7203,0.7144,0.7133,0.7262,0.7467,0.7822,0.8355,0.8463,0.8517,0.8517,0.8657,0.871,0.8736,0.8389,0.824,0.8218,0.7568,0.7378,0.748,0.7522,0.761,0.7714,0.8174,0.8327,0.8327,0.8784,0.9089,0.9322,0.9473,0.9695,0.9922,0.9922,0.9922,0.9922,0.9922,0.9694,0.9518,1.0301,1.0253,1.0123,1.0863,1.1144,1.1348,1.2105,1.2691,1.312,1.3812,1.4285,1.4591,1.4656,1.4487,1.4237,1.386,1.3135,1.2423,1.2085,1.1658,1.1397,1.1311,0.0,0.9976,1.0064,0.9274,0.8595,0.8597,0.8528,0.8491,0.856,0.8208,0.7937,0.7937,0.7496,0.7231,0.7231,0.7231,0.7408,0.7937,0.7937,0.8116,0.8568,0.8911,0.9087,0.9087,0.9428,0.9602,0.9602,0.9602,0.9602,0.9602,0.9602,0.9946,1.0443,1.0139,1.0603,1.13,1.1063,1.1286,1.1843,1.1843,1.21,1.2357,1.1628,1.0854,1.0233,1.0233,0.8942,0.7901,0.7901,0.7901,0.7901,0.7901,0.7574,0.7354,0.7354,0.6972,0.6701,0.6766,0.6815,0.6841,0.6963,0.7374,0.7887,0.8377,0.8474,0.8517,0.8517,0.8673,0.8732,0.8687,0.835,0.8166,0.8067,0.7476,0.7289,0.7399,0.7334,0.737,0.7484,0.7791,0.7949,0.7949,0.8327,0.8708,0.8941,0.9094,0.9316,0.9539,0.9539,0.9614,0.9706,0.9779,0.9486,0.9148,1.0009,0.9809,0.951,1.1034,1.1194,1.1154,1.1657,1.2215,1.2788,1.3331,1.3693,1.4031,1.4217,1.3975,1.3568,1.3373,1.2865,1.2355,1.1999,1.186,1.1811,1.1811,1.0865,1.0249,1.0532,0.9518,0.8685,0.8524,0.8438,0.8263,0.8027,0.7478,0.7187,0.7139,0.6694,0.6428,0.6428,0.6428,0.6605,0.7136,0.7136,0.7404,0.794,0.8388,0.8568,0.8568,0.8568,0.8568,0.8568,0.8568,0.8568,0.8568,0.8568,0.8915,0.9501,0.9213,0.9672,1.0443,1.0139,1.0439,1.0809,1.0804,1.0971,1.123,1.2076,0.9806,0.7901,0.7901,0.7901,0.7901,0.7901,0.7901,0.7901,0.7901,0.6918,0.6209,0.6209,0.5937,0.5723,0.5618,0.5941,0.6294,0.6559,0.7576,0.8207,0.8207,0.8382,0.8517,0.8517,0.8517,0.863,0.8861,0.8112,0.7808,0.8085,0.7496,0.7224,0.7232,0.7403,0.748,0.7484,0.7484,0.7484,0.7561,0.7949,0.8102,0.8178,0.8551,0.8703,0.8703,0.8703,0.8937,0.9357,0.9579,0.9477,0.9192,0.948,0.9086,0.8932,1.1091,1.098,1.0566,1.171,1.2231,1.2543,1.294,1.3344,1.3532,1.3426,1.3526,1.342,1.2909,1.2476,1.2124,1.2371,1.2215,1.2145,1.2145,1.1221,1.0579,1.0579,0.9749,0.8816,0.7969,0.7872,0.7529,0.6648,0.6633,0.6578,0.6441,0.6432,0.6343,0.6343,0.6343,0.6343,0.6432,0.6432,0.6432,0.6428,0.7852,0.8568,0.8568,0.8568,0.8568,0.8568,0.8568,0.8568,0.8568,0.8568,0.8568,0.8552,0.8369,0.8402,0.8548,0.8365,0.8914,0.9854,0.9671,1.0183,1.0961,1.2076,0.9806,0.7901,0.7901,0.7901,0.7901,0.7901,0.7901,0.7901,0.7901,0.6209,0.5445,0.649,0.5937,0.5555,0.5723,0.5782,0.5806,0.5821,0.6852,0.7399,0.7399,0.8127,0.8517,0.8517,0.8517,0.8498,0.8461,0.7981,0.7674,0.7664,0.7095,0.6985,0.722,0.7143,0.7248,0.7484,0.7484,0.7484,0.7484,0.7638,0.7868,0.8106,0.8255,0.8479,0.8722,0.8874,0.9008,0.9042,0.8756,0.8374,0.7993,0.8017,0.8313,0.8922,0.9526,0.9543,0.9397,0.9956,1.0626,1.1527,1.2411,1.2864,1.3036,1.3036,1.2813,1.2764,1.2813,1.2517,1.2377,1.2614,1.2597,1.2549,1.2549,1.1682,1.1009,1.1009,0.954,0.8413,0.8126,0.7466,0.6863,0.6639,0.6099,0.5795,0.5748,0.5373,0.5108,0.5034,0.5099,0.5288,0.5753,0.5751,0.5984,0.6432,0.6874,0.7316,0.7845,0.7845,0.8116,0.8568,0.8568,0.8568,0.8568,0.8568,0.8568,0.8564,0.8507,0.8519,0.856,0.8507,0.8599,0.8723,0.8632,0.8719,0.8807,1.0956,0.9406,0.8168,0.7955,0.7901,0.7574,0.6696,0.73,0.7901,0.7901,0.6696,0.5882,0.5887,0.5336,0.5062,0.5281,0.5358,0.5517,0.5688,0.6399,0.6821,0.6821,0.739,0.7787,0.8117,0.8117,0.7921,0.7583,0.7176,0.7035,0.7086,0.6704,0.6666,0.7017,0.7045,0.7179,0.7387,0.7452,0.7484,0.7484,0.7484,0.7638,0.7872,0.7872,0.8069,0.838,0.8505,0.8679,0.8774,0.8218,0.772,0.7215,0.7095,0.7322,0.788,0.8663,0.8698,0.8642,0.9196,0.9829,1.0509,1.1096,1.2073,1.2764,1.2764,1.2651,1.2592,1.2732,1.2651,1.2597,1.2737,1.2764,1.2764,1.2565,1.1482,1.0699,1.0404,0.8931,0.77,0.7407,0.678,0.6192,0.5863,0.5425,0.5118,0.5134,0.4821,0.4549,0.4491,0.4508,0.4678,0.5076,0.5073,0.5225,0.5613,0.5657,0.6175,0.7048,0.7048,0.7316,0.7764,0.7764,0.7852,0.8204,0.8204,0.8204,0.8204,0.8204,0.8028,0.7764,0.7764,0.7672,0.7492,0.7584,0.7584,0.7503,0.9218,0.8804,0.854,0.7735,0.7574,0.6918,0.4791,0.6263,0.7574,0.7574,0.7574,0.6864,0.4846,0.4574,0.4519,0.4519,0.4855,0.5341,0.5813,0.6108,0.6334,0.6334,0.6334,0.6662,0.726,0.7391,0.706,0.64,0.6071,0.6075,0.6354,0.6173,0.6325,0.664,0.6977,0.7134,0.7236,0.7411,0.7484,0.7484,0.7484,0.7484,0.7484,0.7484,0.7586,0.774,0.7772,0.8129,0.8374,0.7897,0.7201,0.6643,0.6494,0.6179,0.6239,0.7995,0.8083,0.7828,0.8966,0.9312,0.941,0.941,1.0984,1.2565,1.2662,1.2759,1.2764,1.2764,1.2764,1.2764,1.2764,1.2759,1.2467,1.1975,1.0788,0.9702,0.9213,0.7928,0.6839,0.6042,0.5934,0.5591,0.4814,0.4708,0.4671,0.4579,0.4587,0.4591,0.4585,0.4512,0.4467,0.4459,0.4459,0.4453,0.4434,0.4526,0.5139,0.6287,0.6287,0.637,0.645,0.6462,0.6808,0.7401,0.7415,0.7415,0.7401,0.7401,0.7048,0.6428,0.6428,0.634,0.634,0.6612,0.6615,0.6615,0.891,0.8804,0.8043,0.566,0.5226,0.5066,0.457,0.4901,0.5226,0.5226,0.5226,0.5391,0.5773,0.5007,0.4519,0.4519,0.4448,0.4485,0.475,0.5267,0.554,0.554,0.6067,0.6203,0.5804,0.633,0.6531,0.64,0.6071,0.5877,0.5749,0.5452,0.5599,0.6076,0.6339,0.6722,0.7236,0.7411,0.7484,0.7484,0.7484,0.7484,0.7484,0.7484,0.7508,0.7577,0.7858,0.7655,0.7231,0.6477,0.5763,0.5233,0.5435,0.5503,0.5603,0.612,0.6066,0.6092,0.6603,0.7431,0.8124,0.8319,0.9308,1.0493,1.137,1.2165,1.2764,1.2764,1.2764,1.2764,1.2764,1.2068,1.1468,1.1077,0.9797,0.8612,0.8322,0.7132,0.6242,0.6042,0.5372,0.4927,0.471,0.4708,0.4671,0.4579,0.47,0.4749,0.4683,0.4722,0.4718,0.4653,0.4649,0.4579,0.4436,0.4526,0.5023,0.5813,0.5813,0.6043,0.6593,0.6611,0.6633,0.6612,0.6725,0.6709,0.6605,0.6605,0.6517,0.6428,0.6428,0.6071,0.5628,0.5716,0.5359,0.4823,0.7348,0.7133,0.6588,0.4791,0.4519,0.4519,0.4519,0.4519,0.4519,0.4519,0.4519,0.4736,0.5336,0.4846,0.4556,0.4652,0.4436,0.4323,0.4517,0.4719,0.4821,0.4821,0.5219,0.5219,0.4821,0.5219,0.5418,0.5418,0.5219,0.5153,0.5223,0.4957,0.5062,0.5549,0.5631,0.606,0.6741,0.6992,0.7253,0.7484,0.7176,0.7253,0.7484,0.7176,0.7146,0.716,0.7335,0.684,0.6072,0.5662,0.5265,0.4816,0.486,0.5096,0.536,0.5319,0.5429,0.551,0.571,0.6234,0.6731,0.6933,0.7826,0.8913,1.019,1.1277,1.2063,1.2063,1.2063,1.2165,1.2662,1.137,1.0284,1.0386,0.8806,0.7524,0.7132,0.6137,0.5438,0.5438,0.4995,0.4769,0.4769,0.4769,0.4749,0.4702,0.4781,0.4816,0.4771,0.4773,0.4753,0.471,0.4708,0.4663,0.4567,0.4653,0.489,0.5178,0.5181,0.5296,0.5619,0.568,0.5826,0.5982,0.6079,0.6045,0.5978,0.5652,0.5361,0.5008,0.4828,0.4559,0.4202,0.4469,0.4467,0.4289,0.5677,0.5297,0.5187,0.4739,0.4574,0.4519,0.4519,0.4128,0.3904,0.3904,0.3904,0.4015,0.446,0.4113,0.414,0.4693,0.4451,0.437,0.4613,0.4431,0.43,0.43,0.43,0.43,0.43,0.43,0.43,0.43,0.43,0.4431,0.4631,0.4495,0.4625,0.4967,0.5035,0.544,0.6032,0.6349,0.671,0.7096,0.6633,0.671,0.7096,0.6714,0.656,0.6589,0.6773,0.608,0.5221,0.5265,0.501,0.4732,0.4639,0.4856,0.5177,0.5165,0.5259,0.5412,0.5511,0.5536,0.5636,0.5839,0.6637,0.7528,0.8715,0.9998,1.0979,1.0979,1.0877,1.117,1.2063,1.0382,0.9,0.9402,0.7819,0.6334,0.5839,0.5236,0.4834,0.4834,0.4834,0.4834,0.4834,0.4834,0.4834,0.4834,0.4834,0.4834,0.4834,0.4769,0.473,0.473,0.473,0.4724,0.4708,0.4792,0.4826,0.4812,0.4681,0.461,0.4596,0.461,0.4884,0.5412,0.5342,0.5381,0.5247,0.4709,0.4131,0.3587,0.3047,0.2868,0.2778,0.3133,0.3489,0.3844,0.5352,0.5297,0.5297,0.5187,0.4798,0.4519,0.4519,0.2736,0.14,0.14,0.14,0.2179,0.4294,0.2704,0.2301,0.437,0.3985,0.3952,0.4631,0.4436,0.43,0.43,0.43,0.43,0.43,0.43,0.43,0.43,0.43,0.4233,0.4095,0.3959,0.409,0.4431,0.4469,0.4792,0.5387,0.5585,0.578,0.5854,0.5777,0.578,0.5935,0.6405,0.6261,0.5821,0.6576,0.608,0.5147,0.472,0.4518,0.4451,0.4545,0.4666,0.4687,0.4793,0.4816,0.4824,0.5214,0.524,0.5338,0.5636,0.5737,0.5934,0.6437,0.8219,0.9805,0.9805,0.96,0.9493,0.969,0.8506,0.7419,0.7226,0.6234,0.5338,0.5035,0.4834,0.4834,0.4834,0.4834,0.4834,0.4834,0.4834,0.4834,0.4834,0.4834,0.4834,0.4834,0.4824,0.4818,0.4818,0.4818,0.4781,0.471,0.4792,0.4798,0.4726,0.4775,0.4761,0.4694,0.4765,0.4716,0.4765,0.4835,0.4676,0.4524,0.4055,0.3737,0.3587,0.3047,0.269,0.2243,0.1883,0.1704,0.1792,0.5297,0.5297,0.5297,0.5297,0.4853,0.407,0.2681,0.1567,0.0898,0.0898,0.0898,0.1288,0.2347,0.1603,0.1729,0.3589,0.3486,0.3779,0.4634,0.4436,0.43,0.43,0.43,0.43,0.43,0.43,0.4303,0.4308,0.4303,0.4164,0.4028,0.3892,0.3854,0.3917,0.3935,0.4252,0.491,0.501,0.5315,0.5544,0.5237,0.5315,0.5622,0.555,0.5321,0.511,0.5219,0.4979,0.4622,0.4405,0.4426,0.4518,0.4559,0.4608,0.4665,0.4753,0.4745,0.4728,0.4912,0.4937,0.5037,0.5338,0.5338,0.5438,0.5739,0.6631,0.7624,0.8322,0.8418,0.8414,0.8905,0.7422,0.6234,0.6731,0.5734,0.4937,0.4834,0.4834,0.4834,0.4834,0.4834,0.4834,0.4834,0.4834,0.4834,0.4834,0.4834,0.4834,0.4834,0.4834,0.4533,0.3927,0.4531,0.4214,0.2988,0.3612,0.3612,0.2988,0.3011,0.3612,0.4779,0.4818,0.4792,0.4718,0.4415,0.4246,0.4036,0.3252,0.2834,0.2781,0.2241,0.1973,0.1705,0.1525,0.1436,0.1436]}]]